[[{"header":{"parameterUnit":"m.s-1","parameterCategory":1,"la1":30.6,"la2":28.766,"lo1":-90.7593,"lo2":-88.6598,"dy":0.0162,"dx":0.0183,"nx":116,"ny":114,"refTime":"2023-03-26T06:00:00:Z","depth":0,"parameterNumber":2,"parameterNumberName":"U-component_of_WINDS"},"data":[0.0,0.0,0.0,0.0,0.0,0.0,0.0,0.0,0.0,0.0,0.0,0.0,0.0,0.0,0.0,0.0,0.0,0.0,0.0,0.0,0.0,0.0,0.0,0.0,0.0,0.0,0.0,0.0,0.0,0.0,0.0,0.0,0.0,0.0,0.0,0.0,0.0,0.0,0.0,0.0,0.0,0.0,0.0,0.0,0.0,0.0,0.0,0.0,0.0,0.0,0.0,0.0,0.0,0.0,0.0,0.0,0.0,0.0,0.0,0.0,0.0,0.0,0.0,0.0,0.0,0.0,0.0,0.0,0.0,0.0,0.0,0.0,0.0,0.0,0.0,0.0,0.0,0.0,0.0,0.0,0.0,0.0,0.0,0.0,0.0,0.0,0.0,0.0,0.0,0.0,0.0,0.0,0.0,0.0,0.0,0.0,0.0,0.0,0.0,0.0,0.0,0.0,0.0,0.0,0.0,0.0,0.0,0.0,0.0,0.0,0.0,0.0,0.0,0.0,0.0,0.0,0.0,0.0,0.0,0.0,0.0,0.0,0.0,0.0,0.0,0.0,0.0,0.0,0.0,0.0,0.0,0.0,0.0,0.0,0.0,0.0,0.0,0.0,0.0,0.0,0.0,0.0,0.0,0.0,0.0,0.0,0.0,0.0,0.0,0.0,0.0,0.0,0.0,0.0,0.0,0.0,0.0,0.0,0.0,0.0,0.0,0.0,0.0,0.0,0.0,0.0,0.0,0.0,0.0,0.0,0.0,0.0,0.0,0.0,0.0,0.0,0.0,0.0,0.0,0.0,0.0,0.0,0.0,0.0,0.0,0.0,0.0,0.0,0.0,0.0,0.0,0.0,0.0,0.0,0.0,0.0,0.0,0.0,0.0,0.0,0.0,0.0,0.0,0.0,0.0,0.0,0.0,0.0,0.0,0.0,0.0,0.0,0.0,0.0,0.0,0.0,0.0,0.0,0.0,0.0,0.0,0.0,0.0,0.0,0.0,0.0,0.0,0.0,0.0,0.0,0.0,0.0,0.0,0.0,0.0,0.0,0.0,0.0,0.0,0.0,0.0,0.0,0.0,0.0,0.0,0.0,0.0,0.0,0.0,0.0,0.0,0.0,0.0,0.0,0.0,0.0,0.0,0.0,0.0,0.0,0.0,0.0,0.0,0.0,0.0,0.0,0.0,0.0,0.0,0.0,0.0,0.0,0.0,0.0,0.0,0.0,0.0,0.0,0.0,0.0,0.0,0.0,0.0,0.0,0.0,0.0,0.0,0.0,0.0,0.0,0.0,0.0,0.0,0.0,0.0,0.0,0.0,0.0,0.0,0.0,0.0,0.0,0.0,0.0,0.0,0.0,0.0,0.0,0.0,0.0,0.0,0.0,0.0,0.0,0.0,0.0,0.0,0.0,0.0,0.0,0.0,0.0,0.0,0.0,0.0,0.0,0.0,0.0,0.0,0.0,0.0,0.0,0.0,0.0,0.0,0.0,0.0,0.0,0.0,0.0,0.0,0.0,0.0,0.0,0.0,0.0,0.0,0.0,0.0,0.0,0.0,0.0,0.0,0.0,0.0,0.0,0.0,0.0,0.0,0.0,0.0,0.0,0.0,0.0,0.0,0.0,0.0,0.0,0.0,0.0,0.0,0.0,0.0,0.0,0.0,0.0,0.0,0.0,0.0,0.0,0.0,0.0,0.0,0.0,0.0,0.0,0.0,0.0,0.0,0.0,0.0,0.0,0.0,0.0,0.0,0.0,0.0,0.0,0.0,0.0,0.0,0.0,0.0,0.0,0.0,0.0,0.0,0.0,0.0,0.0,0.0,0.0,0.0,0.0,0.0,0.0,0.0,0.0,0.0,0.0,0.0,0.0,0.0,0.0,0.0,0.0,0.0,0.0,0.0,0.0,0.0,0.0,0.0,0.0,0.0,0.0,0.0,0.0,0.0,0.0,0.0,0.0,0.0,0.0,0.0,0.0,0.0,0.0,0.0,0.0,0.0,0.0,0.0,0.0,0.0,0.0,0.0,0.0,0.0,0.0,0.0,0.0,0.0,0.0,0.0,0.0,0.0,0.0,0.0,0.0,0.0,0.0,0.0,0.0,0.0,0.0,0.0,0.0,0.0,0.0,0.0,0.0,0.0,0.0,0.0,0.0,0.0,0.0,0.0,0.0,0.0,0.0,0.0,0.0,0.0,0.0,0.0,0.0,0.0,0.0,0.0,0.0,0.0,0.0,0.0,0.0,0.0,0.0,0.0,0.0,0.0,0.0,0.0,0.0,0.0,0.0,0.0,0.0,0.0,0.0,0.0,0.0,0.0,0.0,0.0,0.0,0.0,0.0,0.0,0.0,0.0,0.0,0.0,0.0,0.0,0.0,0.0,0.0,0.0,0.0,0.0,0.0,0.0,0.0,0.0,0.0,0.0,0.0,0.0,0.0,0.0,0.0,0.0,0.0,0.0,0.0,0.0,0.0,0.0,0.0,0.0,0.0,0.0,0.0,0.0,0.0,0.0,0.0,0.0,0.0,0.0,0.0,0.0,0.0,0.0,0.0,0.0,0.0,0.0,0.0,0.0,0.0,0.0,0.0,0.0,0.0,0.0,0.0,0.0,0.0,0.0,0.0,0.0,0.0,0.0,0.0,0.0,0.0,0.0,0.0,0.0,0.0,0.0,0.0,0.0,0.0,0.0,0.0,0.0,0.0,0.0,0.0,0.0,0.0,0.0,0.0,0.0,0.0,0.0,0.0,0.0,0.0,0.0,0.0,0.0,0.0,0.0,0.0,0.0,0.0,0.0,0.0,0.0,0.0,0.0,0.0,0.0,0.0,0.0,0.0,0.0,0.0,0.0,0.0,0.0,0.0,0.0,0.0,0.0,0.0,0.0,0.0,0.0,0.0,0.0,0.0,0.0,0.0,0.0,0.0,0.0,0.0,0.0,0.0,0.0,0.0,0.0,0.0,0.0,0.0,0.0,0.0,0.0,0.0,0.0,0.0,0.0,0.0,0.0,0.0,0.0,0.0,0.0,0.0,0.0,0.0,0.0,0.0,0.0,0.0,0.0,0.0,0.0,0.0,0.0,0.0,0.0,0.0,0.0,0.0,0.0,0.0,0.0,0.0,0.0,0.0,0.0,0.0,0.0,0.0,0.0,0.0,0.0,0.0,0.0,0.0,0.0,0.0,0.0,0.0,0.0,0.0,0.0,0.0,0.0,0.0,0.0,0.0,0.0,0.0,0.0,0.0,0.0,0.0,0.0,0.0,0.0,0.0,0.0,0.0,0.0,0.0,0.0,0.0,0.0,0.0,0.0,0.0,0.0,0.0,0.0,0.0,0.0,0.0,0.0,0.0,0.0,0.0,0.0,0.0,0.0,0.0,0.0,0.0,0.0,0.0,0.0,0.0,0.0,0.0,0.0,0.0,0.0,0.0,0.0,0.0,0.0,0.0,0.0,0.0,0.0,0.0,0.0,0.0,0.0,0.0,0.0,0.0,0.0,0.0,0.0,0.0,0.0,0.0,0.0,0.0,0.0,0.0,0.0,0.0,0.0,0.0,0.0,0.0,0.0,0.0,0.0,0.0,0.0,0.0,0.0,0.0,0.0,0.0,0.0,0.0,0.0,0.0,0.0,0.0,0.0,0.0,0.0,0.0,0.0,0.0,0.0,0.0,0.0,0.0,0.0,0.0,0.0,0.0,0.0,0.0,0.0,0.0,0.0,0.0,0.0,0.0,0.0,0.0,0.0,0.0,0.0,0.0,0.0,0.0,0.0,0.0,0.0,0.0,0.0,0.0,0.0,0.0,0.0,0.0,0.0,0.0,0.0,0.0,0.0,0.0,0.0,0.0,0.0,0.0,0.0,0.0,0.0,0.0,0.0,0.0,0.0,0.0,0.0,0.0,0.0,0.0,0.0,0.0,0.0,0.0,0.0,0.0,0.0,0.0,0.0,0.0,0.0,0.0,0.0,0.0,0.0,0.0,0.0,0.0,0.0,0.0,0.0,0.0,0.0,0.0,0.0,0.0,0.0,0.0,0.0,0.0,0.0,0.0,0.0,0.0,0.0,0.0,0.0,0.0,0.0,0.0,0.0,0.0,0.0,0.0,0.0,0.0,0.0,0.0,0.0,0.0,0.0,0.0,0.0,0.0,0.0,0.0,0.0,0.0,0.0,0.0,0.0,0.0,0.0,0.0,0.0,0.0,0.0,0.0,0.0,0.0,0.0,0.0,0.0,0.0,0.0,0.0,0.0,0.0,0.0,0.0,0.0,0.0,0.0,0.0,0.0,0.0,0.0,0.0,0.0,0.0,0.0,0.0,0.0,0.0,0.0,0.0,0.0,0.0,0.0,0.0,0.0,0.0,0.0,0.0,0.0,0.0,0.0,0.0,0.0,0.0,0.0,0.0,0.0,0.0,0.0,0.0,0.0,0.0,0.0,0.0,0.0,0.0,0.0,0.0,0.0,0.0,0.0,0.0,0.0,0.0,0.0,0.0,0.0,0.0,0.0,0.0,0.0,0.0,0.0,0.0,0.0,0.0,0.0,0.0,0.0,0.0,0.0,0.0,0.0,0.0,0.0,0.0,0.0,0.0,0.0,0.0,0.0,0.0,0.0,0.0,0.0,0.0,0.0,0.0,0.0,0.0,0.0,0.0,0.0,0.0,0.0,0.0,0.0,0.0,0.0,0.0,0.0,0.0,0.0,0.0,0.0,0.0,0.0,0.0,0.0,0.0,0.0,0.0,0.0,0.0,0.0,0.0,0.0,0.0,0.0,0.0,0.0,0.0,0.0,0.0,0.0,0.0,0.0,0.0,0.0,0.0,0.0,0.0,0.0,0.0,0.0,0.0,0.0,0.0,0.0,0.0,0.0,0.0,0.0,0.0,0.0,0.0,0.0,0.0,0.0,0.0,0.0,0.0,0.0,0.0,0.0,0.0,0.0,0.0,0.0,0.0,0.0,0.0,0.0,0.0,0.0,0.0,0.0,0.0,0.0,0.0,0.0,0.0,0.0,0.0,0.0,0.0,0.0,0.0,0.0,0.0,0.0,0.0,0.0,0.0,0.0,0.0,0.0,0.0,0.0,0.0,0.0,0.0,0.0,0.0,0.0,0.0,0.0,0.0,0.0,0.0,0.0,0.0,0.0,0.0,0.0,0.0,0.0,0.0,0.0,0.0,0.0,0.0,0.0,0.0,0.0,0.0,0.0,0.0,0.0,0.0,0.0,0.0,0.0,0.0,0.0,0.0,0.0,0.0,0.0,0.0,0.0,0.0,0.0,0.0,0.0,0.0,0.0,0.0,0.0,0.0,0.0,0.0,0.0,0.0,0.0,0.0,0.0,0.0,0.0,0.0,0.0,0.0,0.0,0.0,0.0,0.0,0.0,0.0,0.0,0.0,0.0,0.0,0.0,0.0,0.0,0.0,0.0,0.0,0.0,0.0,0.0,0.0,0.0,0.0,0.0,0.0,0.0,0.0,0.0,0.0,0.0,0.0,0.0,0.0,0.0,0.0,0.0,0.0,0.0,0.0,0.0,0.0,0.0,0.0,0.0,0.0,0.0,0.0,0.0,0.0,0.0,0.0,0.0,0.0,0.0,0.0,0.0,0.0,0.0,0.0,0.0,0.0,0.0,0.0,0.0,0.0,0.0,0.0,0.0,0.0,0.0,0.0,0.0,0.0,0.0,0.0,0.0,0.0,0.0,0.0,0.0,0.0,0.0,0.0,0.0,0.0,0.0,0.0,0.0,0.0,0.0,0.0,0.0,0.0,0.0,0.0,0.0,0.0,0.0,0.0,0.0,0.0,0.0,0.0,0.0,0.0,0.0,0.0,0.0,0.0,0.0,0.0,0.0,0.0,0.0,0.0,0.0,0.0,0.0,0.0,0.0,0.0,0.0,0.0,0.0,0.0,0.0,0.0,0.0,0.0,0.0,0.0,0.0,0.0,0.0,0.0,0.0,0.0,0.0,0.0,0.0,0.0,0.0,0.0,0.0,0.0,0.0,0.0,0.0,0.0,0.0,0.0,0.0,0.0,0.0,0.0,0.0,0.0,0.0,0.0,0.0,0.0,0.0,0.0,0.0,0.0,0.0,0.0,0.0,0.0,0.0,0.0,-2.6332,-2.6736,0.0,0.0,0.0,0.0,0.0,0.0,0.0,0.0,0.0,0.0,0.0,0.0,0.0,0.0,0.0,0.0,0.0,0.0,0.0,0.0,0.0,0.0,0.0,0.0,0.0,0.0,0.0,0.0,0.0,0.0,0.0,0.0,0.0,0.0,0.0,0.0,0.0,0.0,-2.9659,-2.9659,-2.9816,-3.094,-3.179,-3.2348,0.0,0.0,0.0,0.0,0.0,0.0,0.0,0.0,0.0,0.0,0.0,0.0,0.0,0.0,0.0,0.0,0.0,0.0,0.0,0.0,0.0,0.0,0.0,0.0,0.0,0.0,0.0,0.0,0.0,0.0,0.0,0.0,0.0,0.0,0.0,0.0,0.0,0.0,0.0,0.0,0.0,0.0,0.0,0.0,0.0,0.0,0.0,0.0,0.0,0.0,0.0,0.0,0.0,0.0,0.0,0.0,0.0,0.0,0.0,0.0,0.0,0.0,0.0,0.0,0.0,0.0,0.0,0.0,0.0,0.0,-2.5703,-2.5974,0.0,0.0,0.0,0.0,0.0,0.0,0.0,0.0,0.0,0.0,0.0,0.0,0.0,0.0,0.0,0.0,0.0,0.0,0.0,0.0,0.0,0.0,0.0,0.0,-2.9079,-2.9079,-2.9079,-2.9079,0.0,0.0,0.0,0.0,0.0,0.0,0.0,0.0,0.0,-2.9501,-2.9237,-2.9237,-2.9501,-2.9501,-3.0557,-3.2448,-3.1688,0.0,0.0,0.0,0.0,0.0,0.0,0.0,0.0,0.0,0.0,0.0,0.0,0.0,0.0,0.0,0.0,0.0,0.0,0.0,0.0,0.0,0.0,0.0,0.0,0.0,0.0,0.0,0.0,0.0,0.0,0.0,0.0,0.0,0.0,0.0,0.0,0.0,0.0,0.0,0.0,0.0,0.0,0.0,0.0,0.0,0.0,0.0,0.0,0.0,0.0,0.0,0.0,0.0,0.0,0.0,0.0,0.0,0.0,0.0,0.0,0.0,0.0,0.0,-2.3341,-2.3376,-2.348,-2.348,-2.3397,-2.3346,-2.4914,-2.4968,-2.4048,-2.4982,0.0,0.0,0.0,0.0,0.0,0.0,0.0,0.0,0.0,0.0,0.0,0.0,0.0,0.0,0.0,0.0,0.0,0.0,0.0,0.0,0.0,-2.9079,-2.9079,-2.9079,-2.9079,-2.9079,0.0,0.0,0.0,0.0,0.0,0.0,0.0,-2.9079,-2.9132,-2.9185,-2.9132,-2.9132,-2.9185,-2.9185,-2.9343,-2.9638,-3.0026,-3.0183,0.0,0.0,0.0,0.0,0.0,0.0,0.0,0.0,0.0,0.0,0.0,0.0,0.0,0.0,0.0,0.0,0.0,0.0,0.0,0.0,0.0,0.0,0.0,0.0,0.0,0.0,0.0,0.0,0.0,0.0,0.0,0.0,0.0,0.0,0.0,0.0,0.0,0.0,0.0,0.0,0.0,0.0,-2.6807,-2.6468,0.0,0.0,0.0,0.0,0.0,0.0,0.0,0.0,0.0,0.0,0.0,0.0,0.0,-2.3285,-2.3285,-2.3085,-2.3211,-2.3628,-2.3493,-2.365,-2.4104,-2.4104,-2.3757,-2.3161,-2.3372,0.0,-2.3384,-2.2835,0.0,0.0,0.0,0.0,0.0,0.0,0.0,0.0,0.0,0.0,0.0,0.0,0.0,0.0,0.0,0.0,0.0,0.0,0.0,0.0,0.0,-2.8048,-2.7887,-2.8601,-2.8048,-2.7941,-2.8601,-2.8654,0.0,0.0,0.0,-2.8654,-2.8654,-2.8654,-2.8654,-2.8654,-2.8834,-2.8887,-2.8887,-2.8887,-2.8993,-2.9132,-2.9396,-2.9501,-2.9501,-2.9501,0.0,0.0,0.0,0.0,0.0,0.0,0.0,0.0,0.0,0.0,0.0,0.0,0.0,0.0,0.0,0.0,0.0,0.0,0.0,0.0,0.0,0.0,0.0,0.0,0.0,0.0,0.0,0.0,0.0,0.0,0.0,0.0,0.0,0.0,0.0,0.0,0.0,0.0,0.0,-2.5625,-2.5575,-2.506,-2.5617,-2.5918,0.0,0.0,0.0,0.0,0.0,0.0,0.0,0.0,0.0,-2.182,-2.1682,-2.157,-2.157,-2.1412,-2.1491,-2.174,-2.165,-2.1713,-2.1963,-2.1963,-2.1764,-2.1457,-2.1457,-2.15,-2.1622,-2.2355,-2.2585,-2.2554,0.0,0.0,0.0,0.0,-2.2131,-2.1438,0.0,0.0,0.0,0.0,0.0,0.0,0.0,0.0,0.0,0.0,0.0,0.0,-2.7403,-2.6572,-2.6409,-2.7276,-2.6572,-2.6409,-2.733,-2.7672,0.0,0.0,0.0,-2.8301,-2.8301,-2.8301,-2.8301,-2.8301,-2.8514,-2.8621,-2.8621,-2.8621,-2.8727,-2.892,-2.892,-2.8973,-2.9079,-2.9079,-2.9237,0.0,0.0,0.0,0.0,0.0,0.0,0.0,0.0,0.0,0.0,0.0,0.0,0.0,0.0,0.0,0.0,0.0,0.0,0.0,0.0,0.0,0.0,0.0,0.0,0.0,0.0,0.0,0.0,0.0,0.0,0.0,0.0,0.0,0.0,0.0,0.0,0.0,0.0,-2.4199,-2.4125,-2.356,-2.4289,-2.4738,0.0,0.0,0.0,0.0,0.0,0.0,-2.1086,-2.0852,-2.0691,-2.0548,-2.03,-2.0183,-2.0183,-2.0183,-2.0227,-2.03,-2.03,-2.0343,-2.0486,-2.0486,-2.0486,-2.0486,-2.0486,-2.0486,-2.0527,-2.1843,-2.1996,-2.1491,-2.2405,-2.2291,-2.1612,-2.1612,-2.0992,-2.0136,0.0,0.0,0.0,0.0,0.0,0.0,0.0,0.0,0.0,0.0,0.0,-2.4893,-2.4893,-2.4837,-2.4837,-2.4893,-2.4837,-2.4837,-2.4893,-2.5954,-2.6572,-2.6572,-2.7691,-2.8301,-2.8301,-2.8301,-2.8301,-2.8301,-2.8281,-2.8301,-2.8301,-2.8301,-2.8354,-2.8335,-2.8335,-2.8601,-2.9079,-2.9079,-2.9132,-2.9132,0.0,0.0,0.0,0.0,0.0,0.0,0.0,0.0,0.0,0.0,0.0,0.0,0.0,0.0,0.0,0.0,0.0,0.0,0.0,0.0,0.0,0.0,0.0,0.0,0.0,0.0,0.0,0.0,0.0,0.0,0.0,0.0,0.0,0.0,0.0,0.0,0.0,0.0,0.0,-2.1877,-2.1891,0.0,0.0,0.0,0.0,-2.1261,-2.1203,-2.1072,-2.0764,-2.0735,-2.0518,-2.0212,-2.0183,-2.0183,-2.0183,-2.0183,-2.0329,-2.0691,-2.0691,-2.0867,-2.1159,-2.1159,-2.1159,-2.1159,-2.1159,-2.1159,-2.1115,-2.0542,-2.0332,-2.0263,-2.0372,-2.0357,-2.0288,-2.0288,-2.0233,-2.0179,0.0,0.0,0.0,0.0,0.0,0.0,0.0,0.0,-2.4727,-2.4727,-2.4727,-2.4727,-2.4727,-2.4078,-2.3911,-2.4616,-2.4022,-2.3911,-2.4671,-2.5113,-2.5333,-2.5333,-2.5735,-2.6336,-2.7133,-2.7906,-2.8301,-2.8301,-2.8301,-2.8301,-2.8301,-2.8301,-2.8301,-2.8301,-2.8301,-2.8388,-2.8601,-2.8601,-2.8654,-2.8834,-2.8834,-2.902,0.0,0.0,0.0,0.0,0.0,0.0,0.0,0.0,0.0,0.0,0.0,0.0,0.0,0.0,0.0,0.0,0.0,0.0,0.0,0.0,0.0,0.0,0.0,0.0,0.0,0.0,0.0,0.0,0.0,0.0,0.0,0.0,0.0,0.0,0.0,0.0,0.0,-2.1393,-2.1379,0.0,-2.1218,-2.1203,-2.1203,-2.1203,-2.1203,-2.1159,-2.1042,-2.1042,-2.0984,-2.0867,-2.0867,-2.0867,-2.0867,-2.0867,-2.0925,-2.1042,-2.1042,-2.1101,-2.1203,-2.1203,-2.1203,-2.1203,-2.1203,-2.1203,-2.1189,-2.0955,-2.0735,-2.0489,-2.0489,-2.0373,-2.0183,-2.0183,-2.0183,-2.0183,0.0,0.0,0.0,0.0,0.0,0.0,0.0,0.0,-2.3463,-2.3223,-2.3279,-2.3335,-2.3223,-2.2507,-2.241,-2.3167,-2.2507,-2.241,-2.3167,-2.3615,-2.3838,-2.395,-2.445,-2.5058,-2.5899,-2.6681,-2.7114,-2.7114,-2.7511,-2.7691,-2.7691,-2.8121,-2.8301,-2.8301,-2.8301,-2.8301,-2.8301,-2.8301,-2.8408,-2.8568,-2.8568,-2.8674,-2.8814,0.0,0.0,0.0,0.0,0.0,0.0,0.0,0.0,0.0,0.0,0.0,0.0,0.0,0.0,0.0,0.0,0.0,0.0,0.0,0.0,0.0,0.0,0.0,0.0,0.0,0.0,0.0,0.0,0.0,0.0,0.0,0.0,0.0,0.0,-2.1203,-2.1203,-2.1203,-2.1203,-2.1203,-2.1203,-2.1203,-2.1203,-2.1203,-2.1203,-2.1203,-2.1203,-2.1203,-2.1203,-2.1203,-2.1203,-2.1203,-2.1203,-2.1203,-2.1203,-2.1203,-2.1203,-2.1203,-2.1203,-2.1203,-2.1203,-2.1203,-2.1203,-2.1203,-2.1203,-2.1203,-2.1086,-2.0881,-2.0881,-2.075,-2.0559,-2.0559,-2.0559,-2.0559,0.0,0.0,0.0,0.0,0.0,0.0,0.0,-2.096,-2.0974,-2.0385,-2.0544,-2.0601,-2.0328,-2.027,-2.027,-2.027,-2.027,-2.027,-2.027,-2.1402,-2.2127,-2.241,-2.3838,-2.4616,-2.4616,-2.4671,-2.4671,-2.4671,-2.5899,-2.6518,-2.6536,-2.7745,-2.8301,-2.8301,-2.8301,-2.8301,-2.8301,-2.8301,-2.8301,-2.8301,-2.8301,-2.8301,-2.8354,0.0,0.0,0.0,0.0,0.0,0.0,0.0,0.0,0.0,0.0,0.0,0.0,0.0,0.0,0.0,0.0,0.0,0.0,0.0,0.0,0.0,0.0,0.0,0.0,0.0,0.0,0.0,0.0,0.0,0.0,0.0,0.0,0.0,-2.1203,-2.1203,-2.1203,-2.1203,-2.1203,-2.1203,-2.1203,-2.1203,-2.1203,-2.1203,-2.1203,-2.1146,-2.1146,-2.1146,-2.1089,-2.1031,-2.1031,-2.1031,-2.1031,-2.1031,-2.1089,-2.1089,-2.1089,-2.1089,-2.1089,-2.1089,-2.1031,-2.1089,-2.1089,-2.1089,-2.1089,-2.1089,-2.1089,-2.1089,-2.1146,-2.1203,-2.1203,-2.1203,-2.1203,-2.1203,0.0,0.0,0.0,0.0,0.0,0.0,0.0,-2.0902,-2.0788,-2.0601,-2.05,-2.0385,-2.0328,-2.027,-2.027,-2.027,-2.027,-2.027,-2.027,-2.0615,-2.0831,-2.0888,-2.2127,-2.2789,-2.2717,-2.3838,-2.4394,-2.4394,-2.579,-2.6518,-2.6536,-2.7745,-2.8301,-2.8301,-2.8301,-2.8301,-2.8301,-2.8301,-2.8301,-2.8301,-2.8301,-2.8301,-2.8301,0.0,0.0,0.0,0.0,0.0,0.0,0.0,0.0,0.0,0.0,0.0,0.0,0.0,0.0,0.0,0.0,0.0,0.0,0.0,0.0,0.0,0.0,0.0,0.0,0.0,0.0,0.0,0.0,0.0,0.0,0.0,-2.1203,-2.1203,-2.1203,-2.1203,-2.1203,-2.1203,-2.1203,-2.1089,-2.0845,-2.0845,-2.0845,-2.0845,-2.0845,-2.0429,-1.9492,-1.9492,-1.8958,-1.784,-1.7781,-1.7781,-1.7781,-1.7781,-1.826,-1.9158,-1.826,-1.826,-1.9145,-1.8189,-1.8015,-1.8448,-1.8448,-1.8739,-1.9145,-1.9145,-1.9145,-1.9332,-2.0673,-2.1203,-2.1203,-2.1203,-2.1203,-2.1203,0.0,0.0,0.0,0.0,0.0,0.0,0.0,-2.096,-2.0788,-2.0385,-2.0328,-2.0213,-1.9938,-1.9938,-1.9938,-1.9938,-1.9938,-1.9938,-1.9938,-2.004,-2.0097,-2.0097,-2.0888,-2.1345,-2.1288,-2.2168,-2.262,-2.262,-2.4022,-2.4633,-2.4689,-2.5845,-2.6499,-2.6626,-2.6626,-2.6681,-2.6789,-2.6789,-2.6789,-2.6789,-2.6789,-2.7403,-2.8301,-2.8301,-2.8301,-2.8267,-2.8013,-2.8041,-2.8176,-2.7903,0.0,0.0,0.0,0.0,0.0,0.0,0.0,0.0,0.0,0.0,0.0,0.0,0.0,0.0,0.0,0.0,0.0,0.0,0.0,0.0,0.0,0.0,0.0,0.0,-2.0385,-2.004,-2.004,-2.0687,-2.1146,-2.1031,-2.05,-2.0256,-2.0486,-1.9537,-1.919,-1.9723,-1.9248,-1.8597,-1.7898,-1.7827,-1.7418,-1.6539,-1.648,-1.648,-1.648,-1.648,-1.6891,-1.7606,-1.6833,-1.6903,-1.756,-1.6833,-1.6656,-1.702,-1.702,-1.7255,-1.7606,-1.7606,-1.7606,-1.7793,0.0,0.0,0.0,0.0,-2.004,-2.004,0.0,0.0,0.0,0.0,0.0,0.0,0.0,-2.096,-2.0859,-1.9982,-2.0097,-2.004,-1.9475,-1.943,-1.943,-1.943,-1.943,-1.943,-1.943,-1.9649,-1.9751,-1.9751,-2.004,-2.0213,-2.0213,-2.0213,-2.0213,-2.0213,-2.1517,-2.207,-2.2127,-2.3279,-2.3933,-2.4228,-2.4228,-2.4394,-2.4671,-2.4671,-2.4671,-2.4727,-2.4727,-2.6009,-2.7906,-2.7906,-2.7906,-2.7726,-2.6681,-2.6591,-2.6716,-2.5652,0.0,0.0,0.0,0.0,0.0,0.0,0.0,0.0,0.0,0.0,0.0,0.0,0.0,0.0,0.0,0.0,0.0,0.0,0.0,0.0,0.0,0.0,0.0,0.0,-1.8997,-1.8194,-1.8194,-1.9631,-2.0571,-2.0256,-1.9248,-1.89,-1.9737,-1.7781,-1.6903,-1.8027,-1.7079,-1.6362,-1.6245,-1.6267,0.0,0.0,0.0,-1.6039,-1.6039,-1.6039,-1.6098,-1.6264,-1.6098,-1.6098,-1.6264,-1.6098,-1.6098,-1.6157,-1.6157,-1.6157,-1.6216,-1.6216,-1.6216,-1.6383,-1.776,-1.8331,-1.8389,-1.8331,-1.8273,-1.8273,0.0,0.0,0.0,0.0,0.0,0.0,0.0,-2.0902,-2.0716,-2.0544,-2.0155,-1.9866,-1.9764,-1.9533,-1.943,-1.943,-1.943,-1.943,-1.943,-1.943,-1.9475,-1.9475,-1.9533,-1.9591,-1.9591,-1.9764,-1.9924,-1.9924,-2.1402,-2.207,-2.2127,-2.3279,-2.3822,-2.3877,-2.3877,-2.4061,-2.4394,-2.4394,-2.4505,-2.4727,-2.4727,-2.5003,-2.5388,-2.5388,-2.5388,-2.5388,-2.5113,-2.511,-2.518,-2.4885,-2.4881,-2.4949,-2.4949,0.0,0.0,0.0,0.0,0.0,0.0,0.0,0.0,0.0,0.0,0.0,0.0,0.0,0.0,0.0,0.0,0.0,0.0,0.0,0.0,-1.8797,-1.7801,-1.7028,-1.7028,-1.7504,-1.7721,-1.7349,-1.7067,-1.6903,-1.6844,-1.6374,-1.6197,-1.6433,-1.6256,-1.5666,-1.4589,-1.4711,-1.4205,-1.2882,-1.304,-1.3127,-1.3127,-1.3127,-1.3607,-1.4651,-1.3607,0.0,-1.4589,-1.3554,-1.343,-1.3918,-1.3918,-1.4228,-1.4671,-1.4671,-1.4671,-1.4817,-1.6841,-1.791,-1.8331,-1.7793,-1.756,-1.7501,0.0,0.0,0.0,0.0,0.0,0.0,0.0,-2.1089,-2.0902,-2.0716,-2.0443,-2.0155,-1.9809,-1.9707,-1.9533,-1.9417,-1.943,-1.943,-1.943,-1.943,-1.943,-1.943,-1.943,-1.943,-1.943,-1.9533,-1.9591,-1.9591,-2.0385,-2.073,-2.0773,-2.1331,-2.1658,-2.1828,-2.1828,-2.1998,-2.2281,-2.2281,-2.2451,-2.2717,-2.2717,-2.2789,-2.3071,-2.4228,-2.4727,-2.4616,-2.4061,-2.3855,-2.3743,-2.3127,-2.2974,-2.2974,-2.2974,-2.2539,-2.2101,0.0,0.0,0.0,0.0,0.0,0.0,0.0,0.0,0.0,0.0,0.0,0.0,0.0,0.0,-2.0199,-1.9261,0.0,-1.8062,-1.7221,-1.6167,-1.5463,-1.5463,-1.501,-1.5124,-1.6409,-1.6013,-1.5711,-1.6035,-1.4882,-1.4395,-1.5064,-1.4516,-1.3854,-1.3242,-1.3278,-1.2968,-1.2166,-1.2255,-1.2304,-1.2304,-1.2304,-1.262,-1.3232,-1.2611,-1.2611,-1.3232,-1.262,-1.2493,-1.28,-1.28,-1.2989,-1.3241,-1.3241,-1.3429,-1.3841,-1.4911,-1.5732,-1.6277,-1.5914,-1.5793,-1.5732,0.0,0.0,0.0,0.0,0.0,0.0,0.0,-2.1203,-2.1089,-2.0845,-2.0716,-2.0486,-2.004,-1.9924,-1.9764,-1.9475,-1.9417,-1.943,-1.943,-1.943,-1.943,-1.943,-1.943,-1.943,-1.943,-1.943,-1.943,-1.943,-1.943,-1.943,-1.943,-1.943,-1.9533,-1.9707,-1.9707,-1.9924,-2.0213,-2.0213,-2.0385,-2.0601,-2.0601,-2.0788,-2.1261,-2.3183,-2.395,-2.3894,-2.2974,-2.2652,-2.2482,-2.1546,-2.1203,-2.1203,-2.1203,-2.1203,-2.1203,-2.1203,-2.1203,0.0,0.0,0.0,0.0,0.0,0.0,0.0,0.0,0.0,-1.9795,-1.9448,-1.943,-1.9108,-1.7738,-1.7434,-1.7009,-1.5674,-1.4576,-1.3905,-1.3905,-1.3012,-1.3282,-1.5586,-1.488,-1.4529,-1.5286,-1.3483,-1.2737,-1.3725,-1.2863,-1.2304,-1.2304,-1.2337,-1.2353,-1.2353,-1.2393,-1.241,-1.241,-1.241,-1.241,-1.241,-1.241,-1.241,-1.241,-1.241,-1.241,-1.241,-1.241,-1.241,-1.241,-1.241,-1.272,-1.3219,-1.3219,-1.3473,-1.3915,-1.4022,-1.4057,-1.3994,0.0,0.0,0.0,0.0,0.0,0.0,0.0,0.0,-2.1203,-2.1146,-2.0902,-2.0658,-2.0601,-2.0385,-2.0097,-1.9751,-1.9533,-1.943,-1.943,-1.943,-1.943,-1.943,-1.943,-1.943,-1.943,-1.943,-1.943,-1.943,-1.943,-1.943,-1.943,-1.943,-1.943,-1.943,-1.943,-1.9591,-1.9866,-1.9866,-2.004,-2.0328,-2.0328,-2.0385,-2.0443,-2.0945,-2.1345,-2.1603,-2.1432,-2.1375,-2.1375,-2.1261,-2.1203,-2.1203,-2.1203,-2.1203,-2.1203,-2.1203,0.0,-2.1203,-2.1203,-2.096,-2.073,-2.0443,-2.0385,-1.9968,0.0,0.0,-1.8156,-1.6455,-1.6436,-1.6571,-1.6101,-1.5268,-1.4615,-1.4428,-1.3481,-1.2789,-1.2789,-1.2735,-1.2841,-1.316,-1.2811,-1.2611,-1.2683,-1.2493,-1.2367,-1.2493,-1.2367,-1.2304,-1.2304,-1.245,-1.2604,-1.2604,-1.2694,-1.271,-1.271,-1.271,-1.271,-1.271,-1.271,-1.271,-1.271,-1.271,-1.271,-1.271,-1.271,-1.271,-1.271,-1.271,-1.2775,-1.2841,-1.2841,-1.2906,-1.2996,-1.33,-1.3421,-1.3295,0.0,0.0,0.0,0.0,0.0,0.0,0.0,0.0,0.0,-2.1203,-2.1089,-2.0902,-2.0716,-2.0443,-2.0155,-1.9809,-1.988,-1.9822,-1.9649,-1.9649,-1.9649,-1.9649,-1.9475,-1.943,-1.943,-1.943,-1.943,-1.943,-1.943,-1.943,-1.943,-1.943,-1.943,-1.943,-1.9533,-1.9707,-1.9809,-1.9982,-2.027,-2.0544,-2.0544,-2.0673,-2.0859,-2.096,-2.096,-2.0902,-2.1146,-2.1203,0.0,0.0,-2.1203,-2.1203,-2.1203,-2.1203,-2.1146,-2.096,-2.0902,0.0,-2.073,-2.0558,-2.027,0.0,-1.9029,-1.8551,-1.7138,-1.6843,-1.666,-1.5883,-1.5946,-1.5924,-1.5012,-1.4567,-1.4151,-1.3398,-1.2984,-1.2726,-1.2726,-1.2791,-1.2774,-1.2774,-1.2702,-1.2613,-1.2613,-1.2613,-1.2613,-1.2613,-1.2613,-1.2613,-1.2613,-1.2686,-1.2726,-1.2726,-1.28,-1.2774,-1.2774,-1.2774,-1.2774,-1.2774,-1.2774,-1.2774,-1.2774,-1.2774,-1.2774,-1.2774,-1.2774,-1.2774,-1.2774,-1.2774,-1.2774,-1.2774,-1.2774,-1.2774,-1.2816,-1.2986,-1.2992,-1.2992,0.0,0.0,0.0,0.0,0.0,0.0,0.0,0.0,0.0,0.0,-2.1203,-2.1089,-2.0845,-2.0558,-2.0328,-2.0097,-2.0213,-2.0213,-1.9924,-1.9924,-1.9924,-1.9924,-1.9649,-1.9533,-1.9533,-1.943,-1.943,-1.943,-1.9475,-1.9533,-1.9533,-1.9533,-1.9533,-1.9533,-1.9707,-1.9809,-1.9809,-2.0155,-2.0385,-2.0601,-2.0601,-2.073,-2.0974,-2.0974,-2.0788,-2.0601,-2.096,-2.1031,0.0,0.0,-2.0974,-2.0974,-2.0974,-2.0974,-2.0917,-2.0673,-2.0601,-2.0544,-2.0213,0.0,0.0,-1.8389,-1.7726,-1.7008,-1.5704,-1.5416,-1.5278,-1.4911,-1.4968,-1.4876,-1.3933,-1.3916,-1.3729,-1.2832,-1.2751,-1.2774,-1.2774,-1.2774,-1.2774,-1.2774,-1.2774,-1.2774,-1.2774,-1.2774,-1.2774,-1.2774,-1.2774,-1.2774,-1.2774,-1.2774,-1.2774,-1.2774,-1.2774,-1.2774,-1.2774,-1.2774,-1.2774,-1.2774,-1.2774,-1.2774,-1.2774,-1.2774,-1.2774,-1.2774,-1.2774,-1.2774,-1.2774,-1.2774,-1.2774,-1.2774,-1.2774,-1.2774,-1.2774,-1.2774,-1.2774,-1.2774,0.0,0.0,0.0,0.0,0.0,0.0,0.0,0.0,0.0,0.0,0.0,0.0,0.0,-2.0902,-2.0658,-2.0658,-2.0443,-2.027,-2.027,-2.027,-2.027,-2.027,-1.9982,-1.9822,-1.9822,-1.9533,-1.943,-1.943,-1.9649,-1.9822,-1.9822,-1.9822,-1.9822,-1.9822,-1.9809,-1.9809,-1.9809,-2.0155,-2.027,-2.0328,-2.0328,-2.0328,-2.0328,-2.0328,-2.0328,-2.0328,-2.0601,0.0,0.0,0.0,-2.0328,-2.0328,-2.0328,-2.0328,0.0,-2.0328,-2.0328,0.0,0.0,0.0,-1.7898,-1.763,-1.6686,-1.5529,-1.4273,-1.4128,-1.3904,-1.2674,-1.2562,-1.2685,-1.2685,-1.2767,-1.2832,-1.2832,-1.2832,-1.2774,-1.2774,-1.2774,-1.2774,-1.2774,-1.2774,-1.2774,-1.2774,-1.2774,-1.2774,-1.2774,-1.2774,-1.2774,-1.2774,-1.2774,-1.2774,-1.2774,-1.2774,-1.2774,-1.2774,-1.2774,-1.2774,-1.2774,-1.2774,-1.2774,-1.2774,-1.2774,-1.2774,-1.2774,-1.2774,-1.2774,-1.2774,-1.2774,-1.2774,-1.2774,-1.2774,-1.2774,-1.2774,-1.2774,-1.2774,-1.2774,0.0,0.0,0.0,0.0,0.0,0.0,0.0,0.0,0.0,0.0,0.0,0.0,0.0,0.0,0.0,0.0,-2.0845,-2.0788,-2.0601,-2.0558,-2.0558,-2.0558,-2.027,-2.0155,-2.0155,-1.9822,-1.9764,-1.9996,-1.9866,-1.9924,-2.0155,-2.0155,-2.0155,-2.0155,-2.0328,-2.0371,-2.0443,-2.0744,-2.0917,-2.0917,-2.0917,-2.0917,-2.0859,-2.0673,-2.0443,-2.027,0.0,0.0,0.0,0.0,0.0,0.0,-2.027,0.0,0.0,-2.004,0.0,0.0,0.0,0.0,-1.6298,-1.5502,-1.5043,-1.4423,-1.3136,-1.2978,-1.3042,-1.2603,-1.2621,-1.2743,-1.2743,-1.2791,-1.2774,-1.2774,-1.2774,-1.2774,-1.2774,-1.2774,-1.2774,-1.2774,-1.2774,-1.2774,-1.2774,-1.2774,-1.2774,-1.2774,-1.2774,-1.2774,-1.2774,-1.2774,-1.2774,-1.2774,-1.2774,-1.2774,-1.2774,-1.2774,-1.2774,-1.2774,-1.2774,-1.2774,-1.2774,-1.2774,-1.2774,-1.2774,-1.2774,-1.2774,-1.2774,-1.2774,-1.2774,-1.2774,-1.2774,-1.2774,-1.2774,-1.2774,-1.2774,-1.2774,0.0,0.0,0.0,0.0,0.0,0.0,0.0,0.0,0.0,0.0,0.0,0.0,0.0,0.0,0.0,0.0,0.0,-2.1089,-2.0902,-2.0902,-2.0902,-2.0902,-2.0615,-2.0443,-2.0443,-2.0155,-2.0097,-2.027,-2.0155,-2.0213,-2.0443,-2.0443,-2.0443,-2.0443,-2.0601,-2.0716,-2.0716,-2.1089,-2.1276,-2.1379,-2.1262,-2.1276,-2.1307,-2.0888,-2.0601,0.0,0.0,0.0,0.0,0.0,0.0,0.0,0.0,0.0,0.0,0.0,0.0,0.0,0.0,-1.615,-1.5033,-1.4375,-1.3896,-1.3392,-1.2584,-1.2532,-1.2661,-1.2661,-1.2751,-1.2774,-1.2774,-1.2774,-1.2774,-1.2774,-1.2774,-1.2774,-1.2774,-1.2774,-1.2774,-1.2774,-1.2774,-1.2774,0.0,-1.2889,-1.2905,-1.284,-1.2774,-1.2774,-1.2774,-1.2774,-1.2774,-1.2774,-1.2774,-1.2774,-1.2774,-1.2774,-1.2774,-1.2774,-1.2774,-1.2774,-1.2774,-1.2774,-1.2774,-1.2774,-1.2774,-1.2774,-1.2774,-1.2774,-1.2774,-1.2774,-1.2774,-1.2774,-1.2774,-1.2774,-1.2774,-1.2774,0.0,0.0,0.0,0.0,0.0,0.0,0.0,0.0,0.0,0.0,0.0,0.0,0.0,0.0,0.0,0.0,0.0,0.0,-2.1203,-2.1203,-2.1203,-2.1203,-2.0902,-2.0716,-2.0716,-2.0443,-2.0328,-2.0328,-2.0601,-2.0716,-2.0716,-2.0716,-2.0716,-2.0716,-2.073,-2.0744,-2.0744,-2.1132,-2.1437,-2.1686,-2.1379,-2.1452,-2.1628,-2.1003,0.0,0.0,0.0,0.0,0.0,0.0,0.0,0.0,0.0,0.0,0.0,0.0,0.0,-1.5743,-1.5753,-1.494,-1.411,-1.4129,-1.3335,-1.258,-1.258,-1.271,-1.2774,-1.2774,-1.2774,-1.2774,0.0,0.0,-1.2774,-1.2782,-1.2848,-1.279,-1.2865,-1.2798,-1.2798,0.0,0.0,0.0,0.0,0.0,-1.3043,-1.2881,-1.2798,-1.2798,-1.2798,-1.2798,-1.2798,-1.2798,-1.2798,-1.2798,-1.2798,-1.2798,-1.2798,-1.2798,-1.2798,-1.2798,-1.2798,-1.2798,-1.2798,-1.2798,-1.2798,-1.2798,-1.2798,-1.2798,-1.2798,-1.2798,-1.2798,-1.2798,-1.2798,-1.2798,-1.2798,-1.2798,0.0,0.0,0.0,0.0,0.0,0.0,0.0,0.0,0.0,0.0,0.0,0.0,0.0,0.0,0.0,0.0,0.0,0.0,-2.1203,-2.1203,-2.1203,-2.1203,-2.1146,-2.1089,-2.1089,-2.0788,-2.073,-2.0974,-2.0788,-2.0845,-2.1089,-2.1089,-2.1089,-2.1089,-2.1336,-2.1453,-2.1467,-2.1832,-2.1979,-2.2052,0.0,-2.1979,-2.2052,0.0,0.0,0.0,0.0,0.0,0.0,0.0,0.0,0.0,0.0,-1.7836,-1.7446,0.0,0.0,-1.4667,-1.477,-1.3916,-1.3037,-1.3116,-1.2922,-1.2767,-1.2767,-1.28,-1.2774,-1.2774,-1.2774,-1.2774,0.0,0.0,0.0,-1.3011,-1.3027,0.0,-1.3214,-1.3238,0.0,-1.3238,0.0,-1.3238,-1.3238,-1.3279,-1.3279,-1.3238,-1.3238,-1.3238,-1.3238,-1.3238,-1.3238,-1.3238,-1.3238,-1.3238,-1.3238,-1.3238,-1.3238,-1.3238,-1.3238,-1.3238,-1.3238,-1.3238,-1.3238,-1.3238,-1.3238,-1.3238,-1.3238,-1.3238,-1.3238,-1.3238,-1.3238,-1.3238,-1.3238,-1.3238,-1.3238,-1.3238,0.0,0.0,0.0,0.0,0.0,0.0,0.0,0.0,0.0,0.0,0.0,0.0,0.0,0.0,0.0,0.0,0.0,0.0,0.0,-2.1203,-2.1203,-2.1203,-2.1203,-2.1203,-2.1203,-2.1031,-2.1031,-2.1203,-2.1031,-2.1031,-2.1218,-2.135,-2.1423,-2.1437,-2.1759,-2.1906,-2.192,-2.2111,0.0,0.0,0.0,0.0,0.0,0.0,0.0,0.0,0.0,0.0,0.0,0.0,0.0,-1.9185,-1.7923,-1.7221,-1.6639,-1.5368,0.0,-1.3508,-1.3623,-1.3203,-1.271,-1.2808,-1.2774,-1.2774,-1.2774,-1.2774,-1.2774,-1.2774,-1.2774,-1.2774,-1.2774,-1.2774,-1.2889,0.0,0.0,0.0,-1.3344,-1.3368,-1.3368,0.0,-1.3368,0.0,-1.3368,-1.3441,-1.349,-1.349,-1.3417,-1.3368,-1.3368,-1.3368,-1.3368,-1.3368,-1.3368,-1.3368,-1.3368,-1.3368,-1.3368,-1.3368,-1.3368,-1.3368,-1.3368,-1.3368,-1.3368,-1.3368,-1.3368,-1.3368,-1.3368,-1.3368,-1.3368,-1.3368,-1.3368,-1.3368,-1.3368,-1.3368,-1.3368,-1.3368,0.0,0.0,0.0,0.0,0.0,0.0,0.0,0.0,0.0,0.0,0.0,0.0,0.0,0.0,0.0,0.0,0.0,0.0,0.0,0.0,-2.1203,-2.1203,-2.1203,-2.1203,-2.1203,-2.1203,-2.1203,-2.1203,-2.1203,-2.1233,-2.1276,0.0,0.0,0.0,0.0,0.0,0.0,0.0,0.0,0.0,0.0,0.0,0.0,0.0,0.0,0.0,0.0,0.0,0.0,0.0,-1.9457,-1.914,-1.7738,-1.6601,-1.5531,-1.4114,-1.3213,-1.2596,-1.2596,-1.2718,-1.2774,-1.2774,-1.2774,-1.2774,-1.2774,-1.2774,-1.2774,-1.2774,0.0,-1.2774,-1.2774,-1.279,-1.2929,-1.31,0.0,-1.323,-1.3417,-1.3441,-1.3441,-1.3441,-1.3441,-1.3441,-1.3441,-1.3587,-1.3606,-1.3606,-1.353,-1.3441,-1.3441,-1.3441,-1.3441,-1.3441,-1.3441,-1.3441,-1.3441,-1.3441,-1.3441,-1.3441,-1.3441,-1.3441,-1.3441,-1.3441,-1.3441,-1.3441,-1.3441,-1.3441,-1.3441,-1.3441,-1.3441,-1.3441,-1.3441,-1.3441,-1.3441,-1.3441,-1.3441,-1.3441,0.0,0.0,0.0,0.0,0.0,0.0,0.0,0.0,0.0,0.0,-2.4913,-2.3279,0.0,0.0,0.0,0.0,0.0,0.0,0.0,0.0,0.0,-2.1203,-2.1203,-2.1203,-2.1203,-2.1203,-2.1203,-2.1203,-2.1203,-2.135,-2.1613,0.0,0.0,0.0,0.0,0.0,0.0,0.0,0.0,0.0,0.0,0.0,0.0,0.0,0.0,0.0,0.0,0.0,0.0,0.0,-1.9559,-1.8991,-1.6814,-1.6072,-1.5628,-1.3436,-1.2815,-1.2791,-1.2791,-1.2808,-1.2774,-1.2774,-1.2774,-1.2774,-1.2774,-1.2774,0.0,0.0,-1.2774,-1.2774,-1.2774,-1.2954,-1.3108,-1.3295,-1.3449,-1.3612,-1.3782,-1.3807,-1.3807,0.0,-1.3807,-1.3807,-1.3807,-1.3839,-1.3855,-1.3855,-1.3831,-1.3807,-1.3807,-1.3807,-1.3807,-1.3807,-1.3807,-1.3807,-1.3807,-1.3807,-1.3807,-1.3807,-1.3807,-1.3807,-1.3807,-1.3807,-1.3807,-1.3807,-1.3807,-1.3807,-1.3807,-1.3807,-1.3807,-1.3807,-1.3807,-1.3807,-1.3807,-1.3807,-1.3807,-1.3807,0.0,0.0,0.0,0.0,0.0,0.0,0.0,-2.9994,-2.9784,-2.9059,-2.7004,-2.5426,-2.4654,-2.3223,-2.2353,0.0,0.0,0.0,0.0,0.0,0.0,0.0,0.0,0.0,-2.1203,-2.1203,-2.1203,-2.1203,0.0,-2.154,-2.1701,-2.2023,-2.2257,-2.2432,-2.274,0.0,0.0,0.0,0.0,0.0,0.0,0.0,0.0,0.0,0.0,0.0,0.0,0.0,0.0,0.0,-1.9613,-1.9004,-1.656,-1.5953,-1.5639,-1.3276,-1.2694,-1.2774,-1.2774,-1.2774,-1.2774,-1.2774,-1.2774,-1.2774,-1.2774,0.0,0.0,0.0,-1.2774,-1.2774,-1.2774,-1.2978,0.0,-1.3344,-1.3522,-1.3701,-1.388,-1.3904,-1.3904,-1.3904,-1.3904,-1.3904,-1.3904,-1.3904,-1.3904,-1.3904,-1.3904,-1.3904,-1.3904,-1.3904,-1.3904,-1.3904,-1.3904,-1.3904,-1.3904,-1.3904,-1.3904,-1.3904,-1.3904,-1.3904,-1.3904,-1.3904,-1.3904,-1.3904,-1.3904,-1.3904,-1.3904,-1.3904,-1.3904,-1.3904,-1.3904,-1.3904,-1.3904,-1.3904,-1.3904,-1.3904,0.0,0.0,0.0,0.0,0.0,0.0,0.0,-2.9994,-2.9994,-2.9994,-2.8986,-2.7849,-2.668,-2.4931,-2.371,0.0,0.0,0.0,0.0,0.0,0.0,0.0,0.0,0.0,0.0,0.0,0.0,-2.1203,-2.154,0.0,0.0,0.0,0.0,0.0,-2.2988,-2.3106,-2.3106,0.0,0.0,0.0,0.0,0.0,0.0,0.0,0.0,0.0,0.0,0.0,0.0,0.0,-1.9653,-1.9004,-1.6616,-1.5996,-1.5711,-1.3704,-1.2979,-1.2774,-1.2774,-1.2774,-1.2774,-1.2774,-1.2774,-1.2774,-1.2774,-1.2774,0.0,-1.2774,-1.2774,-1.2774,-1.2774,-1.2978,-1.3157,0.0,-1.3522,-1.3701,-1.388,-1.3904,-1.3904,0.0,-1.3904,0.0,-1.3904,-1.3904,-1.3904,-1.3904,-1.3904,-1.3904,-1.3904,-1.3904,-1.3904,-1.3904,-1.3904,-1.3904,-1.3904,-1.3904,-1.3904,-1.3904,-1.3904,-1.3904,-1.3904,-1.3904,-1.3904,-1.3904,-1.3904,-1.3904,-1.3904,-1.3904,-1.3904,-1.3904,-1.3904,-1.3904,-1.3904,-1.3904,-1.3904,-1.3904,0.0,0.0,0.0,0.0,0.0,0.0,0.0,-2.9994,-2.9994,-2.9994,-2.9889,-2.9784,-2.9606,-2.7077,-2.4875,0.0,0.0,0.0,0.0,0.0,0.0,0.0,0.0,0.0,0.0,0.0,0.0,-2.1203,-2.154,0.0,0.0,0.0,0.0,0.0,0.0,-2.3106,-2.3106,-2.3106,0.0,0.0,0.0,0.0,0.0,0.0,0.0,0.0,0.0,0.0,0.0,0.0,0.0,-1.8985,-1.6769,-1.6073,-1.593,-1.4955,0.0,0.0,-1.2774,-1.2774,-1.2774,-1.2774,-1.2774,-1.2774,-1.2774,0.0,-1.2774,-1.2774,-1.2774,-1.2774,-1.2774,-1.2978,-1.3157,0.0,0.0,-1.3701,-1.388,-1.3904,-1.3904,-1.3904,0.0,0.0,-1.3904,-1.3904,-1.3904,-1.3904,-1.3904,-1.3904,-1.3904,-1.3904,-1.3904,-1.3904,-1.3904,-1.3904,-1.3904,-1.3904,-1.3904,-1.3904,-1.3904,-1.3904,-1.3904,-1.3904,-1.3904,-1.3904,-1.3904,-1.3904,-1.3904,-1.3904,-1.3904,-1.3904,-1.3904,-1.3904,-1.3904,-1.3904,-1.3904,-1.3904,0.0,0.0,0.0,0.0,0.0,0.0,-2.9994,-2.9994,-2.9994,-2.9994,-2.9994,-2.9994,-2.9994,-2.8933,-2.7669,-2.6191,0.0,0.0,0.0,0.0,0.0,0.0,0.0,0.0,0.0,0.0,-2.1203,-2.1203,-2.173,0.0,0.0,0.0,0.0,0.0,0.0,-2.3106,-2.3106,0.0,0.0,0.0,0.0,0.0,0.0,0.0,0.0,0.0,0.0,0.0,-2.1046,0.0,0.0,0.0,-1.7649,-1.6703,0.0,0.0,-1.3227,-1.2774,-1.2774,-1.2774,-1.2774,-1.2774,-1.2774,-1.2774,-1.2774,0.0,-1.2774,-1.2774,-1.2774,-1.2774,-1.2774,-1.2978,-1.3157,-1.3344,-1.3522,0.0,-1.388,-1.3904,-1.3904,-1.3904,-1.3904,0.0,0.0,-1.3904,-1.3904,-1.3904,-1.3904,-1.3904,-1.3904,-1.3904,-1.3904,-1.3904,-1.3904,-1.3904,-1.3904,-1.3904,-1.3904,-1.3904,-1.3904,-1.3904,-1.3904,-1.3904,-1.3904,-1.3904,-1.3904,-1.3904,-1.3904,-1.3904,-1.3904,-1.3904,-1.3904,-1.3904,-1.3904,-1.3904,-1.3904,-1.3904,0.0,0.0,0.0,0.0,0.0,-3.0201,-3.0201,-3.0305,-3.0408,-3.0408,-3.0408,-3.0408,-3.0408,-3.0408,-2.9954,-2.8759,-2.6954,0.0,0.0,0.0,0.0,0.0,0.0,0.0,0.0,0.0,-2.1203,-2.1203,-2.1759,-2.2096,0.0,0.0,-2.3018,-2.3106,0.0,0.0,0.0,0.0,0.0,0.0,0.0,0.0,0.0,0.0,0.0,0.0,0.0,0.0,0.0,0.0,0.0,0.0,0.0,0.0,0.0,0.0,-1.3054,-1.2774,-1.2774,-1.2774,-1.2774,-1.2774,-1.2774,-1.2774,0.0,0.0,-1.2774,-1.2774,-1.2774,-1.2774,-1.2774,-1.2938,-1.3076,-1.3262,-1.3441,-1.362,-1.3798,-1.3872,-1.3904,-1.3904,0.0,-1.3904,-1.3904,-1.3904,-1.3904,-1.3904,-1.3904,-1.3904,-1.3904,-1.3904,-1.3904,-1.3904,-1.3904,-1.3904,-1.3904,-1.3904,-1.3904,-1.3904,-1.3904,-1.3904,-1.3904,-1.3904,-1.3904,-1.3904,-1.3904,-1.3904,-1.3904,-1.3904,-1.3904,-1.3904,-1.3904,-1.3904,-1.3904,-1.3904,-1.3904,-1.3904,0.0,0.0,0.0,0.0,0.0,0.0,-3.0677,-3.1071,-3.136,-3.136,-3.136,-3.136,-3.136,-3.136,-3.1174,-3.0719,-2.8657,0.0,0.0,0.0,0.0,0.0,0.0,0.0,0.0,0.0,-2.1203,-2.1203,-2.154,-2.1862,-2.2198,-2.2491,-2.2798,-2.3106,0.0,0.0,0.0,0.0,0.0,0.0,0.0,0.0,0.0,0.0,0.0,0.0,0.0,0.0,0.0,0.0,0.0,0.0,0.0,0.0,0.0,0.0,-1.3717,-1.2774,-1.2774,-1.2774,-1.2774,-1.2774,-1.2774,-1.2774,0.0,0.0,-1.2774,-1.2774,-1.2774,-1.2774,-1.2774,-1.2774,-1.2897,-1.3068,-1.3254,0.0,-1.355,-1.379,-1.3904,0.0,-1.3904,-1.3904,-1.3904,-1.3904,-1.3904,-1.3904,-1.3904,-1.3904,-1.3904,-1.3904,-1.3904,-1.3904,-1.3904,-1.3904,-1.3904,-1.3904,-1.3904,-1.3904,-1.3904,-1.3904,-1.3904,-1.3904,-1.3904,-1.3904,-1.3904,-1.3904,-1.3904,-1.3904,-1.3904,-1.3904,-1.3904,-1.3904,-1.3904,-1.3904,-1.3904,-1.3904,0.0,0.0,0.0,0.0,0.0,0.0,0.0,-3.1278,-3.1381,-3.1381,-3.1381,-3.1381,-3.1381,-3.1381,-3.1319,-3.1174,-3.0052,0.0,0.0,0.0,0.0,0.0,0.0,0.0,0.0,0.0,-2.1203,-2.1203,-2.154,-2.1862,-2.2198,-2.2476,-2.2798,-2.3106,-2.3106,-2.3106,0.0,0.0,0.0,0.0,0.0,0.0,0.0,0.0,0.0,0.0,0.0,0.0,0.0,0.0,0.0,0.0,0.0,0.0,0.0,0.0,0.0,0.0,-1.2774,-1.2774,-1.2774,-1.2774,-1.2774,-1.2774,-1.2774,-1.2774,-1.2774,-1.2774,-1.2774,-1.2774,-1.2774,-1.2774,-1.2889,-1.3068,-1.3246,-1.3433,0.0,0.0,0.0,-1.3904,-1.3904,-1.3904,-1.3904,-1.3904,-1.3904,-1.3904,-1.3904,-1.3904,-1.3904,-1.3904,-1.3904,-1.3904,-1.3904,-1.3904,-1.3904,-1.3904,-1.3904,-1.3904,-1.3904,-1.3904,-1.3904,-1.3904,-1.3904,-1.3904,-1.3904,-1.3904,-1.3904,-1.3904,-1.3904,-1.3904,-1.3904,-1.3904,-1.3904,-1.3904,-1.3904,-1.3904,0.0,0.0,0.0,0.0,0.0,0.0,0.0,-3.1774,-3.1878,-3.1878,-3.1878,-3.1878,-3.1878,-3.1878,-3.1816,-3.165,-3.1175,0.0,0.0,0.0,0.0,0.0,0.0,0.0,-2.3183,-2.241,-2.1759,-2.1203,-2.1408,-2.1745,-2.2184,-2.2374,-2.2696,-2.3106,-2.3106,-2.3106,0.0,0.0,0.0,0.0,0.0,0.0,-2.2886,0.0,0.0,0.0,0.0,0.0,0.0,0.0,0.0,0.0,0.0,0.0,0.0,0.0,0.0,0.0,0.0,-1.2774,-1.2774,-1.2774,-1.2774,0.0,0.0,-1.2774,-1.2774,-1.2774,-1.2774,-1.2774,-1.2774,-1.2774,-1.2873,-1.2978,-1.3206,-1.3409,0.0,0.0,0.0,-1.3904,-1.3904,-1.3904,-1.3904,-1.3904,-1.3904,-1.3904,-1.3904,-1.3904,-1.3904,-1.3904,-1.3904,-1.3904,-1.3904,-1.3904,-1.3904,-1.3904,-1.3904,-1.3904,-1.3904,-1.3904,-1.3904,-1.3904,-1.3904,-1.3904,-1.3904,-1.3904,0.0,-1.3904,-1.3904,-1.3904,-1.3904,-1.3904,-1.3904,-1.3904,-1.3904,-1.3904,0.0,0.0,0.0,0.0,0.0,0.0,0.0,-3.2401,-3.2669,-3.2669,-3.2669,-3.2669,-3.2669,-3.2669,-3.2504,-3.207,0.0,0.0,0.0,0.0,0.0,0.0,0.0,0.0,-2.368,-2.3512,-2.2755,-2.1276,-2.1276,-2.1598,-2.2213,-2.2213,-2.2535,-2.3106,-2.3091,-2.3062,0.0,0.0,0.0,0.0,0.0,0.0,0.0,0.0,0.0,0.0,0.0,0.0,0.0,0.0,0.0,0.0,0.0,0.0,0.0,0.0,0.0,0.0,0.0,-1.2774,-1.2774,-1.2774,0.0,0.0,0.0,0.0,0.0,-1.2774,-1.2774,-1.2774,-1.2774,-1.2774,-1.2774,-1.2774,-1.3124,-1.336,-1.3368,-1.3677,-1.3904,-1.3904,-1.3904,-1.3904,-1.3904,-1.3904,-1.3904,-1.3904,-1.3904,-1.3904,-1.3904,-1.3904,-1.3904,-1.3904,-1.3904,-1.3904,-1.3904,-1.3904,-1.3904,-1.3904,-1.3904,-1.3904,-1.3904,-1.3904,-1.3904,-1.3904,-1.3904,-1.3904,-1.3904,-1.3904,-1.3904,-1.3904,-1.3904,-1.3904,-1.3904,-1.3912,-1.392,-1.392,0.0,0.0,0.0,0.0,0.0,0.0,0.0,0.0,0.0,0.0,-3.2669,-3.2669,-3.2669,-3.2669,-3.2685,0.0,0.0,0.0,0.0,0.0,0.0,0.0,0.0,0.0,-2.564,-2.4507,-2.3317,-2.195,-2.195,-2.2154,-2.252,-2.252,-2.2725,-2.3091,-2.2842,-2.2608,0.0,0.0,0.0,0.0,0.0,0.0,0.0,0.0,0.0,0.0,-2.0524,-1.9993,0.0,0.0,0.0,0.0,0.0,0.0,0.0,0.0,-1.2458,-1.2661,-1.28,0.0,-1.2774,-1.2774,-1.2774,-1.2774,0.0,0.0,0.0,0.0,0.0,0.0,0.0,-1.2774,-1.2774,-1.2774,-1.3019,-1.3206,-1.3352,-1.3677,-1.3904,-1.3904,-1.3904,-1.3904,-1.3904,-1.3904,-1.3904,-1.3904,-1.3904,-1.3904,-1.3904,-1.3904,-1.3904,-1.3904,-1.3904,-1.3904,-1.3904,-1.3904,-1.3904,-1.3904,-1.3904,-1.3904,-1.3904,-1.3904,-1.3904,-1.3904,-1.3904,-1.3904,-1.3904,-1.3904,-1.3904,-1.3904,-1.3904,-1.3904,-1.392,-1.4058,-1.4115,-1.4131,0.0,0.0,0.0,0.0,0.0,0.0,0.0,0.0,0.0,0.0,0.0,-3.2669,-3.2669,0.0,0.0,0.0,0.0,0.0,0.0,0.0,0.0,0.0,0.0,-2.8615,-2.7179,-2.5799,-2.4418,-2.3049,-2.2468,-2.233,-2.2623,-2.2476,-2.2593,-2.2871,-2.2564,-2.233,0.0,0.0,0.0,0.0,-2.2023,0.0,0.0,0.0,0.0,0.0,-2.0167,-1.9403,0.0,-1.7747,-1.6632,-1.5391,0.0,0.0,0.0,0.0,-1.2426,-1.2605,-1.2783,-1.2774,-1.2774,-1.2774,-1.2774,-1.2774,-1.2774,0.0,0.0,0.0,0.0,0.0,0.0,0.0,-1.2774,-1.2774,-1.2986,-1.3189,-1.3457,-1.3734,-1.3904,-1.3904,-1.3904,-1.3904,-1.3904,-1.3904,-1.3904,-1.3904,-1.3904,-1.3904,-1.3904,-1.3904,-1.3904,-1.3904,-1.3904,-1.3904,-1.3904,-1.3904,-1.3904,-1.3904,-1.3904,-1.3904,-1.3904,-1.3904,-1.3904,-1.3904,-1.3904,-1.3904,-1.3904,-1.3993,-1.4026,-1.4034,-1.4115,-1.4148,-1.4156,-1.4261,-1.4294,-1.431,0.0,0.0,0.0,0.0,0.0,0.0,0.0,0.0,0.0,0.0,0.0,0.0,0.0,0.0,0.0,0.0,0.0,0.0,0.0,0.0,0.0,0.0,0.0,-2.9895,-2.8445,-2.7301,-2.5912,-2.4241,-2.3141,-2.2629,-2.2696,-2.2389,-2.233,-2.2462,-2.2228,-2.2081,0.0,0.0,-2.2037,-2.2008,-2.173,0.0,0.0,0.0,0.0,0.0,0.0,0.0,0.0,-1.7044,-1.6208,-1.5095,-1.3784,0.0,0.0,0.0,0.0,0.0,-1.2783,-1.2774,-1.2774,-1.2774,-1.2774,-1.2774,-1.2774,0.0,0.0,0.0,0.0,0.0,0.0,-1.2774,0.0,-1.2774,-1.3003,-1.3246,-1.3555,-1.3774,-1.3904,-1.3904,-1.3904,-1.3904,-1.3904,-1.3904,-1.3904,-1.3904,-1.3904,-1.3904,-1.3904,-1.3904,-1.3904,-1.3904,-1.3904,-1.3904,-1.3904,-1.3904,-1.3904,-1.3904,-1.3904,-1.3904,-1.3904,-1.3904,-1.3904,-1.3904,-1.3928,-1.3945,-1.3961,-1.414,-1.4213,-1.4229,-1.4375,-1.4432,-1.4432,-1.4464,-1.4473,-1.4481,0.0,0.0,0.0,0.0,0.0,0.0,0.0,0.0,0.0,0.0,0.0,0.0,0.0,0.0,0.0,0.0,0.0,0.0,0.0,0.0,0.0,-3.1744,-3.1626,-3.0856,-2.9247,-2.8718,-2.7354,-2.4974,-2.4729,-2.4086,-2.3032,-2.271,-2.2301,-2.1832,-2.1789,-2.1613,-2.1364,-2.1364,-2.1364,-2.135,-2.1306,0.0,0.0,0.0,0.0,0.0,0.0,0.0,0.0,-1.5025,-1.4143,-1.3784,-1.2483,0.0,0.0,0.0,0.0,0.0,-1.2751,-1.2774,-1.2774,-1.2774,-1.2774,-1.2774,-1.2774,0.0,0.0,0.0,0.0,0.0,0.0,-1.2774,-1.2774,-1.2774,-1.3116,-1.3344,-1.3401,-1.3693,-1.3904,-1.3904,-1.3904,-1.3904,-1.3904,-1.3904,-1.3904,-1.3904,-1.3904,-1.3904,-1.3904,-1.3904,-1.3904,-1.3904,-1.3904,-1.3904,-1.3904,-1.3904,-1.3904,-1.3904,-1.3904,-1.3904,-1.3904,-1.3904,-1.3904,-1.3912,-1.4066,-1.414,-1.4148,-1.4318,-1.4391,-1.4391,-1.4424,-1.4432,-1.4448,-1.4611,-1.4667,-1.4684,0.0,0.0,0.0,0.0,0.0,0.0,0.0,0.0,0.0,0.0,0.0,0.0,0.0,0.0,0.0,0.0,0.0,0.0,0.0,0.0,0.0,-3.1556,-3.1556,-3.115,-3.0255,-2.9353,-2.8325,-2.7168,-2.579,-2.4764,-2.4131,-2.2974,-2.2037,-2.1437,-2.1437,-2.135,-2.1203,-2.1203,-2.1203,-2.1203,0.0,0.0,0.0,0.0,0.0,0.0,0.0,0.0,0.0,0.0,-1.3255,-1.2543,-1.1957,0.0,0.0,0.0,0.0,0.0,-1.2743,-1.2774,-1.2774,-1.2774,-1.2774,-1.2774,-1.2774,0.0,0.0,0.0,0.0,0.0,0.0,-1.2774,-1.2774,-1.2774,-1.3141,-1.3368,-1.3368,-1.3677,-1.3904,-1.3904,-1.3904,-1.3904,-1.3904,-1.3904,-1.3904,-1.3904,-1.3904,-1.3904,-1.3904,-1.3904,-1.3904,-1.3904,-1.3904,-1.3904,-1.3904,-1.3904,-1.3904,-1.3904,-1.3904,-1.3904,-1.3904,-1.3904,-1.3953,-1.4058,-1.414,-1.4229,-1.4326,-1.4505,-1.4578,-1.4594,-1.4684,-1.4716,-1.4732,-1.4814,-1.4846,-1.4862,0.0,0.0,0.0,0.0,0.0,0.0,0.0,0.0,0.0,0.0,0.0,0.0,0.0,0.0,0.0,0.0,0.0,0.0,0.0,0.0,-3.1903,-3.1325,-3.1208,-3.1112,-3.0898,-2.9903,-2.9235,-2.892,-2.6641,-2.5176,-2.4407,-2.2886,-2.1832,-2.1203,-2.1203,-2.1203,-2.1203,-2.1203,-2.1203,-2.1203,0.0,0.0,0.0,0.0,0.0,0.0,0.0,0.0,0.0,0.0,0.0,0.0,0.0,0.0,0.0,-1.2207,-1.2304,-1.2385,-1.2743,-1.2774,-1.2774,-1.2774,-1.2774,-1.2774,0.0,0.0,0.0,0.0,0.0,0.0,0.0,-1.2774,-1.2774,-1.2774,-1.3141,-1.3368,-1.3368,-1.3677,-1.3904,-1.3904,-1.3904,-1.3904,-1.3904,-1.3904,-1.3904,-1.3904,-1.3904,-1.3904,-1.3904,-1.3904,-1.3904,-1.3904,-1.3904,-1.3904,-1.3904,-1.3904,-1.3904,-1.3904,-1.3904,-1.3904,-1.3904,-1.3945,-1.4042,-1.418,-1.427,-1.4375,-1.4513,-1.4692,-1.4765,-1.4781,-1.4911,-1.4968,-1.4968,-1.4968,-1.4968,-1.4968,0.0,0.0,0.0,0.0,0.0,0.0,0.0,0.0,0.0,0.0,0.0,0.0,0.0,0.0,0.0,0.0,0.0,0.0,0.0,0.0,-3.1672,-3.1325,-3.1054,-3.0898,-3.0898,-3.082,-3.0157,-2.892,-2.7547,-2.5342,-2.2422,-2.2258,-2.1832,-2.1203,-2.1203,-2.1203,-2.1203,-2.1203,-2.1203,-2.1203,-2.1203,0.0,0.0,0.0,0.0,0.0,0.0,0.0,0.0,0.0,0.0,0.0,0.0,0.0,-1.1849,-1.2207,-1.2304,-1.2385,-1.2743,-1.2774,-1.2774,-1.2774,-1.2774,0.0,-1.2774,-1.2774,0.0,-1.2774,0.0,0.0,0.0,-1.2774,-1.2774,-1.2774,-1.3141,-1.3368,-1.3368,-1.3677,-1.3904,-1.3904,-1.3904,-1.3904,-1.3904,-1.3904,-1.3904,-1.3904,-1.3904,-1.3904,-1.3904,-1.3904,-1.3904,-1.3904,-1.3904,-1.3904,-1.3904,-1.3904,-1.3904,-1.3904,-1.3904,-1.3904,-1.3904,-1.4083,-1.4164,-1.4196,-1.4529,-1.4676,-1.47,-1.4879,-1.4944,-1.4952,-1.496,-1.4968,-1.4968,-1.4968,-1.4968,-1.4968,0.0,0.0,0.0,0.0,0.0,0.0,0.0,0.0,0.0,0.0,0.0,0.0,0.0,0.0,0.0,0.0,0.0,0.0,0.0,-3.1845,-3.1556,-3.1054,-3.0937,-3.0898,-3.0898,-3.0898,-3.0645,-3.0157,-2.8044,-2.5326,-2.2184,-2.2184,-2.1832,-2.1203,-2.1203,-2.1203,-2.1203,-2.1203,-2.1203,-2.1203,-2.1203,-2.1203,0.0,0.0,0.0,0.0,0.0,0.0,0.0,0.0,-1.1776,-1.1776,-1.1776,-1.1776,-1.1849,-1.2207,-1.2304,-1.2385,-1.2743,-1.2774,-1.2774,-1.2774,-1.2774,0.0,0.0,-1.2774,-1.2774,-1.2774,-1.2774,0.0,0.0,-1.2774,-1.2774,-1.2774,-1.3141,-1.3368,-1.3368,-1.3677,-1.3904,-1.3904,-1.3904,-1.3904,-1.3904,-1.3904,-1.3904,-1.3904,-1.3904,-1.3904,-1.3904,-1.3904,-1.3904,-1.3904,-1.3904,-1.3904,-1.3904,-1.3904,-1.3904,-1.3904,-1.3904,-1.3961,-1.4075,-1.4148,-1.4302,-1.4513,-1.4651,-1.4765,-1.4871,-1.4935,-1.4968,-1.4968,-1.4968,-1.4968,-1.4968,-1.4968,-1.4968,-1.4968,0.0,0.0,0.0,0.0,0.0,0.0,0.0,0.0,0.0,0.0,0.0,0.0,0.0,0.0,0.0,0.0,0.0,0.0,-3.196,-3.1845,-3.1556,-3.1054,-3.0957,-3.0898,-3.0898,-3.0898,-3.0704,-3.0274,-2.7684,-2.4964,-2.2184,-2.2184,-2.1832,-2.1203,-2.1203,-2.1203,-2.1203,-2.1203,-2.1203,-2.1203,-2.1203,-2.1203,0.0,0.0,0.0,0.0,0.0,0.0,0.0,0.0,-1.1776,-1.1776,-1.1776,-1.1809,-1.1914,-1.2215,-1.2345,-1.245,-1.2751,-1.2774,-1.2774,-1.2774,0.0,0.0,-1.2774,-1.2774,-1.2774,-1.2774,-1.2774,-1.2774,-1.2774,0.0,-1.2774,-1.2774,-1.3092,-1.3303,-1.336,-1.3628,-1.3839,-1.3896,-1.3904,-1.3904,-1.3904,-1.3904,-1.3904,-1.3904,-1.3904,-1.3904,-1.3904,-1.3904,-1.3904,-1.3904,-1.3904,-1.3904,-1.3904,-1.3904,-1.3904,-1.3904,-1.3961,-1.4058,-1.418,-1.4237,-1.4424,-1.4708,-1.4765,-1.4854,-1.4968,-1.4968,-1.4968,-1.4968,-1.4968,-1.4968,-1.4968,-1.4968,-1.4968,-1.4968,0.0,0.0,0.0,0.0,0.0,0.0,0.0,0.0,0.0,0.0,0.0,0.0,0.0,0.0,0.0,0.0,0.0,0.0,-3.2305,-3.196,-3.1672,-3.1325,-3.1054,-3.0898,-3.0898,-3.0898,-3.0216,-2.892,-2.6338,-2.4115,-2.2244,-2.2184,-2.1832,-2.1203,-2.1203,-2.1203,-2.1203,-2.1203,-2.1203,-2.1203,-2.1203,-2.1203,-2.1146,0.0,0.0,0.0,0.0,0.0,0.0,0.0,-1.1776,-1.1776,-1.1776,-1.189,-1.2069,-1.2247,-1.2426,-1.2605,-1.2783,-1.2774,-1.2774,-1.2774,0.0,0.0,-1.2774,-1.2774,-1.2774,-1.2774,-1.2774,-1.2774,-1.2774,-1.2774,-1.2774,-1.2774,-1.2986,-1.3157,-1.3344,-1.353,-1.3639,-1.388,-1.3904,-1.3904,-1.3904,-1.3904,-1.3904,-1.3904,-1.3904,-1.3904,-1.3904,-1.3904,-1.3904,-1.3904,-1.3904,-1.3904,-1.3904,-1.3904,-1.3904,-1.3904,-1.4091,-1.418,-1.4188,-1.4359,-1.4538,-1.4724,-1.4887,-1.4968,-1.4968,-1.4968,-1.4968,-1.4968,-1.4968,-1.4968,-1.4968,-1.4968,-1.4968,-1.4968,0.0,0.0,0.0,0.0,0.0,0.0,0.0,0.0,0.0,0.0,0.0,0.0,0.0,0.0,0.0,0.0,0.0,0.0,-3.196,-3.1845,-3.1556,-3.1054,-3.0937,-3.0898,-3.0898,-2.9962,-2.9294,-2.892,-2.7246,-2.543,-2.3508,-2.2647,-2.1832,-2.1203,-2.1203,-2.1203,-2.1203,-2.1203,-2.1203,-2.1203,-2.1203,-2.1203,-2.1089,0.0,0.0,0.0,0.0,0.0,0.0,0.0,0.0,0.0,-1.1776,-1.189,-1.2069,-1.2247,-1.2426,-1.2605,-1.2783,-1.2774,-1.2774,-1.251,-1.2444,0.0,0.0,-1.2305,0.0,0.0,-1.2634,-1.2774,-1.2774,-1.2774,-1.2774,-1.2774,-1.2986,-1.3157,-1.3344,-1.353,-1.3639,-1.388,-1.3904,-1.3904,-1.3904,-1.3904,-1.3904,-1.3904,-1.3904,-1.3904,-1.3904,-1.3904,-1.3904,-1.3904,-1.3904,-1.3904,-1.3904,-1.3904,-1.3904,-1.3904,-1.4091,-1.4245,-1.4359,-1.4546,-1.4724,-1.4895,-1.4944,-1.4968,-1.4968,-1.4968,-1.4968,-1.4968,-1.4968,-1.4968,-1.4968,-1.4968,-1.4968,-1.4968,0.0,0.0,0.0,0.0,0.0,0.0,0.0,0.0,0.0,0.0,0.0,0.0,0.0,0.0,0.0,0.0,0.0,0.0,0.0,-3.173,-3.1441,-3.1054,-3.0957,-3.0898,-3.0898,-3.0098,-2.9412,-2.892,-2.7125,-2.549,-2.4066,-2.2811,-2.1832,-2.1203,-2.1203,-2.1203,-2.1203,-2.1203,-2.1203,-2.1203,-2.1203,-2.1203,-2.1146,0.0,0.0,0.0,0.0,0.0,0.0,0.0,0.0,0.0,-1.1857,-1.1996,-1.2174,-1.2353,-1.2532,-1.2694,-1.261,-1.2576,-1.251,-1.2173,-1.2107,-1.1982,-1.1644,0.0,0.0,0.0,-1.2379,-1.2576,-1.2576,-1.2576,-1.2634,-1.2766,-1.2921,-1.3084,-1.3336,-1.3465,-1.3628,-1.3872,-1.3904,-1.3904,-1.3904,-1.3904,-1.3904,-1.3904,-1.3904,-1.3904,-1.3904,-1.3904,-1.3904,-1.3904,-1.3904,-1.3904,-1.3904,-1.3904,-1.3937,-1.4018,-1.4196,-1.4367,-1.4546,-1.4659,-1.4806,-1.4968,-1.4968,-1.4968,-1.4968,-1.4968,-1.4968,-1.4968,-1.4968,-1.4968,-1.4968,-1.4968,-1.4968,-1.4968,0.0,0.0,0.0,0.0,0.0,0.0,0.0,0.0,0.0,0.0,0.0,0.0,0.0,0.0,0.0,0.0,0.0,0.0,0.0,0.0,-3.1267,-3.1267,-3.1054,-3.084,-3.0704,-3.0704,-3.0079,-2.8742,-2.6399,-2.4903,-2.4129,-2.2826,-2.1847,-2.1247,-2.1218,-2.1203,-2.1203,-2.1203,-2.1203,-2.1203,-2.1203,-2.1203,-2.1203,-2.1203,0.0,0.0,0.0,0.0,0.0,0.0,0.0,0.0,-1.1979,-1.2158,-1.2345,-1.2515,-1.2694,-1.27,-1.2371,-1.2305,-1.218,-1.1843,-1.171,-1.1578,-1.1247,-1.171,-1.2114,-1.1784,-1.2048,-1.2239,-1.2239,-1.2305,-1.2371,-1.2708,-1.2766,-1.2962,-1.3319,-1.3368,-1.3506,-1.3855,-1.3904,-1.3904,-1.3904,-1.3904,-1.3904,-1.3904,-1.3904,-1.3904,-1.3904,-1.3904,-1.3904,-1.3904,-1.3904,-1.3904,-1.3904,-1.3904,-1.3993,-1.418,-1.4351,-1.4529,-1.4708,-1.4724,-1.4822,-1.4968,-1.4968,-1.4968,-1.4968,-1.4968,-1.4968,-1.4968,-1.4968,-1.4968,-1.4968,-1.4968,-1.4968,-1.4968,0.0,0.0,0.0,0.0,0.0,0.0,0.0,0.0,0.0,0.0,0.0,0.0,0.0,0.0,0.0,0.0,0.0,0.0,0.0,0.0,-3.1228,-3.0995,-3.0957,-3.0392,-2.9353,-2.9353,-2.8701,-2.7426,-2.684,-2.588,-2.448,-2.2946,-2.1979,-2.1584,-2.132,-2.1203,-2.1203,-2.1203,-2.1203,-2.1203,-2.1203,-2.1203,-2.1203,-2.1203,-1.9622,0.0,0.0,0.0,0.0,0.0,0.0,0.0,-1.1979,-1.2158,-1.2345,-1.2515,-1.2498,-1.2371,-1.2312,-1.2114,-1.1776,-1.1446,-1.1115,-1.0916,-1.085,-1.1115,-1.1446,-1.1314,-1.1644,-1.1916,-1.1916,-1.2114,-1.2312,-1.2371,-1.2634,-1.2962,-1.3319,-1.3368,-1.3506,-1.3855,-1.3904,-1.3904,-1.3904,-1.3904,-1.3904,-1.3904,-1.3904,-1.3904,-1.3904,-1.3904,-1.3904,-1.3904,-1.3904,-1.3904,-1.3904,-1.3904,-1.3993,-1.418,-1.4351,-1.4529,-1.4716,-1.4846,-1.4927,-1.4968,-1.4968,-1.4968,-1.4968,-1.4968,-1.4968,-1.4968,-1.4968,-1.4968,-1.4968,-1.4968,-1.4968,-1.4968,0.0,0.0,0.0,0.0,0.0,0.0,0.0,0.0,0.0,0.0,0.0,0.0,0.0,0.0,0.0,0.0,0.0,0.0,0.0,0.0,-3.117,-3.0898,-3.0898,-3.0274,-2.892,-2.892,-2.7966,-2.6111,-2.6111,-2.555,-2.4531,-2.2976,-2.2008,-2.1686,-2.135,-2.1203,-2.1203,-2.1203,-2.1203,-2.1203,-2.1203,-2.1203,-2.1203,-2.1203,-1.9795,-1.7735,-1.6844,0.0,0.0,0.0,0.0,0.0,0.0,0.0,-1.2467,-1.2645,-1.2628,-1.2444,-1.2173,-1.1909,-1.1644,-1.1115,0.0,-1.0717,-1.0717,-1.085,-1.0982,-1.0982,-1.1247,-1.1512,-1.1512,-1.1644,-1.1909,-1.2239,-1.2444,-1.2762,-1.3319,-1.3368,-1.3506,-1.3855,-1.3904,-1.3904,-1.3904,-1.3904,-1.3904,-1.3904,-1.3904,-1.3904,-1.3904,-1.3904,-1.3904,-1.3904,-1.3904,-1.3904,-1.3904,-1.3985,-1.4123,-1.4302,-1.4481,-1.4659,-1.4838,-1.4927,-1.4968,-1.4968,-1.4968,-1.4968,-1.4968,-1.4968,-1.4968,-1.4968,-1.4968,-1.4968,-1.4968,-1.4968,-1.4968,-1.4968,0.0,0.0,0.0,0.0,0.0,0.0,0.0,0.0,0.0,0.0,0.0,0.0,0.0,0.0,0.0,0.0,0.0,0.0,0.0,0.0,0.0,-3.0587,-3.0528,-2.9844,-2.8265,-2.8265,-2.7125,-2.4764,-2.4764,-2.4623,-2.4325,-2.2931,-2.2096,-2.1759,-2.1437,-2.1262,-2.1203,-2.1203,-2.1203,-2.1203,-2.1203,-2.1203,-2.1203,-2.1203,-2.0155,-1.8448,-1.7138,-1.5499,-1.3753,-1.2414,0.0,0.0,0.0,0.0,-1.2596,-1.2783,-1.2774,-1.2568,-1.2041,-1.1776,-1.1512,-1.085,-1.0717,0.0,-1.0717,-1.0717,-1.0717,-1.0717,-1.0916,-1.1115,-1.1115,-1.1181,-1.1446,-1.2107,-1.2246,-1.2563,-1.3319,-1.3368,-1.3506,-1.3855,-1.3904,-1.3904,-1.3904,-1.3904,-1.3904,-1.3904,-1.3904,-1.3904,-1.3904,-1.3904,-1.3904,-1.3904,-1.3904,-1.3904,-1.3904,-1.4083,-1.4261,-1.4432,-1.4651,-1.483,-1.4968,-1.4968,-1.4968,-1.4968,-1.4968,-1.4968,-1.4968,-1.4968,-1.4968,-1.4968,-1.4968,-1.4968,-1.4968,-1.4968,-1.4968,-1.4968,0.0,0.0,0.0,0.0,0.0,0.0,0.0,0.0,0.0,0.0,0.0,0.0,0.0,0.0,0.0,0.0,0.0,0.0,0.0,0.0,0.0,-2.9235,-2.9176,-2.8026,-2.5668,-2.5623,-2.4887,-2.3355,-2.3355,-2.3325,-2.3281,-2.2772,-2.2403,-2.2096,-2.1774,-2.1467,-2.1203,-2.1203,-2.1203,-2.1203,-2.1203,-2.1203,-2.1203,-2.1203,-2.0572,-1.9403,-1.7852,-1.6267,-1.4709,-1.3283,-1.2443,0.0,0.0,0.0,-1.2596,-1.2783,-1.2568,-1.2371,-1.2246,-1.1776,-1.1181,-1.0784,-1.0717,-1.0717,0.0,-1.0717,-1.0717,-1.0717,-1.0717,-1.0784,-1.0784,-1.0982,-1.138,-1.1776,-1.2114,-1.2563,-1.3319,-1.3368,-1.3506,-1.3855,-1.3904,-1.3904,-1.3904,-1.3904,-1.3904,-1.3904,-1.3904,-1.3904,-1.3904,-1.3904,-1.3904,-1.3904,-1.3904,-1.3904,-1.3904,-1.4083,-1.4261,-1.4432,-1.4773,-1.4944,-1.4968,-1.4968,-1.4968,-1.4968,-1.4968,-1.4968,-1.4968,-1.4968,-1.4968,-1.4968,-1.4968,-1.4968,-1.4968,-1.4968,-1.4968,-1.4968,0.0,0.0,0.0,0.0,0.0,0.0,0.0,0.0,0.0,0.0,0.0,0.0,0.0,0.0,0.0,-3.2498,0.0,0.0,0.0,0.0,0.0,-2.892,-2.8206,-2.7004,-2.5133,-2.5071,-2.4456,-2.3106,-2.3106,-2.3106,-2.3106,-2.2959,-2.2637,-2.2169,-2.1847,-2.1511,-2.1203,-2.1203,-2.1203,-2.1203,-2.1203,-2.1203,-2.1203,-2.1203,-2.0729,-1.9924,-1.8854,-1.7207,-1.5359,-1.4365,-1.3305,-1.2353,-1.2515,0.0,0.0,0.0,-1.2708,-1.251,-1.2114,-1.1644,-1.1115,-1.0784,-1.0717,-1.0717,-1.0717,-1.0717,-1.0717,-1.0717,-1.0717,-1.0717,-1.0717,-1.085,-1.1049,-1.138,-1.1851,-1.2329,-1.2985,-1.3319,-1.362,-1.3872,-1.3904,-1.3904,-1.3904,-1.3904,-1.3904,-1.3904,-1.3904,-1.3904,-1.3904,-1.3904,-1.3904,-1.3904,-1.3904,-1.3904,-1.3904,-1.418,-1.4456,-1.4732,-1.4895,-1.4968,-1.4968,-1.4968,-1.4968,-1.4968,-1.4968,-1.4968,-1.4968,-1.4968,-1.4968,-1.4968,-1.4968,-1.4968,-1.4968,-1.4968,-1.4968,-1.4968,0.0,0.0,0.0,0.0,0.0,0.0,0.0,0.0,0.0,0.0,0.0,0.0,0.0,0.0,0.0,0.0,-3.2076,0.0,0.0,0.0,0.0,-2.7966,-2.7004,-2.5928,-2.4641,-2.4579,-2.4085,-2.3106,-2.3106,-2.3106,-2.3106,-2.3106,-2.2813,-2.2286,-2.2037,-2.1759,-2.1452,-2.1452,-2.1452,-2.1452,-2.1452,0.0,0.0,0.0,-2.119,0.0,-1.9926,-1.8482,-1.6691,-1.6074,-1.4711,-1.3264,-1.3315,-1.311,0.0,0.0,0.0,-1.2642,-1.2107,-1.171,-1.138,-1.0916,-1.085,-1.0784,-1.0717,-1.0717,-1.0717,-1.0717,-1.0717,-1.0717,-1.0717,-1.0717,-1.0784,-1.1181,-1.1643,-1.221,-1.2727,-1.3245,-1.3639,-1.388,-1.3904,-1.3904,-1.3904,-1.3904,-1.3904,-1.3904,-1.3904,-1.3904,-1.3904,-1.3904,-1.3904,-1.3904,-1.3904,-1.392,-1.3969,-1.4326,-1.4659,-1.4968,-1.4968,-1.4968,-1.4968,-1.4968,-1.4968,-1.4968,-1.4968,-1.4968,-1.4968,-1.4968,-1.4968,-1.4968,-1.4968,-1.4968,-1.4968,-1.4968,-1.4968,-1.4968,0.0,0.0,0.0,0.0,0.0,0.0,0.0,0.0,0.0,0.0,0.0,0.0,-3.3696,-3.293,-3.223,-3.1885,-3.1556,-3.0665,-2.9098,-2.892,0.0,-2.5378,-2.5256,0.0,-2.323,-2.323,-2.3168,-2.3106,-2.3106,-2.3106,-2.3106,-2.3106,-2.293,-2.2593,-2.2579,-2.2403,-2.214,-2.214,-2.214,-2.214,0.0,0.0,0.0,0.0,0.0,-2.1975,-2.1032,-2.0248,-1.9498,-1.8765,-1.6907,-1.4993,-1.5197,-1.4119,-1.2774,0.0,0.0,0.0,-1.2379,-1.2246,-1.2041,-1.138,-1.1181,-1.1115,-1.0784,-1.0717,-1.0717,-1.0717,-1.0717,-1.0717,-1.0717,-1.0717,-1.0784,-1.1181,-1.1643,-1.221,-1.2727,-1.3245,-1.3639,-1.388,-1.3904,-1.3904,-1.3904,-1.3904,-1.3904,-1.3904,-1.3904,-1.3904,-1.3904,-1.3904,-1.3904,-1.3904,-1.3904,-1.3985,-1.4164,-1.4513,-1.4789,-1.4968,-1.4968,-1.4968,-1.4968,-1.4968,-1.4968,-1.4968,-1.4968,-1.4968,-1.4968,-1.4968,-1.4968,-1.4968,-1.4968,-1.4968,-1.4968,-1.4968,-1.4968,-1.4968,0.0,0.0,0.0,0.0,0.0,0.0,0.0,0.0,0.0,0.0,0.0,0.0,0.0,-3.2772,-3.2153,-3.1538,-3.0412,-2.9512,-2.892,-2.7366,0.0,-2.5133,-2.427,-2.3604,-2.3106,-2.3106,-2.3106,-2.3106,-2.3106,-2.3106,-2.3106,-2.3106,-2.3047,-2.293,-2.271,-2.2462,-2.2184,-2.2184,0.0,-2.2184,-2.2184,0.0,0.0,0.0,-2.2301,-2.2401,-2.2083,-2.1279,-2.0263,-1.9978,-1.8613,-1.6776,-1.5709,-1.4958,-1.425,-1.3161,0.0,-1.27,-1.2371,-1.2305,-1.2107,-1.138,-1.1181,-1.1115,-1.0784,-1.0717,-1.0717,-1.0717,-1.0717,-1.0717,-1.0717,-1.0717,-1.0717,-1.085,-1.1596,-1.2262,-1.246,-1.327,-1.3831,-1.3896,-1.3904,-1.3904,-1.3904,-1.3904,-1.3904,-1.3904,-1.3904,-1.3904,-1.3904,-1.3904,-1.3904,-1.3904,-1.3904,-1.4042,-1.4343,-1.4586,-1.4797,-1.4968,-1.4968,-1.4968,-1.4968,-1.4968,-1.4968,-1.4968,-1.4968,-1.4968,-1.4968,-1.4968,-1.4968,-1.4968,-1.4968,-1.4968,-1.4968,-1.4968,-1.4968,-1.4968,0.0,0.0,0.0,0.0,0.0,0.0,0.0,0.0,0.0,0.0,0.0,0.0,0.0,0.0,-3.067,-2.9941,-2.8861,-2.8086,-2.7649,-2.6034,-2.4887,-2.4456,-2.3604,-2.3106,-2.3106,-2.3106,-2.3106,-2.3106,-2.3106,-2.3106,-2.3106,-2.3106,-2.3106,-2.3106,-2.2886,-2.2681,0.0,-2.2491,-2.2491,-2.2491,-2.2491,-2.2491,-2.2491,-2.2491,-2.2623,-2.2784,-2.2784,-2.2219,-2.1447,-2.1447,-2.022,-1.8489,-1.7345,-1.6183,0.0,0.0,0.0,0.0,-1.2503,0.0,0.0,-1.171,-1.1578,-1.1446,-1.1115,-1.1049,-1.1049,-1.1049,-1.1049,-1.1049,-1.0916,-1.085,-1.085,-1.0717,-1.1511,-1.2131,-1.2268,-1.3115,-1.3761,-1.3904,-1.3904,-1.3904,-1.3904,-1.3904,-1.3904,-1.3904,-1.3904,-1.3904,-1.3904,-1.3904,-1.3904,-1.3904,-1.4018,-1.4188,-1.4432,-1.4676,-1.4854,-1.4968,-1.4968,-1.4968,-1.4968,-1.4968,-1.4968,-1.4968,-1.4968,-1.4968,-1.4968,-1.4968,-1.4968,-1.4968,-1.4968,-1.4968,-1.4968,-1.4968,-1.4968,-1.4968,0.0,0.0,0.0,0.0,0.0,0.0,0.0,0.0,0.0,-3.2181,0.0,0.0,0.0,0.0,0.0,-2.7073,-2.6961,-2.6415,-2.5194,-2.5071,-2.4456,-2.3168,0.0,0.0,-2.3106,-2.3106,-2.3106,-2.3106,-2.3106,-2.3106,-2.3106,-2.3106,-2.3106,-2.3106,-2.3106,-2.3106,-2.3106,-2.3106,-2.3106,-2.3106,-2.3106,-2.3106,-2.3106,-2.3106,-2.3106,-2.3106,-2.3106,-2.3106,-2.3106,-2.3106,-2.1762,-2.0093,-2.003,0.0,0.0,0.0,0.0,0.0,0.0,0.0,0.0,0.0,-1.2305,-1.2246,-1.1909,-1.1776,-1.1776,-1.1776,-1.1776,-1.1644,-1.1314,-1.1181,-1.1115,-1.0784,-1.1307,-1.1848,-1.2268,-1.2896,-1.3468,-1.3833,-1.3904,-1.3904,-1.3904,-1.3904,-1.3904,-1.3904,-1.3904,-1.3904,-1.3904,-1.3904,-1.3904,-1.3912,-1.4245,-1.4432,-1.444,-1.4789,-1.4968,-1.4968,-1.4968,-1.4968,-1.4968,-1.4968,-1.4968,-1.4968,-1.4968,-1.4968,-1.4968,-1.4968,-1.4968,-1.4968,-1.4968,-1.4968,-1.4968,-1.4968,-1.4968,-1.4968,0.0,0.0,0.0,0.0,0.0,0.0,0.0,0.0,-3.1176,0.0,0.0,0.0,-2.8346,-2.7717,-2.7244,-2.7039,-2.6172,-2.5501,-2.5133,-2.4209,-2.3479,-2.3106,-2.3106,-2.3106,-2.3106,-2.3106,-2.3106,-2.3106,-2.3106,-2.3106,-2.3106,-2.3106,-2.3106,0.0,-2.3106,-2.3106,-2.3106,-2.3106,-2.3106,-2.3106,-2.3106,-2.3106,-2.3106,-2.3106,-2.3106,-2.3106,-2.3106,-2.3106,-2.3106,-2.3106,-2.2716,-2.195,-2.0487,0.0,0.0,0.0,0.0,0.0,-1.2774,0.0,0.0,0.0,0.0,0.0,-1.1909,-1.1776,-1.1776,-1.1776,-1.1776,-1.1784,-1.1644,-1.138,-1.1247,-1.1446,-1.1849,-1.22,-1.2268,-1.3115,-1.3761,-1.3904,-1.3904,-1.3904,-1.3904,-1.3904,-1.3904,-1.3904,-1.3904,-1.3904,-1.3904,-1.3904,-1.3961,-1.4099,-1.4318,-1.4497,-1.4627,-1.4854,-1.4968,-1.4968,-1.4968,-1.4968,-1.4968,-1.4968,-1.4968,-1.4968,-1.4968,-1.4968,-1.4968,-1.4968,-1.4968,-1.4968,-1.4968,-1.4968,-1.4968,-1.4968,-1.4968,-1.4968,0.0,0.0,0.0,0.0,0.0,0.0,-2.9444,-2.9361,-2.923,0.0,0.0,0.0,-2.6504,-2.5796,-2.5362,-2.5362,-2.4702,-2.427,-2.427,-2.3542,-2.3106,-2.3106,-2.3106,-2.3106,-2.3106,-2.3106,-2.3106,-2.3106,-2.3106,-2.3106,-2.3106,-2.3106,-2.3106,-2.3106,0.0,0.0,0.0,0.0,-2.3106,-2.3106,-2.3106,-2.3106,-2.3106,-2.3106,-2.3106,-2.3106,-2.3106,-2.3106,-2.3106,-2.3106,-2.2981,-2.2543,-2.0613,0.0,0.0,0.0,0.0,0.0,0.0,0.0,0.0,0.0,0.0,0.0,-1.2246,-1.2246,-1.2246,-1.2246,-1.2246,-1.218,-1.2041,-1.1843,-1.171,-1.1776,-1.2187,-1.2544,-1.2544,-1.3185,-1.3682,-1.3904,-1.3904,-1.3904,-1.3904,-1.3904,-1.3904,-1.3904,-1.3904,-1.3904,-1.3904,-1.3904,-1.3985,-1.4172,-1.4343,-1.4521,-1.4708,-1.4879,-1.4968,-1.4968,-1.4968,-1.4968,-1.4968,-1.4968,-1.4968,-1.4968,-1.4968,-1.4968,-1.4968,-1.4968,-1.4968,-1.4968,-1.4968,-1.4968,-1.4968,-1.4968,-1.4968,-1.4968,0.0,0.0,0.0,0.0,0.0,0.0,0.0,-2.7768,-2.7023,0.0,-2.5725,-2.4738,-2.4086,-2.3471,0.0,0.0,-2.3106,-2.3106,-2.3106,-2.3106,-2.3106,-2.3106,-2.3106,-2.3106,-2.3106,-2.3106,-2.3106,-2.3106,-2.3106,-2.3106,-2.3106,-2.3106,-2.3106,-2.3106,0.0,0.0,0.0,-2.3106,-2.3106,-2.3106,-2.3106,-2.3106,-2.3106,-2.3106,-2.3106,-2.3106,-2.3106,-2.3106,-2.3106,-2.3106,-2.2918,-2.2355,-2.0803,-1.9979,0.0,0.0,-1.5544,0.0,0.0,0.0,0.0,0.0,-1.2774,0.0,-1.2774,-1.2774,-1.2774,-1.2774,-1.2774,-1.2708,-1.2444,-1.2305,-1.2246,-1.1975,-1.239,-1.2819,-1.2819,-1.3115,-1.3468,-1.3833,-1.3904,-1.3904,-1.3904,-1.3904,-1.3904,-1.3904,-1.3904,-1.3904,-1.3904,-1.3904,-1.3993,-1.4196,-1.4351,-1.4529,-1.4732,-1.4887,-1.4968,-1.4968,-1.4968,-1.4968,-1.4968,-1.4968,-1.4968,-1.4968,-1.4968,-1.4968,-1.4968,-1.4968,-1.4968,-1.4968,-1.4968,-1.4968,-1.4968,-1.4968,-1.4968,-1.4968,0.0,0.0,0.0,0.0,0.0,0.0,0.0,0.0,0.0,-2.5255,-2.4399,-2.3837,0.0,0.0,0.0,0.0,0.0,0.0,0.0,-2.3106,-2.3106,-2.3106,-2.3106,-2.3106,-2.3106,-2.3106,-2.3106,-2.3106,-2.3106,-2.3106,-2.3106,-2.3106,-2.3106,-2.3106,0.0,0.0,0.0,-2.3106,-2.3106,-2.3106,-2.3106,-2.3106,-2.3106,-2.3106,-2.3106,-2.3106,-2.3106,-2.3106,-2.3106,-2.3106,-2.3043,-2.2918,-2.2278,-2.1321,-2.0233,-1.9407,0.0,0.0,0.0,0.0,0.0,0.0,-1.2774,0.0,-1.2774,-1.2774,-1.2774,-1.2774,-1.2774,-1.2766,-1.2708,-1.2503,-1.2379,-1.2576,-1.2728,-1.2819,-1.2819,-1.3396,-1.3825,-1.3904,-1.3904,-1.3904,-1.3904,-1.3904,-1.3904,-1.3904,-1.3904,-1.3904,-1.3904,-1.3904,-1.405,-1.4375,-1.4416,-1.4586,-1.4911,-1.4952,-1.4968,-1.4968,-1.4968,-1.4968,-1.4968,-1.4968,-1.4968,-1.4968,-1.4968,-1.4968,-1.4968,-1.4968,-1.4968,-1.4968,-1.4968,-1.4968,-1.4968,-1.4968,-1.4968,-1.4968,0.0,0.0,0.0,0.0,0.0,0.0,0.0,0.0,0.0,-2.4701,-2.3998,0.0,0.0,0.0,0.0,0.0,0.0,0.0,0.0,-2.3106,-2.3106,-2.3106,-2.3106,-2.3106,-2.3106,-2.3106,-2.3106,-2.3106,-2.3106,-2.3106,-2.3106,-2.3106,-2.2981,-2.2856,-2.3043,0.0,0.0,-2.2793,-2.2856,-2.2856,-2.3043,-2.3106,-2.3106,-2.3106,-2.3106,-2.3106,-2.3106,-2.3106,-2.3106,-2.3106,-2.3106,-2.3043,-2.2918,-2.2278,-2.1447,-2.0613,-1.9598,-1.85,0.0,0.0,-1.5869,-1.4446,-1.3997,0.0,0.0,-1.2774,-1.2774,-1.2774,-1.2774,-1.2774,-1.2774,-1.2642,-1.2666,-1.2887,-1.3054,-1.3125,-1.3213,-1.3593,-1.3904,-1.3904,-1.3904,-1.3904,-1.3904,-1.3904,-1.3904,-1.3904,-1.3904,-1.3904,-1.3904,-1.3904,-1.4066,-1.4424,-1.4432,-1.4603,-1.5037,-1.4968,-1.4968,-1.4968,-1.4968,-1.4968,-1.4968,-1.4968,-1.4968,-1.4968,-1.4968,-1.4968,-1.4968,-1.4968,-1.4968,-1.4968,-1.4968,-1.4968,-1.4968,-1.4968,-1.4968,-1.4968,0.0,0.0,0.0,0.0,0.0,0.0,0.0,0.0,0.0,-2.4393,0.0,0.0,0.0,0.0,0.0,0.0,0.0,0.0,0.0,-2.3106,-2.3106,-2.3106,-2.3106,-2.3106,-2.3106,-2.3106,-2.3135,-2.3208,-2.3208,-2.3237,-2.3296,-2.3233,-2.3044,-2.2792,0.0,0.0,0.0,-2.2539,-2.2665,-2.2729,-2.2981,-2.3126,-2.3208,-2.3208,-2.3237,-2.3296,-2.3296,-2.3252,-2.3208,-2.3208,-2.3164,-2.3106,-2.3106,-2.2918,-2.248,-2.1384,-2.0866,0.0,-1.882,-1.818,-1.7538,-1.6063,-1.5489,-1.4912,0.0,0.0,0.0,-1.2832,-1.2774,-1.2774,-1.2774,-1.2774,-1.2881,-1.3019,-1.323,-1.3425,-1.3571,-1.3774,-1.3904,-1.3904,-1.3904,-1.3904,-1.3904,-1.3904,-1.3904,-1.3904,-1.3904,-1.3904,-1.3904,-1.3904,-1.4066,-1.4424,-1.4432,-1.4603,-1.5037,-1.4968,-1.4968,-1.4968,-1.4968,-1.4968,-1.4968,-1.4968,-1.4968,-1.4968,-1.4968,-1.4968,-1.4968,-1.4968,-1.4968,-1.4968,-1.4968,-1.4968,-1.4968,-1.4968,-1.4968,-1.4968,-2.539,-2.5322,0.0,0.0,0.0,0.0,0.0,0.0,0.0,0.0,0.0,0.0,0.0,0.0,0.0,0.0,0.0,0.0,-2.3106,-2.3106,0.0,-2.3106,-2.3106,-2.3106,-2.3106,-2.3106,-2.3252,-2.3545,-2.3545,-2.3691,-2.3969,-2.3645,-2.3436,-2.3371,-2.3125,-2.2995,-2.293,-2.293,-2.2916,-2.2981,-2.2995,-2.3214,-2.3545,-2.3545,-2.372,-2.3969,-2.3969,-2.3793,-2.3545,-2.3545,-2.3354,-2.3106,-2.3106,-2.3043,-2.2981,-2.2856,0.0,0.0,0.0,-1.9598,-1.8896,-1.7227,-1.6786,-1.6398,-1.4977,0.0,-1.4324,-1.303,0.0,-1.2774,-1.2774,0.0,0.0,-1.2865,-1.3149,-1.3376,-1.3401,-1.3693,-1.3904,-1.3904,-1.3904,-1.3904,-1.3904,-1.3904,-1.3904,-1.3904,-1.3904,-1.3904,-1.3904,-1.3904,-1.4066,-1.4424,-1.4432,-1.4603,-1.5037,-1.4968,-1.4968,-1.4968,-1.4968,-1.4968,-1.4968,-1.4968,-1.4968,-1.4968,-1.4968,-1.4968,-1.4968,-1.4968,-1.4968,-1.4968,-1.4968,-1.4968,-1.4968,-1.4968,-1.4968,-1.4968,-2.4984,-2.5119,0.0,0.0,0.0,0.0,0.0,0.0,0.0,0.0,0.0,0.0,-2.3278,-2.3342,-2.3342,0.0,-2.3342,-2.3342,-2.3342,-2.315,0.0,-2.3676,-2.3278,-2.315,-2.3342,-2.315,-2.3093,-2.3221,-2.3221,-2.3292,-2.3485,-2.3289,-2.3093,-2.2897,-2.2962,-2.2766,-2.2438,-2.2635,-2.27,-2.27,-2.27,-2.3056,-2.3542,-2.3357,-2.3436,-2.3746,-2.3746,-2.3789,-2.3881,-2.3881,-2.3793,-2.3676,-2.3676,-2.3545,0.0,-2.3398,0.0,0.0,0.0,-2.1447,-2.0626,-1.9152,-1.8448,-1.7818,-1.6462,-1.6138,-1.5944,-1.5359,0.0,0.0,0.0,0.0,0.0,0.0,-1.336,-1.3563,-1.366,-1.3807,-1.3904,-1.3904,-1.3904,-1.3904,-1.3904,-1.3904,-1.3904,-1.3904,-1.3904,-1.3904,-1.3904,-1.3904,-1.4066,-1.4424,-1.4432,-1.4603,-1.5037,-1.4968,-1.4968,-1.4968,-1.4968,-1.4968,-1.4968,-1.4968,-1.4968,-1.4968,-1.4968,-1.4968,-1.4968,-1.4968,-1.4968,-1.4968,-1.4968,-1.4968,-1.4968,-1.4968,-1.4968,-1.4968,0.0,0.0,0.0,0.0,0.0,0.0,-2.4034,-2.37,-2.3406,-2.3182,-2.3084,-2.3093,-2.3355,-2.3355,-2.3355,-2.3355,-2.3355,-2.3355,-2.3355,-2.3159,-2.3224,-2.376,-2.3289,-2.3093,-2.3355,-2.3093,-2.307,-2.3154,-2.3154,-2.3196,-2.328,-2.3148,-2.2949,-2.275,-2.2882,-2.2683,-2.2298,-2.2484,-2.2617,-2.2617,-2.2617,-2.2887,-2.3333,-2.3297,-2.3412,-2.361,-2.361,-2.3765,-2.3956,-2.3956,-2.3884,-2.3811,-2.3891,-2.3781,-2.3592,0.0,0.0,0.0,-2.3243,-2.2806,-2.2104,-2.1062,-2.031,-1.9483,-1.7999,-1.7678,-1.7549,-1.7109,-1.6203,0.0,0.0,0.0,0.0,0.0,0.0,-1.3615,-1.3815,-1.3872,-1.3904,-1.3904,-1.3904,-1.3904,-1.3904,-1.3904,-1.3904,-1.3904,-1.3904,-1.3904,-1.3904,-1.3904,-1.4066,-1.4424,-1.4432,-1.4603,-1.5037,-1.4968,-1.4968,-1.4968,-1.4968,-1.4968,-1.4968,-1.4968,-1.4968,-1.4968,-1.4968,-1.4968,-1.4968,-1.4968,-1.4968,-1.4968,-1.4968,-1.4968,-1.4968,-1.4968,-1.4968,-1.4968,-2.4834,-2.4358,0.0,0.0,-2.402,-2.4034,-2.4034,-2.37,-2.349,-2.3476,-2.321,-2.3028,-2.3028,-2.3028,-2.3028,-2.3028,-2.3028,-2.3028,-2.3028,-2.3028,-2.3028,-2.3028,-2.3028,-2.3028,-2.3028,-2.3028,-2.3182,-2.3476,-2.3476,-2.363,-2.3924,-2.3584,-2.3379,-2.3379,-2.3038,-2.2901,-2.2901,-2.2901,-2.2901,-2.2901,-2.2901,-2.2914,-2.2983,-2.372,-2.3992,-2.3992,-2.3992,-2.3795,-2.3543,-2.3543,-2.328,-2.3093,-2.342,-2.3471,-2.3601,0.0,0.0,0.0,-2.3666,-2.3307,-2.3,-2.263,-2.2264,-2.1524,-1.9789,-1.9407,-1.896,-1.7356,-1.698,-1.659,-1.5423,0.0,0.0,0.0,0.0,0.0,0.0,-1.3798,-1.3904,-1.3904,-1.3904,-1.3904,-1.3904,-1.3904,-1.3904,-1.3904,-1.3904,-1.3904,-1.3904,-1.3904,-1.4066,-1.4424,-1.4432,-1.4603,-1.5037,-1.4968,-1.4968,-1.4968,-1.4968,-1.4968,-1.4968,-1.4968,-1.4968,-1.4968,-1.4968,-1.4968,-1.4968,-1.4968,-1.4968,-1.4968,-1.4968,-1.4968,-1.4968,-1.4968,-1.4968,-1.4968,0.0,0.0,0.0,0.0,-2.4053,-2.3777,-2.3365,-2.3188,-2.312,-2.312,-2.3025,-2.3038,-2.324,-2.324,-2.324,-2.324,-2.324,-2.324,-2.324,-2.3038,-2.3173,-2.3644,-2.3173,-2.3038,-2.324,-2.3038,-2.3025,-2.312,-2.312,-2.3175,-2.327,-2.3133,-2.3065,-2.3065,-2.2928,-2.2928,-2.2928,-2.2928,-2.2928,-2.2928,-2.2928,-2.2928,-2.2928,-2.3201,-2.3406,-2.3611,-2.3611,-2.3678,-2.3798,-2.3798,-2.3728,-2.3711,-2.3778,-2.3704,-2.3535,-2.3667,-2.3525,-2.3355,-2.3224,-2.2958,-2.2744,-2.2809,-2.2609,-2.2267,-2.193,-2.1865,-2.167,-2.0811,-1.9948,-1.9118,-1.8405,0.0,0.0,0.0,0.0,0.0,0.0,-1.3863,-1.3904,-1.3904,-1.3904,-1.3904,-1.3904,-1.3904,-1.3904,-1.3904,-1.3904,-1.3904,-1.3904,-1.3904,-1.4066,-1.4424,-1.4432,-1.4603,-1.5037,-1.4968,-1.4968,-1.4968,-1.4968,-1.4968,-1.4968,-1.4968,-1.4968,-1.4968,-1.4968,-1.4968,-1.4968,-1.4968,-1.4968,-1.4968,-1.4968,-1.4968,-1.4968,-1.4968,-1.4968,-1.4968,-2.4075,0.0,0.0,-2.4093,-2.3961,-2.3687,-2.3289,-2.318,-2.3153,-2.3046,-2.3033,-2.3117,-2.3215,-2.3201,-2.3201,-2.3201,-2.3201,-2.3201,-2.3201,-2.2996,-2.3133,-2.3611,-2.3133,-2.2996,-2.3201,-2.2996,-2.2928,-2.2928,-2.2928,-2.2928,-2.2928,-2.2928,-2.2928,-2.2928,-2.2928,-2.2928,-2.2928,-2.2928,-2.2928,-2.2928,-2.2928,-2.2928,-2.2928,-2.2928,-2.2996,-2.3201,-2.3201,-2.3406,-2.3611,-2.3611,-2.3611,-2.3611,-2.3747,-2.3623,-2.3523,-2.3658,-2.3518,-2.3364,-2.3364,-2.3081,-2.2932,-2.313,-2.2915,-2.2766,-2.3042,-2.3042,-2.2976,-2.2569,-2.1832,-2.0788,-1.9472,0.0,0.0,0.0,0.0,0.0,0.0,-1.3904,-1.3904,-1.3904,-1.3904,-1.3904,-1.3904,-1.3904,-1.3904,-1.3904,-1.3904,-1.3904,-1.3904,-1.3961,-1.4131,-1.4424,-1.4497,-1.4667,-1.496,-1.4968,-1.4968,-1.4968,-1.4968,-1.4968,-1.4968,-1.4968,-1.4968,-1.4968,-1.4968,-1.4968,-1.4968,-1.4968,-1.4968,-1.4968,-1.4968,-1.4968,-1.4968,-1.4968,-1.4968,-1.4968,-2.4636,-2.4636,-2.4462,-2.3915,-2.3808,-2.3794,-2.3768,-2.3768,-2.3674,-2.338,-2.3354,-2.3233,-2.2939,-2.2968,-2.2954,-2.2954,-2.2941,-2.2928,-2.2928,-2.2928,-2.2928,-2.2928,-2.2928,-2.2928,-2.2928,-2.2928,-2.2928,-2.2928,-2.2928,-2.2859,-2.2791,-2.2791,-2.2722,-2.2654,-2.2654,-2.2654,-2.2654,-2.2654,-2.2654,-2.2654,-2.2791,-2.2791,-2.2791,-2.2859,-2.2928,-2.2928,-2.2928,-2.2928,-2.2928,-2.2928,-2.2928,-2.2928,-2.327,-2.3406,-2.3475,-2.3816,-2.3966,-2.3966,-2.3966,-2.3742,-2.3451,-2.3518,-2.3294,-2.3004,-2.3004,-2.307,-2.2939,-2.261,-2.2545,-2.1633,-1.8766,-1.8262,0.0,0.0,0.0,0.0,0.0,0.0,-1.3904,-1.3904,-1.3904,-1.3904,-1.3904,-1.3904,-1.3904,-1.3904,-1.3904,-1.3904,0.0,-1.4075,-1.4253,-1.4424,-1.4611,-1.4789,-1.496,-1.4968,-1.4968,-1.4968,-1.4968,-1.4968,-1.4968,-1.4968,-1.4968,-1.4968,-1.4968,-1.4968,-1.4968,-1.4968,-1.4968,-1.4968,-1.4968,-1.4968,-1.4968,-1.4968,-1.4968,-1.4968,-2.4636,-2.4636,-2.4596,-2.4436,-2.4235,-2.4022,-2.3808,-2.3768,-2.3741,-2.3661,-2.3661,-2.3634,-2.3541,-2.334,-2.3207,-2.3207,-2.2993,-2.2928,-2.2928,-2.2928,-2.2928,-2.2928,-2.2928,-2.2928,-2.2928,-2.2928,-2.2928,-2.2928,-2.2928,-2.2297,-2.1183,-2.1183,-2.0629,0.0,0.0,-1.9576,-1.9576,-1.9576,-1.9576,-1.9646,-2.0768,-2.1183,-2.1321,-2.2448,-2.2928,-2.2928,-2.2928,-2.2928,-2.2928,-2.2928,-2.2928,-2.2928,-2.2996,-2.2996,-2.3065,-2.3133,-2.3201,-2.3201,-2.3201,-2.3147,-2.3093,-2.3365,-2.3364,-2.3377,-2.3646,-2.3714,-2.3646,-2.3241,-2.3174,-2.2849,-2.1825,-2.1632,-2.0683,0.0,0.0,0.0,0.0,0.0,-1.3904,-1.3904,-1.3904,-1.3904,-1.3904,-1.3904,-1.3904,-1.3904,-1.3904,-1.3904,-1.3904,-1.4075,-1.4253,-1.4424,-1.4611,-1.4789,-1.496,-1.4968,-1.4968,-1.4968,-1.4968,-1.4968,-1.4968,-1.4968,-1.4968,-1.4968,-1.4968,-1.4968,-1.4968,-1.4968,-1.4968,-1.4968,-1.4968,-1.4968,-1.4968,-1.4968,-1.4968,-1.4968,-2.3661,-2.298,-2.2744,-2.3426,-2.3446,-2.3512,-2.4096,-2.4155,-2.4102,-2.3981,-2.3955,-2.3915,-2.3781,-2.3621,-2.3514,-2.3514,-2.3367,-2.326,-2.326,-2.326,-2.326,-2.326,-2.326,-2.326,-2.326,-2.326,0.0,-2.2186,0.0,-2.1401,-1.9838,-1.9838,0.0,0.0,0.0,-1.862,-1.861,-1.8584,-1.8838,-1.9367,-1.9576,-1.9646,0.0,-2.0617,-2.1321,-2.1885,-2.1885,-2.2297,-2.2928,-2.2928,-2.2928,-2.2928,-2.2928,-2.2928,-2.2928,-2.2928,-2.2928,-2.2928,-2.2928,-2.2928,-2.2928,-2.3133,-2.3201,-2.327,-2.3679,-2.3747,-2.3679,-2.3475,-2.3406,-2.3065,-2.2091,-2.1885,-2.0906,0.0,0.0,0.0,0.0,-1.3904,-1.3904,-1.3904,-1.3904,-1.3904,-1.3904,-1.3904,-1.3904,-1.3904,-1.3904,-1.3904,-1.3904,-1.4148,-1.4335,-1.4432,-1.4684,-1.4871,-1.4968,-1.4968,-1.4968,-1.4968,-1.4968,-1.4968,-1.4968,-1.4968,-1.4968,-1.4968,-1.4968,-1.4968,-1.4968,-1.4968,-1.4968,-1.4968,-1.4968,-1.4968,-1.4968,-1.4968,-1.4968,-1.4968,-2.2223,-2.0789,-2.0263,-2.1613,-2.2073,-2.267,-2.4105,-2.4488,-2.4543,-2.4289,-2.4262,-2.4168,-2.3915,-2.3848,-2.3834,-2.3834,-2.3794,-2.3768,-2.3768,-2.3768,-2.3768,-2.3768,-2.3768,-2.3768,-2.3768,-2.3554,-2.2742,0.0,-2.1066,-2.0188,-1.8571,0.0,0.0,0.0,0.0,0.0,0.0,-1.8156,-1.8812,-1.9679,-1.8617,-1.8195,-1.8195,-1.8406,-1.9248,-2.0378,-2.0342,-2.1427,-2.2928,-2.2928,-2.2928,-2.2928,-2.2928,-2.2928,-2.2928,-2.2928,-2.2928,-2.2928,-2.2928,-2.2928,-2.2928,-2.2928,-2.2928,-2.2996,-2.327,-2.3338,-2.3338,-2.3338,-2.3338,-2.2846,-2.1183,-2.056,-1.9437,0.0,0.0,-1.5381,-1.411,-1.3904,-1.3904,-1.3904,-1.3904,0.0,-1.3904,-1.3904,-1.3904,-1.3904,-1.3904,-1.3912,-1.3937,-1.4253,-1.444,-1.4464,-1.4789,-1.4968,-1.4968,-1.4968,-1.4968,-1.4968,-1.4968,-1.4968,-1.4968,-1.4968,-1.4968,-1.4968,-1.4968,-1.4968,-1.4968,-1.4968,-1.4968,-1.4968,-1.4968,-1.4968,-1.4968,-1.4968,-1.4968,-1.4968,-2.0564,-1.9962,-1.9887,-2.0188,-2.1314,-2.2297,-2.2595,-2.3735,-2.4549,-2.4569,-2.4556,-2.4543,-2.4489,-2.4275,-2.4128,-2.4128,-2.3915,-2.3768,-2.3768,-2.3768,-2.3768,-2.3768,-2.3768,-2.3768,-2.3768,-2.2456,-2.1582,-2.1282,-1.996,-1.8581,-1.7067,-1.7067,0.0,0.0,0.0,0.0,-1.5155,-1.5129,-1.5307,-1.5574,-1.6588,-1.7025,-1.7097,-1.8311,-1.8961,-1.9155,-1.9041,-2.0671,-2.2928,-2.2928,-2.2928,-2.2928,-2.2928,-2.2928,-2.2928,-2.2928,-2.2928,-2.2928,-2.2928,-2.2928,-2.2928,-2.2928,-2.2928,-2.2928,-2.2996,-2.2996,-2.2996,-2.2996,-2.2996,-2.2859,-2.2585,-2.0479,-1.8589,-1.81,-1.5938,-1.4181,-1.3975,-1.3904,-1.3904,-1.3904,-1.3904,-1.3904,-1.3904,-1.3904,-1.3904,-1.3904,-1.3904,-1.3969,-1.4123,-1.4318,-1.4505,-1.4651,-1.4862,-1.4968,-1.4968,-1.4968,-1.4968,-1.4968,-1.4968,-1.4968,-1.4968,-1.4968,-1.4968,-1.4968,-1.4968,-1.4968,-1.4968,-1.4968,-1.4968,-1.4968,-1.4968,-1.4968,-1.4968,-1.4968,-1.4968,-1.4968,-1.8688,-1.7844,-1.7844,-1.951,-1.9736,-2.0564,-2.3054,-2.3426,-2.3661,-2.4488,-2.4636,-2.4636,-2.4636,-2.4516,-2.4422,-2.4422,-2.4302,-2.4222,-2.4222,-2.4222,-2.4222,-2.4222,-2.4222,-2.4222,-2.4222,-2.2581,-2.1396,-2.0513,-1.8874,-1.731,-1.583,-1.583,0.0,-1.4708,0.0,-1.5102,0.0,-1.4869,-1.496,-1.5606,-1.5532,-1.5532,-1.5606,-1.6324,-1.7048,-1.7769,-1.7669,-1.8997,-2.0921,-2.149,-2.1747,-2.1885,-2.2654,-2.2928,-2.2928,-2.2928,-2.2928,-2.2928,-2.2928,-2.2928,-2.2928,-2.2928,-2.2928,-2.2928,-2.2928,-2.2928,-2.2928,-2.2928,-2.2928,-2.2928,-2.2928,-2.1734,-2.0201,-1.8659,-1.7198,-1.5726,-1.411,-1.3904,-1.3904,-1.3904,0.0,0.0,-1.3904,-1.3985,-1.4002,-1.3904,-1.3993,-1.4083,-1.4172,-1.4432,-1.4619,-1.4708,-1.4879,-1.4968,-1.4968,-1.4968,-1.4968,-1.4968,-1.4968,-1.4968,-1.4968,-1.4968,-1.4968,-1.4968,-1.4968,-1.4968,-1.4968,-1.4968,-1.4968,-1.4968,-1.4968,-1.4968,-1.4968,-1.4968,-1.4968,-1.4968,-1.6873,-1.588,-1.5803,-1.8375,-1.8006,-1.8688,-2.2521,-2.2297,-2.2372,-2.4327,-2.4636,-2.4636,-2.4636,-2.4636,-2.4636,-2.4636,-2.4636,-2.4636,-2.4636,-2.4636,-2.4636,-2.4636,-2.4636,-2.4414,-2.4105,-2.2521,-2.0864,-1.9283,-1.7702,-1.6262,-1.4968,-1.4968,0.0,-1.4968,-1.4968,-1.5565,-1.6391,-1.5287,-1.5353,-1.624,-1.4985,-1.4546,-1.4546,-1.4546,-1.5283,-1.6314,-1.6268,-1.7051,-1.8227,-1.939,-1.9947,-2.0425,-2.1641,-2.225,-2.2444,-2.2392,-2.2654,-2.2928,-2.2928,-2.2928,-2.2928,-2.2928,-2.2928,-2.2928,-2.2928,-2.2928,-2.2928,-2.2928,-2.2928,-2.2928,-2.2928,-2.2654,-2.1596,-1.9217,-1.8309,-1.7057,-1.4679,-1.411,-1.3904,-1.3904,0.0,0.0,-1.3961,-1.4123,-1.4172,-1.4026,-1.4148,-1.4253,-1.4286,-1.4554,-1.4724,-1.4765,-1.4895,-1.4968,-1.4968,-1.4968,-1.4968,-1.4968,-1.4968,-1.4968,-1.4968,-1.4968,-1.4968,-1.4968,-1.4968,-1.4968,-1.4968,-1.4968,-1.4968,-1.4968,-1.4968,-1.4968,-1.4968,-1.4968,-1.4968,-1.4968,-1.519,-1.5113,-1.5113,-1.542,-1.6568,-1.7559,-1.8006,-1.9208,-2.1164,-2.4179,-2.4636,-2.4636,-2.4636,-2.4636,-2.4636,-2.4636,-2.4636,-2.4636,-2.4636,-2.4636,-2.4636,-2.4636,-2.4636,-2.3957,-2.2446,-2.0864,-1.9208,-1.7626,-1.6033,-1.5113,-1.4968,-1.4968,-1.4968,-1.4968,-1.4968,-1.5105,-1.5165,-1.502,-1.5004,-1.5141,-1.4988,-1.4919,-1.4919,-1.4919,-1.5064,-1.5124,-1.4959,-1.4977,-1.5319,-1.6646,-1.7937,-1.9055,-1.9063,-1.9991,-2.1072,-2.0841,-2.1816,-2.2928,-2.2928,-2.2928,-2.2928,-2.2928,-2.2928,-2.2928,-2.2928,-2.2928,-2.2928,-2.2928,-2.2928,-2.2928,-2.2928,-2.1747,-2.0698,-2.0421,-1.811,-1.6221,-1.5938,-1.4742,-1.3904,-1.3904,0.0,0.0,-1.4156,-1.431,-1.4399,-1.4383,-1.4399,-1.4481,-1.4651,-1.4692,-1.4781,-1.4935,-1.496,-1.4968,-1.4968,-1.4968,-1.4968,-1.4968,-1.4968,-1.4968,-1.4968,-1.4968,-1.4968,-1.4968,-1.4968,-1.4968,-1.4968,-1.4968,-1.4968,-1.4968,-1.4968,-1.4968,-1.4968,-1.4968,-1.4968,-1.4968,-1.519,-1.4968,-1.5267,-1.6262,-1.6186,-1.6635,-1.8527,-1.8537,-1.9132,-2.14,-2.17,-2.2073,-2.3054,-2.3129,-2.3574,-2.4488,-2.4636,-2.4636,-2.4636,-2.4636,-2.4179,-2.3203,-2.4105,-2.3426,-2.0789,-2.0113,-1.8981,-1.7407,-1.5803,-1.4968,-1.4968,-1.4968,-1.4968,-1.4968,-1.4968,-1.4968,-1.4968,-1.4968,-1.4968,-1.4968,-1.4968,-1.4968,-1.4968,-1.4968,-1.4968,-1.496,-1.4887,-1.4862,-1.4922,-1.553,-1.6536,-1.7696,-1.8549,-1.9238,-1.9863,-2.0781,-2.0746,-2.0946,-2.2902,-2.2691,-2.2147,-2.2971,-2.314,-2.3086,-2.2968,-2.2928,-2.2928,-2.2928,-2.2928,-2.2928,-2.2928,-2.1678,-2.0283,-1.9437,-1.7591,-1.5981,-1.5067,-1.4511,-1.4221,-1.4221,0.0,-1.4326,-1.4326,-1.4489,-1.4594,-1.4594,-1.4594,-1.4627,-1.4708,-1.4806,-1.4895,-1.496,-1.4968,-1.4968,-1.4968,-1.4968,-1.4968,-1.4968,-1.4968,-1.4968,-1.4968,-1.4968,-1.4968,-1.4968,-1.4968,-1.4968,-1.4968,-1.4968,-1.4968,-1.4968,-1.4968,-1.4968,-1.4968,-1.4968,-1.4968,-1.4968,-1.519,-1.4968,-1.5344,-1.6492,-1.5727,-1.5803,-1.8072,-1.7398,-1.7093,-1.8224,-1.8375,-1.9208,-2.1239,-2.1475,-2.1924,-2.3129,-2.3661,-2.3648,-2.3203,-2.4105,-2.3661,-2.1625,-2.35,-2.2893,-1.9132,-1.9585,-1.8754,-1.6721,-1.5573,-1.4968,-1.4968,-1.4968,-1.4968,-1.4968,-1.4968,-1.4968,-1.4968,-1.4968,-1.4968,-1.4968,-1.4968,-1.4968,-1.4968,-1.4968,-1.4968,-1.4968,-1.4968,-1.4968,-1.4968,-1.4968,-1.5547,-1.635,-1.7384,-1.7943,-1.8519,-1.9631,-1.9453,-1.938,-2.1713,-2.1498,-2.0803,-2.1765,-2.2011,-2.1948,-2.1747,-2.2058,-2.2419,-2.2419,-2.2058,-2.1697,-2.1697,-2.0859,-1.9794,-1.8725,-1.7377,-1.6122,-1.5048,-1.4645,-1.4432,-1.4432,-1.4481,-1.4513,-1.4513,-1.4676,-1.4781,-1.4781,-1.4781,-1.4781,-1.4781,-1.4903,-1.4968,-1.4968,-1.4968,-1.4968,-1.4968,-1.4968,-1.4968,-1.4968,-1.4968,-1.4968,-1.4968,-1.4968,-1.4968,-1.4968,-1.4968,-1.4968,-1.4968,-1.4968,-1.4968,-1.4968,-1.4968,-1.4968,-1.4968,-1.4968,-1.4968,-1.4968,-1.4968,-1.4968,-1.5045,-1.5045,-1.5045,-1.5045,-1.5045,-1.5045,-1.5045,-1.5045,-1.5045,-1.6254,-1.951,-1.9811,-1.9811,-1.9887,-2.1314,-2.155,-1.9962,-2.2819,-2.3203,-1.9962,-2.2905,-2.2372,-1.755,-1.8981,-1.8224,-1.5045,-1.5045,-1.4968,-1.4968,-1.4968,-1.4968,-1.4968,-1.4968,-1.4968,-1.4968,-1.4968,-1.4968,-1.4968,-1.4968,-1.4968,-1.4968,-1.4968,-1.4968,-1.4968,-1.4968,-1.4968,-1.4968,-1.4968,-1.5037,-1.5004,-1.4833,-1.5737,-1.688,-1.6757,-1.7789,-1.8934,-1.8934,-1.8934,-1.8934,-1.8934,-1.8934,-1.8934,-1.8934,-2.0177,-2.1354,-2.1354,-2.0032,-1.8923,-1.8923,-1.8934,-1.8923,-1.8934,-1.7633,-1.67,-1.67,-1.5385,-1.4432,-1.4432,-1.4594,-1.4708,-1.4708,-1.4862,-1.496,-1.496,-1.496,-1.496,-1.496,-1.496,-1.4968,-1.4968,-1.4968,-1.4968,-1.4968,-1.4968,-1.4968,-1.4968,-1.4968,-1.4968,-1.4968,-1.4968,-1.4968,-1.4968,-1.4968,-1.4968,-1.4968,-1.4968,-1.4968,-1.4968,-1.4968,-1.4968,-1.4968,-1.4968,-1.4968,-1.4968,-1.5198,-1.4968,-1.4968,-1.4968,-1.4968,-1.4968,-1.4968,-1.4968,-1.4968,-1.4968,-1.4968,-1.542,-1.6406,-1.755,-1.8613,-1.9661,-2.0263,-2.0338,-1.9811,-2.0789,-2.0414,-1.8234,-2.0188,-1.9585,-1.588,-1.7321,-1.7093,-1.4968,-1.4968,-1.4968,-1.4968,-1.4968,-1.4968,-1.4968,-1.4968,-1.4968,-1.4968,-1.4968,-1.4968,-1.4968,-1.4968,-1.4968,-1.4968,-1.4968,-1.4968,-1.4968,-1.4968,-1.4968,-1.4968,-1.4968,-1.4968,-1.496,-1.4903,-1.526,-1.5844,-1.6841,-1.6747,-1.6738,-1.8914,-1.869,-1.8136,-1.9012,-1.9275,-1.9148,-1.8977,-1.9308,-1.967,-1.967,-1.9235,-1.8861,-1.8861,-1.8071,-1.7424,-1.7424,-1.6231,-1.5368,-1.5368,-1.5018,-1.4797,-1.4797,-1.4846,-1.4887,-1.4887,-1.4935,-1.4968,-1.4968,-1.4968,-1.4968,-1.4968,-1.4968,-1.4968,-1.4968,-1.4968,-1.4968,-1.4968,-1.4968,-1.4968,-1.4968,-1.4968,-1.4968,-1.4968,-1.4968,-1.4968,-1.4968,-1.4968,-1.4968,-1.4968,-1.4968,-1.4968,-1.4968,-1.4968,-1.4968,-1.4968,-1.4968,-1.4968,-1.4968,-1.5198,-1.4968,-1.4968,-1.4968,-1.4968,-1.4968,-1.4968,-1.4968,-1.4968,-1.4968,-1.4968,-1.4968,-1.4968,-1.588,-1.6864,-1.792,-1.8527,-1.8603,-1.8072,-1.9132,-1.883,-1.6568,-1.8603,-1.8299,-1.5045,-1.6568,-1.6644,-1.4968,-1.4968,-1.4968,-1.4968,-1.4968,-1.4968,-1.4968,-1.4968,-1.4968,-1.4968,-1.4968,-1.4968,-1.4968,-1.4968,-1.4968,-1.4968,-1.4968,-1.4968,-1.4968,-1.4968,-1.4968,-1.4968,-1.4968,-1.4968,-1.4968,-1.4968,-1.4968,-1.5198,-1.6186,-1.5803,-1.542,-1.7464,-1.7245,-1.6684,-1.7538,-1.7725,-1.7836,-1.8282,-1.7882,-1.7585,-1.8178,-1.7882,-1.7437,-1.7437,-1.6703,-1.6041,-1.6041,-1.5328,-1.4806,-1.4806,-1.4895,-1.4968,-1.4968,-1.4968,-1.4968,-1.4968,-1.4968,-1.4968,-1.4968,-1.4968,-1.4968,-1.4968,-1.4968,-1.4968,-1.4968,-1.4968,-1.4968,-1.4968,-1.4968,-1.4968,-1.4968,-1.4968,-1.4968,-1.4968,-1.4968,-1.4968,-1.4968,-1.4968,-1.4968,-1.4968,-1.4968,-1.4968,-1.4968,-1.4968,-1.4968,-1.4968,-1.4968,-1.4968,-1.4968,-1.4968,-1.4968,-1.4968,-1.4968,-1.4968,-1.4968,-1.4968,-1.4968,-1.4968,-1.4968,-1.4968,-1.4968,-1.4968,-1.4968,-1.4968,-1.4968,-1.6339,-1.6568,-1.5122,-1.7768,-1.8148,-1.5113,-1.7844,-1.8072,-1.5045,-1.6492,-1.6492,-1.4968,-1.4968,-1.4968,-1.4968,-1.4968,-1.4968,-1.4968,-1.4968,-1.4968,-1.4968,-1.4968,-1.4968,-1.4968,-1.4968,-1.4968,-1.4968,-1.4968,-1.4968,-1.4968,-1.4968,-1.4968,-1.4968,-1.4968,-1.4968,-1.4968,-1.4968,-1.4968,-1.4968,-1.4968,-1.4968,-1.4968,-1.4968,-1.4968,-1.4968,-1.4968,-1.4968,-1.542,-1.6873,-1.6109,-1.542,-1.695,-1.6033,-1.4968,-1.4968,-1.4968,-1.4968,-1.4968,-1.4968,-1.4968,-1.4968,-1.4968,-1.4968,-1.4968,-1.4968,-1.4968,-1.4968,-1.4968,-1.4968,-1.4968,-1.4968,-1.4968,-1.4968,-1.4968,-1.4968,-1.4968,-1.4968,-1.4968,-1.4968,-1.4968,-1.4968,-1.4968,-1.4968,-1.4968,-1.4968,-1.4968,-1.4968,-1.4968,-1.4968,-1.4968,-1.4968,-1.4968,-1.4968,-1.4968,-1.4968,-1.4968,-1.4968,-1.4968,-1.4968,-1.4968,-1.4968,-1.4968,-1.4968,-1.4968,-1.4968,-1.4968,-1.4968,-1.4968,-1.4968,-1.4968,-1.4968,-1.4968,-1.4968,-1.4968,-1.4968,-1.4968,-1.5344,-1.542,-1.5045,-1.5727,-1.5803,-1.5045,-1.5727,-1.5803,-1.5045,-1.5344,-1.5344,-1.4968,-1.4968,-1.4968,-1.4968,-1.4968,-1.4968,-1.4968,-1.4968,-1.4968,-1.4968,-1.4968,-1.4968,-1.4968,-1.4968,-1.4968,-1.4968,-1.4968,-1.4968,-1.4968,-1.4968,-1.4968,-1.4968,-1.4968,-1.4968,-1.4968,-1.4968,-1.4968,-1.4968,-1.4968,-1.4968,-1.4968,-1.4968,-1.4968,-1.4968,-1.4968,-1.4968,-1.5122,-1.5497,-1.5267,-1.5122,-1.5497,-1.5267,-1.4968,-1.4968,-1.4968,-1.4968,-1.4968,-1.4968,-1.4968,-1.4968,-1.4968,-1.4968,-1.4968,-1.4968,-1.4968,-1.4968,-1.4968,-1.4968,-1.4968,-1.4968,-1.4968,-1.4968,-1.4968,-1.4968,-1.4968,-1.4968,-1.4968,-1.4968,-1.4968,-1.4968,-1.4968,-1.4968,-1.4968,-1.4968,-1.4968,-1.4968,-1.4968,-1.4968,-1.4968,-1.4968,-1.4968,-1.4968,-1.4968,-1.4968,-1.4968,-1.4968,-1.4968,-1.4968,-1.4968,-1.4968,-1.4968,-1.4968,-1.4968,-1.4968,-1.4968,-1.4968,-1.4968,-1.4968,-1.4968,-1.4968,-1.4968,-1.4968,-1.4968,-1.4968,-1.4968,-1.4968,-1.4968,-1.4968,-1.4968,-1.4968,-1.4968,-1.4968,-1.4968,-1.4968,-1.4968,-1.4968,-1.4968,-1.4968,-1.4968,-1.4968,-1.4968,-1.4968,-1.4968,-1.4968,-1.4968,-1.4968,-1.4968,-1.4968,-1.4968,-1.4968,-1.4968,-1.4968,-1.4968,-1.4968,-1.4968,-1.4968,-1.4968,-1.4968,-1.4968,-1.4968,-1.4968,-1.4968,-1.4968,-1.4968,-1.4968,-1.4968,-1.4968,-1.4968,-1.4968,-1.4968,-1.4968,-1.4968,-1.4968,-1.4968,-1.4968,-1.4968,-1.4968,-1.4968,-1.4968,-1.4968,-1.4968,-1.4968,-1.4968,-1.4968,-1.4968,-1.4968,-1.4968,-1.4968,-1.4968,-1.4968,-1.4968,-1.4968,-1.4968,-1.4968,-1.4968,-1.4968,-1.4968,-1.4968,-1.4968,-1.4968,-1.4968,-1.4968,-1.4968,-1.4968,-1.4968,-1.4968,-1.4968,-1.4968,-1.4968,-1.4968,-1.4968,-1.4968,-1.4968,-1.4968,-1.4968,-1.4968,-1.4968,-1.4968,-1.4968,-1.4968,-1.4968,-1.4968,-1.4968,-1.4968,-1.4968,-1.4968,-1.4968,-1.4968,-1.4968,-1.4968,-1.4968,-1.4968,-1.4968,-1.4968,-1.4968,-1.4968,-1.4968,-1.4968,-1.4968,-1.4968,-1.4968,-1.4968,-1.4968,-1.4968,-1.4968,-1.4968,-1.4968,-1.4968,-1.4968,-1.4968,-1.4968,-1.4968,-1.4968,-1.4968,-1.4968,-1.4968,-1.4968,-1.4968,-1.4968,-1.4968,-1.4968,-1.4968,-1.4968,-1.4968,-1.4968,-1.4968,-1.4968,-1.4968,-1.4968,-1.4968,-1.4968,-1.4968,-1.4968,-1.4968,-1.4968,-1.4968,-1.4968,-1.4968,-1.4968,-1.4968,-1.4968,-1.4968,-1.4968,-1.4968,-1.4968,-1.4968,-1.4968,-1.4968,-1.4968,-1.4968,-1.4968,-1.4968,-1.4968,-1.4968,-1.4968,-1.4968,-1.4968,-1.4968,-1.4968,-1.4968,-1.4968,-1.4968,-1.4968,-1.4968,-1.4968,-1.4968,-1.4968,-1.4968,-1.4968,-1.4968,-1.4968,-1.4968,-1.4968,-1.4968,-1.4968,-1.4968,-1.4968,-1.4968,-1.4968,-1.4968,-1.4968,-1.4968,-1.4968,-1.4968,-1.4968,-1.4968,-1.4968,-1.4968,-1.4968,-1.4968,-1.4968,-1.4968,-1.4968,-1.4968,-1.4968,-1.4968,-1.4968,-1.4968,-1.4968,-1.4968,-1.4968,-1.4968,-1.4968,-1.4968,-1.4968,-1.4968,-1.4968,-1.4968,-1.4968,-1.4968,-1.4968,-1.4968,-1.4968,-1.4968,-1.4968,-1.4968,-1.4968,-1.4968,-1.4968,-1.4968,-1.4968,-1.4968,-1.4968,-1.4968,-1.4968,-1.4968,-1.4968,-1.4968,-1.4968,-1.4968,-1.4968,-1.4968,-1.4968,-1.4968,-1.4968,-1.4968,-1.4968,-1.4968,-1.4968,-1.4968,-1.4968,-1.4968,-1.4968,-1.4968,-1.4968,-1.4968,-1.4968,-1.4968,-1.4968,-1.4968,-1.4968,-1.4968,-1.4968,-1.4968,-1.4968,-1.4968,-1.4968,-1.4968,-1.4968,-1.4968,-1.4968,-1.4968,-1.4968,-1.4968,-1.4968,-1.4968,-1.4968,-1.4968,-1.4968,-1.4968,-1.4968,-1.4968,-1.4968,-1.4968,-1.4968,-1.4968,-1.4968,-1.4968,-1.4968,-1.4968,-1.4968,-1.4968,-1.4968,-1.4968,-1.4968,-1.4968,-1.4968,-1.4968,-1.4968,-1.4968,-1.4968,-1.4968,-1.4968,-1.4968,-1.4968,-1.4968,-1.4968,-1.4968,-1.4968,-1.4968,-1.4968,-1.4968,-1.4968,-1.4968,-1.4968,-1.4968,-1.4968,-1.4968,-1.4968,-1.4968,-1.4968,-1.4968,-1.4968,-1.4968,-1.4968,-1.4968,-1.4968,-1.4968,-1.4968,-1.4968,-1.4968,-1.4968,-1.4968,-1.4968,-1.4968,-1.4968,-1.4968,-1.4968,-1.4968,-1.4968,-1.4968,-1.4968,-1.4968,-1.4968,-1.4968,-1.4968,-1.4968,-1.4968,-1.4968,-1.4968,-1.4968,-1.4968,-1.4968,-1.4968,-1.4968,-1.4968,-1.4968,-1.4968,-1.4968,-1.4968,-1.4968,-1.4968,-1.4968,-1.4968,-1.4968,-1.4968,-1.4968,-1.4968,-1.4968,-1.4968,-1.4968,-1.4968,-1.4968,-1.4968,-1.4968,-1.4968,-1.4968,-1.4968,-1.4968,-1.4968,-1.4968,-1.4968,-1.4968,-1.4968,-1.4968,-1.4968,-1.4968,-1.4968,-1.4968,-1.4968,-1.4968,-1.4968,-1.4968,-1.4968,-1.4968,-1.4968,-1.4968,-1.4968,-1.4968,-1.4968,-1.4968,-1.4968,-1.4968,-1.4968,-1.4968,-1.4968,-1.4968,-1.4968,-1.4968,-1.4968,-1.4968,-1.4968,-1.4968,-1.4968,-1.4968,-1.4968,-1.4968,-1.4968,-1.4968,-1.4968,-1.4968,-1.4968,-1.4968,-1.4968,-1.4968,-1.4968,-1.4968,-1.4968,-1.4968,-1.4968,-1.4968,-1.4968,-1.4968,-1.4968,-1.4968,-1.4968,-1.4968,-1.4968,-1.4968,-1.4968,-1.4968,-1.4968,-1.4968,-1.4968,-1.4968,-1.4968,-1.4968,-1.4968,-1.4968,-1.4968,-1.4968,-1.4968,-1.4968,-1.4968,-1.4968,-1.4968,-1.4968,-1.4968,-1.4968,-1.4968,-1.4968,-1.4968,-1.4968,-1.4968,-1.4968,-1.4968,-1.4968,-1.4968,-1.4968,-1.4968,-1.4968,-1.4968,-1.4968,-1.4968,-1.4968,-1.4968,-1.4968,-1.4968,-1.4968,-1.4968,-1.4968,-1.4968,-1.4968,-1.4968,-1.4968,-1.4968,-1.4968,-1.4968,-1.4968,-1.4968,-1.4968,-1.4968,-1.4968,-1.4968,-1.4968,-1.4968,-1.4968,-1.4968,-1.4968,-1.4968,-1.4968,-1.4968,-1.4968,-1.4968,-1.4968,-1.4968,-1.4968,-1.4968,-1.4968,-1.4968,-1.4968,-1.4968,-1.4968,-1.4968,-1.4968,-1.4968,-1.4968,-1.4968,-1.4968,-1.4968,-1.4968,-1.4968,-1.4968,-1.4968,-1.4968,-1.4968,-1.4968,-1.4968,-1.4968,-1.4968,-1.4968,-1.4968,-1.4968,-1.4968,-1.4968,-1.4968,-1.4968,-1.4968,-1.4968,-1.4968,-1.4968,-1.4968,-1.4968,-1.4968,-1.4968,-1.4968,-1.4968,-1.4968,-1.4968,-1.4968,-1.4968,-1.4968,-1.4968,-1.4968,-1.4968,-1.4968,-1.4968,-1.4968,-1.4968,-1.4968,-1.4968,-1.4968,-1.4968,-1.4968,-1.4968,-1.4968,-1.4968,-1.4968,-1.4968,-1.4968,-1.4968,-1.4968,-1.4968,-1.4968,-1.4968,-1.4968,-1.4968,-1.4968,-1.4968,-1.4968,-1.4968,-1.4968,-1.4968,-1.4968,-1.4968,-1.4968,-1.4968,-1.4968,-1.4968,-1.4968,-1.4968,-1.4968,-1.4968,-1.4968,-1.4968,-1.4968,-1.4968,-1.4968,-1.4968,-1.4968,-1.4968,-1.4968,-1.4968,-1.4968,-1.4968,-1.4968,-1.4968,-1.4968,-1.4968,-1.4968,-1.4968,-1.4968,-1.4968,-1.4968,-1.4968,-1.4968,-1.4968,-1.4968,-1.4968,-1.4968,-1.4968,-1.4968,-1.4968,-1.4968,-1.4968,-1.4968,-1.4968,-1.4968,-1.4968,-1.4968,-1.4968,-1.4968,-1.4968,-1.4968,-1.4968,-1.4968,-1.4968,-1.4968,-1.4968,-1.4968,-1.4968,-1.4968,-1.4968,-1.4968,-1.4968,-1.4968,-1.4968,-1.4968,-1.4968,-1.4968,-1.4968,-1.4968,-1.4968,-1.4968,-1.4968,-1.4968,-1.4968,-1.4968,-1.4968,-1.4968,-1.4968,-1.4968,-1.4968,-1.4968,-1.4968,-1.4968,-1.4968,-1.4968,-1.4968,-1.4968,-1.4968,-1.4968,-1.4968,-1.4968,-1.4968,-1.4968,-1.4968,-1.4968,-1.4968,-1.4968,-1.4968,-1.4968,-1.4968,-1.4968,-1.4968,-1.4968,-1.4968,-1.4968,-1.4968,-1.4968,-1.4968,-1.4968,-1.4968,-1.4968,-1.4968,-1.4968,-1.4968,-1.4968,-1.4968,-1.4968,-1.4968,-1.4968,-1.4968,-1.4968,-1.4968,-1.4968,-1.4968,-1.4968,-1.4968,-1.4968,-1.4968,-1.4968,-1.4968,-1.4968,-1.4968,-1.4968,-1.4968,-1.4968,-1.4968,-1.4968,-1.4968,-1.4968,-1.4968,-1.4968,-1.4968,-1.4968,-1.4968,-1.4968,-1.4968,-1.4968,-1.4968,-1.4968,-1.4968,-1.4968,-1.4968,-1.4968,-1.4968,-1.4968,-1.4968,-1.4968,-1.4968,-1.4968,-1.4968,-1.4968,-1.4968,-1.4968,-1.4968,-1.4968,-1.4968,-1.4968,-1.4968,-1.4968,-1.4968,-1.4968,-1.4968,-1.4968,-1.4968,-1.4968,-1.4968,-1.4968,-1.4968,-1.4968,-1.4968,-1.4968,-1.4968,-1.4968,-1.4968,-1.4968,-1.4968,-1.4968,-1.4968,-1.4968,-1.4968,-1.4968,-1.4968,-1.4968,-1.4968,-1.4968,-1.4968,-1.4968,-1.4968,-1.4968,-1.4968,-1.4968,-1.4968,-1.4968,-1.4968,-1.4968,-1.4968,-1.4968,-1.4968,-1.4968,-1.4968,-1.4968,-1.4968,-1.4968,-1.4968,-1.4968,-1.4968,-1.4968,-1.4968,-1.4968,-1.4968,-1.4968,-1.4968,-1.4968,-1.4968,-1.4968,-1.4968,-1.4968,-1.4968,-1.4968,-1.4968,-1.4968,-1.4968,-1.4968,-1.4968,-1.4968,-1.4968,-1.4968,-1.4968,-1.4968,-1.4968,-1.4968,-1.4968,-1.4968,-1.4968,-1.4968,-1.4968,-1.4968,-1.4968,-1.4968,-1.4968,-1.4968,-1.4968,-1.4968,-1.4968,-1.4968,-1.4968,-1.4968,-1.4968,-1.4968,-1.4968,-1.4968,-1.4968,-1.4968,-1.4968,-1.4968,-1.4968,-1.4968,-1.4968,-1.4968,-1.4968,-1.4968,-1.4968,-1.4968,-1.4968,-1.4968,-1.4968,-1.4968,-1.4968,-1.4968,-1.4968,-1.4968,-1.4968,-1.4968,-1.4968,-1.4968,-1.4968,-1.4968,-1.4968,-1.4968,-1.4968,-1.4968,-1.4968,-1.4968,-1.4968,-1.4968,-1.4968,-1.4968,-1.4968,-1.4968,-1.4968,-1.4968,-1.4968,-1.4968,-1.4968,-1.4968,-1.4968,-1.4968,-1.4968,-1.4968,-1.4968,-1.4968,-1.4968,-1.4968,-1.4968,-1.4968,-1.4968,-1.4968,-1.4968,-1.4968,-1.4968,-1.4968,-1.4968,-1.4968,-1.4968,-1.4968,-1.4968,-1.4968,-1.4968,-1.4968,-1.4968,-1.4968,-1.4968,-1.4968,-1.4968,-1.4968,-1.4968,-1.4968,-1.4968,-1.4968,-1.4968,-1.4968,-1.5045,-1.5045,-1.5045,-1.5045,-1.5045,-1.5045,-1.4968,-1.4968,-1.4968,-1.4968,-1.4968,-1.4968,-1.4968,-1.4968,-1.4968,-1.4968,-1.4968,-1.4968,-1.4968,-1.4968,-1.4968,-1.4968,-1.4968,-1.4968,-1.4968,-1.4968,-1.4968,-1.4968,-1.4968,-1.4968,-1.4968,-1.4968,-1.4968,-1.4968,-1.4968,-1.4968,-1.4968,-1.4968,-1.4968,-1.4968,-1.4968,-1.4968,-1.4968,-1.4968,-1.4968,-1.4968,-1.4968,-1.4968,-1.4968,-1.4968,-1.4968,-1.4968,-1.4968,-1.4968,-1.4968,-1.4968,-1.4968,-1.4968,-1.4968,-1.4968,-1.4968,-1.4968,-1.4968,-1.4968,-1.4968,-1.4968,-1.4968,-1.4968,-1.4968,-1.4968,-1.4968,-1.4968,-1.4968,-1.4968,-1.4968,-1.4968,-1.4968,-1.4968,-1.4968,-1.4968,-1.4968,-1.4968,-1.4968,-1.4968,-1.4968,-1.4968,-1.4968,-1.4968,-1.4968,-1.4968,-1.4968,-1.4968,-1.4968,-1.4968,-1.4968,-1.4968,-1.4968,-1.4968,-1.4968,-1.4968,-1.4968,-1.4968,-1.4968,-1.4968,-1.4968,-1.4968,-1.4968,-1.4968,-1.4968,-1.4968,-1.4968,-1.4968,-1.4968,-1.4968,-1.4968,-1.4968,-1.5497,-1.6644,-1.565,-1.5497,-1.6644,-1.5573,-1.4968,-1.4968,-1.4968,-1.4968,-1.4968,-1.4968,-1.4968,-1.4968,-1.4968,-1.4968,-1.4968,-1.4968,-1.4968,-1.4968,-1.4968,-1.4968,-1.4968,-1.4968,-1.4968,-1.4968,-1.4968,-1.4968,-1.4968,-1.4968,-1.4968,-1.4968,-1.4968,-1.4968,-1.4968,-1.4968,-1.4968,-1.4968,-1.4968,-1.4968,-1.4968,-1.4968,-1.4968,-1.4968,-1.4968,-1.4968,-1.4968,-1.4968,-1.4968,-1.4968,-1.4968,-1.4968,-1.4968,-1.4968,-1.4968,-1.4968,-1.4968,-1.4968,-1.4968,-1.4968,-1.4968,-1.4968,-1.4968,-1.4968,-1.4968,-1.4968,-1.4968,-1.4968,-1.4968,-1.4968,-1.4968,-1.4968,-1.4968,-1.4968,-1.4968,-1.4968,-1.4968,-1.4968,-1.4968,-1.4968,-1.4968,-1.4968,-1.4968,-1.4968,-1.4968,-1.4968,-1.4968,-1.4968,-1.4968,-1.4968,-1.4968,-1.4968,-1.4968,-1.4968,-1.4968,-1.4968,-1.4968,-1.4968,-1.4968,-1.4968,-1.4968,-1.4968,-1.4968,-1.4968,-1.4968,-1.4968,-1.4968,-1.4968,-1.4968,-1.5573,-1.5727,-1.5045,-1.5573,-1.565,-1.5045,-1.5573,-1.6339,-1.7331,-1.7093,-1.7321,-1.8309,-1.7398,-1.633,-1.5045,-1.4968,-1.4968,-1.4968,-1.4968,-1.4968,-1.4968,-1.4968,-1.4968,-1.4968,-1.4968,-1.4968,-1.4968,-1.4968,-1.4968,-1.4968,-1.4968,-1.4968,-1.4968,-1.4968,-1.4968,-1.4968,-1.4968,-1.4968,-1.4968,-1.4968,-1.4968,-1.4968,-1.4968,-1.4968,-1.4968,-1.4968,-1.4968,-1.4968,-1.4968,-1.4968,-1.4968,-1.4968,-1.4968,-1.4968,-1.4968,-1.4968,-1.4968,-1.4968,-1.4968,-1.4968,-1.4968,-1.4968,-1.4968,-1.4968,-1.4968,-1.4968,-1.4968,-1.4968,-1.4968,-1.4968,-1.4968,-1.4968,-1.4968,-1.4968,-1.4968,-1.4968,-1.4968,-1.4968,-1.4968,-1.4968,-1.4968,-1.4968,-1.4968,-1.4968,-1.4968,-1.4968,-1.4968,-1.4968,-1.4968,-1.4968,-1.4968,-1.4968,-1.4968,-1.4968,-1.4968,-1.4968,-1.4968,-1.4968,-1.4968,-1.4968,-1.4968,-1.4968,-1.4968,-1.4968,-1.4968,-1.4968,-1.519,-1.5122,-1.4968,-1.4968,-1.4968,-1.4968,-1.4968,-1.4968,-1.4968,-1.4968,-1.6262,-1.6644,-1.5198,-1.6339,-1.6568,-1.5122,-1.6339,-1.7331,-1.7626,-1.884,-1.9736,-1.9962,-1.9887,-1.8451,-1.5497,-1.542,-1.542,-1.542,-1.542,-1.542,-1.542,-1.5267,-1.5198,-1.5198,-1.5045,-1.4968,-1.4968,-1.4968,-1.4968,-1.4968,-1.4968,-1.4968,-1.4968,-1.4968,-1.4968,-1.4968,-1.4968,-1.4968,-1.4968,-1.4968,-1.4968,-1.4968,-1.4968,-1.4968,-1.4968,-1.4968,-1.4968,-1.4968,-1.4968,-1.4968,-1.4968,-1.4968,-1.4968,-1.4968,-1.4968,-1.4968,-1.4968,-1.4968,-1.4968,-1.4968,-1.4968,-1.4968,-1.4968,-1.4968,-1.4968,-1.4968,-1.4968,-1.4968,-1.4968,-1.4968,-1.4968,-1.4968,-1.4968,-1.4968,-1.4968,-1.4968,-1.4968,-1.4968,-1.4968,-1.4968,-1.4968,-1.4968,-1.4968,-1.4968,-1.4968,-1.4968,-1.4968,-1.4968,-1.4968,-1.4968,-1.4968,-1.4968,-1.4968,-1.4968,-1.4968,-1.4968,-1.4968,-1.4968,-1.4968,-1.4968,-1.4968,-1.4968,-1.4968,-1.4968,-1.4968,-1.4968,-1.6644,-1.588,-1.4968,-1.4968,-1.4968,-1.4968,-1.4968,-1.4968,-1.4968,-1.4968,-1.5267,-1.542,-1.5045,-1.5344,-1.5344,-1.5045,-1.5344,-1.6559,-1.9132,-1.8461,-1.9057,-2.1538,-2.0489,-1.9434,-1.8754,-1.8754,-1.8754,-1.8754,-1.8754,-1.8754,-1.8754,-1.7474,-1.6873,-1.6797,-1.5573,-1.4968,-1.4968,-1.4968,-1.4968,-1.4968,-1.4968,-1.4968,-1.4968,-1.4968,-1.4968,-1.4968,-1.4968,-1.4968,-1.4968,-1.4968,-1.4968,-1.4968,-1.4968,-1.4968,-1.4968,-1.4968,-1.4968,-1.4968,-1.4968,-1.4968,-1.4968,-1.4968,-1.4968,-1.4968,-1.4968,-1.4968,-1.4968,-1.4968,-1.4968,-1.4968,-1.4968,-1.4968,-1.4968,-1.4968,-1.4968,-1.4968,-1.4968,-1.4968,-1.4968,-1.4968,-1.4968,-1.4968,-1.4968,-1.4968,-1.4968,-1.4968,-1.4968,-1.4968,-1.4968,-1.4968,-1.4968,-1.4968,-1.4968,-1.4968,-1.4968,-1.4968,-1.4968,-1.4968,-1.4968,-1.4968,-1.4968,-1.4968,-1.4968,-1.4968,-1.4968,-1.4968,-1.4968,-1.4968,-1.4968,-1.4968,-1.4968,-1.4968,-1.4968,-1.4968,-1.4968,-1.4968,-1.7407,-1.6721,-1.588,-1.5122,-1.4968,-1.4968,-1.4968,-1.4968,-1.4968,-1.4968,-1.565,-1.588,-1.5045,-1.565,-1.5803,-1.5045,-1.5727,-1.6864,-1.8527,-1.9283,-2.0414,-2.2148,-2.2148,-2.2073,-2.2073,-2.2073,-2.1314,-1.9811,-1.9811,-1.9811,-1.9811,-1.8905,-1.8537,-1.8537,-1.7702,-1.6864,-1.6109,-1.6109,-1.5727,-1.4968,-1.4968,-1.4968,-1.4968,-1.4968,-1.4968,-1.4968,-1.4968,-1.4968,-1.4968,-1.4968,-1.4968,-1.4968,-1.4968,-1.4968,-1.4968,-1.4968,-1.4968,-1.4968,-1.4968,-1.4968,-1.4968,-1.4968,-1.4968,-1.4968,-1.4968,-1.4968,-1.4968,-1.4968,-1.4968,-1.4968,-1.4968,-1.4968,-1.4968,-1.4968,-1.4968,-1.4968,-1.4968,-1.4968,-1.4968,-1.4968,-1.4968,-1.4968,-1.4968,-1.4968,-1.4968,-1.4968,-1.4968,-1.4968,-1.4968,-1.4968,-1.4968,-1.4968,-1.4968,-1.4968,-1.4968,-1.4968,-1.4968,-1.4968,-1.4968,-1.4968,-1.4968,-1.4968,-1.4968,-1.4968,-1.4968,-1.4968,-1.4968,-1.4968,-1.4968,-1.4968,-1.4968,-1.4968,-1.4968,-1.4968,-1.4968,-1.4968,-1.8461,-1.8006,-1.7398,-1.6024,-1.5803,-1.5727,-1.542,-1.542,-1.5344,-1.5045,-1.6415,-1.6873,-1.5573,-1.6864,-1.7169,-1.5573,-1.6864,-1.7778,-1.7778,-2.0338,-2.2073,-2.2595,-2.3648,-2.4327,-2.4562,-2.4636,-2.3277,-2.0639,-2.0639,-2.0639,-2.0639,-2.0338,-2.0188,-2.0188,-1.9887,-1.9057,-1.7778,-1.7778,-1.6864,-1.542,-1.542,-1.5275,-1.4968,-1.4968,-1.4968,-1.4968,-1.4968,-1.4968,-1.4968,-1.4968,-1.4968,-1.4968,-1.4968,-1.4968,-1.4968,-1.4968,-1.4968,-1.4968,-1.4968,-1.4968,-1.4968,-1.4968,-1.4968,-1.4968,-1.4968,-1.4968,-1.4968,-1.4968,-1.4968,-1.4968,-1.4968,-1.4968,-1.4968,-1.4968,-1.4968,-1.4968,-1.4968,-1.4968,-1.4968,-1.4968,-1.4968,-1.4968,-1.4968,-1.4968,-1.4968,-1.4968,-1.4968,-1.4968,-1.4968,-1.4968,-1.4968,-1.4968,-1.4968,-1.4968,-1.4968,-1.4968,-1.4968,-1.4968,-1.4968,-1.4968,-1.4968,-1.4968,-1.4968,-1.4968,-1.4968,-1.4968,-1.4968,-1.4968,-1.4968,-1.4968,-1.4968,-1.4968,-1.4968,-1.4968,-1.4968,-1.4968,-2.1314,-2.0414,-1.9434,-1.9208,-1.9132,-1.8678,-1.7321,-1.7102,-1.6568,-1.519,-1.6415,-1.7331,-1.7102,-1.8527,-1.883,-1.7245,-1.8527,-1.951,-1.951,-1.9887,-2.1389,-2.4179,-2.3129,-2.3203,-2.4562,-2.4636,-2.4414,-2.3957,-2.3957,-2.3957,-2.3957,-2.2521,-2.1849,-2.1849,-2.0414,-1.9661,-1.951,-1.951,-1.8527,-1.7102,-1.7102,-1.6262,-1.4968,-1.4968,-1.4968,-1.4968,-1.4968,-1.4968,-1.4968,-1.4968,-1.4968,-1.4968,-1.4968,-1.4968,-1.4968,-1.4968,-1.4968,-1.4968,-1.4968,-1.4968,-1.4968,-1.4968,-1.4968,-1.4968,-1.4968,-1.4968,-1.4968,-1.4968,-1.4968,-1.4968,-1.4968,-1.4968,-1.4968,-1.4968,-1.4968,-1.4968,-1.4968,-1.4968,-1.4968,-1.4968,-1.4968,-1.4968,-1.4968,-1.4968,-1.4968,-1.4968,-1.4968,-1.4968,-1.4968,-1.4968,-1.4968,-1.4968,-1.4968,-1.4968,-1.4968,-1.4968,-1.4968,-1.4968,-1.4968,-1.4968,-1.4968,-1.4968,-1.4968,-1.4968,-1.4968,-1.4968,-1.4968,-1.4968,-1.4968,-1.4968,-1.4968,-1.4968,-1.4968,-1.4968,-1.4968,-1.4968,-2.2223,-2.1625,-2.0864,-1.9962,-1.9811,-1.9585,-1.884,-1.8764,-1.8451,-1.7768,-1.8299,-1.8764,-1.8764,-1.9359,-1.951,-1.883,-1.9359,-1.9811,-1.9811,-2.0639,-2.1775,-2.3203,-2.3426,-2.3883,-2.4562,-2.4636,-2.4636,-2.4636,-2.4636,-2.4636,-2.4562,-2.3883,-2.35,-2.35,-2.2831,-2.1999,-2.1164,-2.1164,-2.0188,-1.8764,-1.8764,-1.7778,-1.6339,-1.6339,-1.5803,-1.4968,-1.4968,-1.4968,-1.4968,-1.4968,-1.4968,-1.4968,-1.4968,-1.4968,-1.4968,-1.4968,-1.4968,-1.4968,-1.4968,-1.4968,-1.4968,-1.4968,-1.4968,-1.4968,-1.4968,-1.4968,-1.4968,-1.4968,-1.4968,-1.4968,-1.4968,-1.4968,-1.4968,-1.4968,-1.4968,-1.4968,-1.4968,-1.4968,-1.4968,-1.4968,-1.4968,-1.4968,-1.4968,-1.4968,-1.4968,-1.4968,-1.4968,-1.4968,-1.4968,-1.4968,-1.4968,-1.4968,-1.4968,-1.4968,-1.4968,-1.4968,-1.4968,-1.4968,-1.4968,-1.4968,-1.4968,-1.4968,-1.4968,-1.4968,-1.4968,-1.4968,-1.4968,-1.4968,-1.4968,-1.4968,-1.4968,-1.4968,-1.4968,-1.4968,-1.4968,-1.4968]},{"header":{"parameterUnit":"m.s-1","parameterCategory":1,"la1":30.6,"la2":28.766,"lo1":-90.7593,"lo2":-88.6598,"dy":0.0162,"dx":0.0183,"nx":116,"ny":114,"refTime":"2023-03-26T06:00:00:Z","depth":0,"parameterNumber":3,"parameterNumberName":"V-component_of_WINDS"},"data":[0.0,0.0,0.0,0.0,0.0,0.0,0.0,0.0,0.0,0.0,0.0,0.0,0.0,0.0,0.0,0.0,0.0,0.0,0.0,0.0,0.0,0.0,0.0,0.0,0.0,0.0,0.0,0.0,0.0,0.0,0.0,0.0,0.0,0.0,0.0,0.0,0.0,0.0,0.0,0.0,0.0,0.0,0.0,0.0,0.0,0.0,0.0,0.0,0.0,0.0,0.0,0.0,0.0,0.0,0.0,0.0,0.0,0.0,0.0,0.0,0.0,0.0,0.0,0.0,0.0,0.0,0.0,0.0,0.0,0.0,0.0,0.0,0.0,0.0,0.0,0.0,0.0,0.0,0.0,0.0,0.0,0.0,0.0,0.0,0.0,0.0,0.0,0.0,0.0,0.0,0.0,0.0,0.0,0.0,0.0,0.0,0.0,0.0,0.0,0.0,0.0,0.0,0.0,0.0,0.0,0.0,0.0,0.0,0.0,0.0,0.0,0.0,0.0,0.0,0.0,0.0,0.0,0.0,0.0,0.0,0.0,0.0,0.0,0.0,0.0,0.0,0.0,0.0,0.0,0.0,0.0,0.0,0.0,0.0,0.0,0.0,0.0,0.0,0.0,0.0,0.0,0.0,0.0,0.0,0.0,0.0,0.0,0.0,0.0,0.0,0.0,0.0,0.0,0.0,0.0,0.0,0.0,0.0,0.0,0.0,0.0,0.0,0.0,0.0,0.0,0.0,0.0,0.0,0.0,0.0,0.0,0.0,0.0,0.0,0.0,0.0,0.0,0.0,0.0,0.0,0.0,0.0,0.0,0.0,0.0,0.0,0.0,0.0,0.0,0.0,0.0,0.0,0.0,0.0,0.0,0.0,0.0,0.0,0.0,0.0,0.0,0.0,0.0,0.0,0.0,0.0,0.0,0.0,0.0,0.0,0.0,0.0,0.0,0.0,0.0,0.0,0.0,0.0,0.0,0.0,0.0,0.0,0.0,0.0,0.0,0.0,0.0,0.0,0.0,0.0,0.0,0.0,0.0,0.0,0.0,0.0,0.0,0.0,0.0,0.0,0.0,0.0,0.0,0.0,0.0,0.0,0.0,0.0,0.0,0.0,0.0,0.0,0.0,0.0,0.0,0.0,0.0,0.0,0.0,0.0,0.0,0.0,0.0,0.0,0.0,0.0,0.0,0.0,0.0,0.0,0.0,0.0,0.0,0.0,0.0,0.0,0.0,0.0,0.0,0.0,0.0,0.0,0.0,0.0,0.0,0.0,0.0,0.0,0.0,0.0,0.0,0.0,0.0,0.0,0.0,0.0,0.0,0.0,0.0,0.0,0.0,0.0,0.0,0.0,0.0,0.0,0.0,0.0,0.0,0.0,0.0,0.0,0.0,0.0,0.0,0.0,0.0,0.0,0.0,0.0,0.0,0.0,0.0,0.0,0.0,0.0,0.0,0.0,0.0,0.0,0.0,0.0,0.0,0.0,0.0,0.0,0.0,0.0,0.0,0.0,0.0,0.0,0.0,0.0,0.0,0.0,0.0,0.0,0.0,0.0,0.0,0.0,0.0,0.0,0.0,0.0,0.0,0.0,0.0,0.0,0.0,0.0,0.0,0.0,0.0,0.0,0.0,0.0,0.0,0.0,0.0,0.0,0.0,0.0,0.0,0.0,0.0,0.0,0.0,0.0,0.0,0.0,0.0,0.0,0.0,0.0,0.0,0.0,0.0,0.0,0.0,0.0,0.0,0.0,0.0,0.0,0.0,0.0,0.0,0.0,0.0,0.0,0.0,0.0,0.0,0.0,0.0,0.0,0.0,0.0,0.0,0.0,0.0,0.0,0.0,0.0,0.0,0.0,0.0,0.0,0.0,0.0,0.0,0.0,0.0,0.0,0.0,0.0,0.0,0.0,0.0,0.0,0.0,0.0,0.0,0.0,0.0,0.0,0.0,0.0,0.0,0.0,0.0,0.0,0.0,0.0,0.0,0.0,0.0,0.0,0.0,0.0,0.0,0.0,0.0,0.0,0.0,0.0,0.0,0.0,0.0,0.0,0.0,0.0,0.0,0.0,0.0,0.0,0.0,0.0,0.0,0.0,0.0,0.0,0.0,0.0,0.0,0.0,0.0,0.0,0.0,0.0,0.0,0.0,0.0,0.0,0.0,0.0,0.0,0.0,0.0,0.0,0.0,0.0,0.0,0.0,0.0,0.0,0.0,0.0,0.0,0.0,0.0,0.0,0.0,0.0,0.0,0.0,0.0,0.0,0.0,0.0,0.0,0.0,0.0,0.0,0.0,0.0,0.0,0.0,0.0,0.0,0.0,0.0,0.0,0.0,0.0,0.0,0.0,0.0,0.0,0.0,0.0,0.0,0.0,0.0,0.0,0.0,0.0,0.0,0.0,0.0,0.0,0.0,0.0,0.0,0.0,0.0,0.0,0.0,0.0,0.0,0.0,0.0,0.0,0.0,0.0,0.0,0.0,0.0,0.0,0.0,0.0,0.0,0.0,0.0,0.0,0.0,0.0,0.0,0.0,0.0,0.0,0.0,0.0,0.0,0.0,0.0,0.0,0.0,0.0,0.0,0.0,0.0,0.0,0.0,0.0,0.0,0.0,0.0,0.0,0.0,0.0,0.0,0.0,0.0,0.0,0.0,0.0,0.0,0.0,0.0,0.0,0.0,0.0,0.0,0.0,0.0,0.0,0.0,0.0,0.0,0.0,0.0,0.0,0.0,0.0,0.0,0.0,0.0,0.0,0.0,0.0,0.0,0.0,0.0,0.0,0.0,0.0,0.0,0.0,0.0,0.0,0.0,0.0,0.0,0.0,0.0,0.0,0.0,0.0,0.0,0.0,0.0,0.0,0.0,0.0,0.0,0.0,0.0,0.0,0.0,0.0,0.0,0.0,0.0,0.0,0.0,0.0,0.0,0.0,0.0,0.0,0.0,0.0,0.0,0.0,0.0,0.0,0.0,0.0,0.0,0.0,0.0,0.0,0.0,0.0,0.0,0.0,0.0,0.0,0.0,0.0,0.0,0.0,0.0,0.0,0.0,0.0,0.0,0.0,0.0,0.0,0.0,0.0,0.0,0.0,0.0,0.0,0.0,0.0,0.0,0.0,0.0,0.0,0.0,0.0,0.0,0.0,0.0,0.0,0.0,0.0,0.0,0.0,0.0,0.0,0.0,0.0,0.0,0.0,0.0,0.0,0.0,0.0,0.0,0.0,0.0,0.0,0.0,0.0,0.0,0.0,0.0,0.0,0.0,0.0,0.0,0.0,0.0,0.0,0.0,0.0,0.0,0.0,0.0,0.0,0.0,0.0,0.0,0.0,0.0,0.0,0.0,0.0,0.0,0.0,0.0,0.0,0.0,0.0,0.0,0.0,0.0,0.0,0.0,0.0,0.0,0.0,0.0,0.0,0.0,0.0,0.0,0.0,0.0,0.0,0.0,0.0,0.0,0.0,0.0,0.0,0.0,0.0,0.0,0.0,0.0,0.0,0.0,0.0,0.0,0.0,0.0,0.0,0.0,0.0,0.0,0.0,0.0,0.0,0.0,0.0,0.0,0.0,0.0,0.0,0.0,0.0,0.0,0.0,0.0,0.0,0.0,0.0,0.0,0.0,0.0,0.0,0.0,0.0,0.0,0.0,0.0,0.0,0.0,0.0,0.0,0.0,0.0,0.0,0.0,0.0,0.0,0.0,0.0,0.0,0.0,0.0,0.0,0.0,0.0,0.0,0.0,0.0,0.0,0.0,0.0,0.0,0.0,0.0,0.0,0.0,0.0,0.0,0.0,0.0,0.0,0.0,0.0,0.0,0.0,0.0,0.0,0.0,0.0,0.0,0.0,0.0,0.0,0.0,0.0,0.0,0.0,0.0,0.0,0.0,0.0,0.0,0.0,0.0,0.0,0.0,0.0,0.0,0.0,0.0,0.0,0.0,0.0,0.0,0.0,0.0,0.0,0.0,0.0,0.0,0.0,0.0,0.0,0.0,0.0,0.0,0.0,0.0,0.0,0.0,0.0,0.0,0.0,0.0,0.0,0.0,0.0,0.0,0.0,0.0,0.0,0.0,0.0,0.0,0.0,0.0,0.0,0.0,0.0,0.0,0.0,0.0,0.0,0.0,0.0,0.0,0.0,0.0,0.0,0.0,0.0,0.0,0.0,0.0,0.0,0.0,0.0,0.0,0.0,0.0,0.0,0.0,0.0,0.0,0.0,0.0,0.0,0.0,0.0,0.0,0.0,0.0,0.0,0.0,0.0,0.0,0.0,0.0,0.0,0.0,0.0,0.0,0.0,0.0,0.0,0.0,0.0,0.0,0.0,0.0,0.0,0.0,0.0,0.0,0.0,0.0,0.0,0.0,0.0,0.0,0.0,0.0,0.0,0.0,0.0,0.0,0.0,0.0,0.0,0.0,0.0,0.0,0.0,0.0,0.0,0.0,0.0,0.0,0.0,0.0,0.0,0.0,0.0,0.0,0.0,0.0,0.0,0.0,0.0,0.0,0.0,0.0,0.0,0.0,0.0,0.0,0.0,0.0,0.0,0.0,0.0,0.0,0.0,0.0,0.0,0.0,0.0,0.0,0.0,0.0,0.0,0.0,0.0,0.0,0.0,0.0,0.0,0.0,0.0,0.0,0.0,0.0,0.0,0.0,0.0,0.0,0.0,0.0,0.0,0.0,0.0,0.0,0.0,0.0,0.0,0.0,0.0,0.0,0.0,0.0,0.0,0.0,0.0,0.0,0.0,0.0,0.0,0.0,0.0,0.0,0.0,0.0,0.0,0.0,0.0,0.0,0.0,0.0,0.0,0.0,0.0,0.0,0.0,0.0,0.0,0.0,0.0,0.0,0.0,0.0,0.0,0.0,0.0,0.0,0.0,0.0,0.0,0.0,0.0,0.0,0.0,0.0,0.0,0.0,0.0,0.0,0.0,0.0,0.0,0.0,0.0,0.0,0.0,0.0,0.0,0.0,0.0,0.0,0.0,0.0,0.0,0.0,0.0,0.0,0.0,0.0,0.0,0.0,0.0,0.0,0.0,0.0,0.0,0.0,0.0,0.0,0.0,0.0,0.0,0.0,0.0,0.0,0.0,0.0,0.0,0.0,0.0,0.0,0.0,0.0,0.0,0.0,0.0,0.0,0.0,0.0,0.0,0.0,0.0,0.0,0.0,0.0,0.0,0.0,0.0,0.0,0.0,0.0,0.0,0.0,0.0,0.0,0.0,0.0,0.0,0.0,0.0,0.0,0.0,0.0,0.0,0.0,0.0,0.0,0.0,0.0,0.0,0.0,0.0,0.0,0.0,0.0,0.0,0.0,0.0,0.0,0.0,0.0,0.0,0.0,0.0,0.0,0.0,0.0,0.0,0.0,0.0,0.0,0.0,0.0,0.0,0.0,0.0,0.0,0.0,0.0,0.0,0.0,0.0,0.0,0.0,0.0,0.0,0.0,0.0,0.0,0.0,0.0,0.0,0.0,0.0,0.0,0.0,0.0,0.0,0.0,0.0,0.0,0.0,0.0,0.0,0.0,0.0,0.0,0.0,0.0,0.0,0.0,0.0,0.0,0.0,0.0,0.0,0.0,0.0,0.0,0.0,0.0,0.0,0.0,0.0,0.0,0.0,0.0,0.0,0.0,0.0,0.0,0.0,0.0,0.0,0.0,0.0,0.0,0.0,0.0,0.0,0.0,0.0,0.0,0.0,0.0,0.0,0.0,0.0,0.0,0.0,0.0,0.0,0.0,0.0,0.0,0.0,0.0,0.0,0.0,0.0,0.0,0.0,0.0,0.0,0.0,0.0,0.0,0.0,0.0,0.0,0.0,0.0,0.0,0.0,0.0,0.0,0.0,0.0,0.0,0.0,0.0,0.0,0.0,0.0,0.0,0.0,0.0,0.0,0.0,0.0,0.0,0.0,0.0,0.0,0.0,0.0,0.0,0.0,0.0,0.0,0.0,0.0,0.0,0.0,0.0,0.0,0.0,0.0,0.0,0.0,0.0,0.0,0.0,0.0,0.0,0.0,0.0,0.0,0.0,0.0,0.0,0.0,0.0,0.0,0.0,0.0,0.0,0.0,0.0,0.0,0.0,0.0,0.0,0.0,0.0,0.0,4.415,4.3952,0.0,0.0,0.0,0.0,0.0,0.0,0.0,0.0,0.0,0.0,0.0,0.0,0.0,0.0,0.0,0.0,0.0,0.0,0.0,0.0,0.0,0.0,0.0,0.0,0.0,0.0,0.0,0.0,0.0,0.0,0.0,0.0,0.0,0.0,0.0,0.0,0.0,0.0,4.8163,4.8163,4.8065,4.7303,4.6689,4.6304,0.0,0.0,0.0,0.0,0.0,0.0,0.0,0.0,0.0,0.0,0.0,0.0,0.0,0.0,0.0,0.0,0.0,0.0,0.0,0.0,0.0,0.0,0.0,0.0,0.0,0.0,0.0,0.0,0.0,0.0,0.0,0.0,0.0,0.0,0.0,0.0,0.0,0.0,0.0,0.0,0.0,0.0,0.0,0.0,0.0,0.0,0.0,0.0,0.0,0.0,0.0,0.0,0.0,0.0,0.0,0.0,0.0,0.0,0.0,0.0,0.0,0.0,0.0,0.0,0.0,0.0,0.0,0.0,0.0,0.0,4.4519,4.4316,0.0,0.0,0.0,0.0,0.0,0.0,0.0,0.0,0.0,0.0,0.0,0.0,0.0,0.0,0.0,0.0,0.0,0.0,0.0,0.0,0.0,0.0,0.0,0.0,4.8515,4.8515,4.8515,4.8515,0.0,0.0,0.0,0.0,0.0,0.0,0.0,0.0,0.0,4.826,4.842,4.842,4.826,4.826,4.7505,4.6234,4.6759,0.0,0.0,0.0,0.0,0.0,0.0,0.0,0.0,0.0,0.0,0.0,0.0,0.0,0.0,0.0,0.0,0.0,0.0,0.0,0.0,0.0,0.0,0.0,0.0,0.0,0.0,0.0,0.0,0.0,0.0,0.0,0.0,0.0,0.0,0.0,0.0,0.0,0.0,0.0,0.0,0.0,0.0,0.0,0.0,0.0,0.0,0.0,0.0,0.0,0.0,0.0,0.0,0.0,0.0,0.0,0.0,0.0,0.0,0.0,0.0,0.0,0.0,0.0,4.5933,4.6003,4.6082,4.6082,4.6168,4.6193,4.5412,4.5159,4.5346,4.4838,0.0,0.0,0.0,0.0,0.0,0.0,0.0,0.0,0.0,0.0,0.0,0.0,0.0,0.0,0.0,0.0,0.0,0.0,0.0,0.0,0.0,4.8515,4.8515,4.8515,4.8515,4.8515,0.0,0.0,0.0,0.0,0.0,0.0,0.0,4.8515,4.8483,4.8452,4.8483,4.8483,4.8452,4.8452,4.8356,4.8129,4.7935,4.7836,0.0,0.0,0.0,0.0,0.0,0.0,0.0,0.0,0.0,0.0,0.0,0.0,0.0,0.0,0.0,0.0,0.0,0.0,0.0,0.0,0.0,0.0,0.0,0.0,0.0,0.0,0.0,0.0,0.0,0.0,0.0,0.0,0.0,0.0,0.0,0.0,0.0,0.0,0.0,0.0,0.0,0.0,5.2189,5.1529,0.0,0.0,0.0,0.0,0.0,0.0,0.0,0.0,0.0,0.0,0.0,0.0,0.0,4.5699,4.5699,4.58,4.6174,4.6751,4.6863,4.7177,4.7692,4.7692,4.791,4.8287,4.8186,0.0,4.5648,4.5925,0.0,0.0,0.0,0.0,0.0,0.0,0.0,0.0,0.0,0.0,0.0,0.0,0.0,0.0,0.0,0.0,0.0,0.0,0.0,0.0,0.0,4.9073,4.9165,4.8798,4.9073,4.9135,4.8798,4.8767,0.0,0.0,0.0,4.8767,4.8767,4.8767,4.8767,4.8767,4.8707,4.8675,4.8675,4.8675,4.8612,4.8483,4.8324,4.826,4.826,4.826,0.0,0.0,0.0,0.0,0.0,0.0,0.0,0.0,0.0,0.0,0.0,0.0,0.0,0.0,0.0,0.0,0.0,0.0,0.0,0.0,0.0,0.0,0.0,0.0,0.0,0.0,0.0,0.0,0.0,0.0,0.0,0.0,0.0,0.0,0.0,0.0,0.0,0.0,0.0,5.3127,5.3021,5.2835,5.2523,5.1983,0.0,0.0,0.0,0.0,0.0,0.0,0.0,0.0,0.0,4.8865,4.8413,4.8164,4.8164,4.8234,4.8413,4.8687,4.877,4.8913,4.9186,4.9186,4.9317,4.9494,4.9494,4.9007,4.814,4.7805,4.735,4.6889,0.0,0.0,0.0,0.0,4.6269,4.6637,0.0,0.0,0.0,0.0,0.0,0.0,0.0,0.0,0.0,0.0,0.0,0.0,4.9436,4.9844,4.993,4.9462,4.9844,4.993,4.9432,4.9286,0.0,0.0,0.0,4.9018,4.9018,4.9018,4.9018,4.9018,4.8894,4.8832,4.8832,4.8832,4.8769,4.861,4.861,4.8578,4.8515,4.8515,4.842,0.0,0.0,0.0,0.0,0.0,0.0,0.0,0.0,0.0,0.0,0.0,0.0,0.0,0.0,0.0,0.0,0.0,0.0,0.0,0.0,0.0,0.0,0.0,0.0,0.0,0.0,0.0,0.0,0.0,0.0,0.0,0.0,0.0,0.0,0.0,0.0,0.0,0.0,5.3877,5.3868,5.3862,5.3451,5.29,0.0,0.0,0.0,0.0,0.0,0.0,5.219,5.1611,5.1212,5.1017,5.0401,5.0112,5.0112,5.0112,5.022,5.0401,5.0401,5.051,5.0705,5.0705,5.0705,5.0705,5.0705,5.0705,5.0647,4.9496,4.8829,4.8413,4.7911,4.7533,4.7287,4.7287,4.7566,4.8019,0.0,0.0,0.0,0.0,0.0,0.0,0.0,0.0,0.0,0.0,0.0,5.0616,5.0616,5.0643,5.0643,5.0616,5.0643,5.0643,5.0616,5.0124,4.9844,4.9844,4.932,4.9018,4.9018,4.9018,4.9018,4.9018,4.8984,4.9018,4.9018,4.9018,4.8987,4.8954,4.8954,4.8798,4.8515,4.8515,4.8483,4.8483,0.0,0.0,0.0,0.0,0.0,0.0,0.0,0.0,0.0,0.0,0.0,0.0,0.0,0.0,0.0,0.0,0.0,0.0,0.0,0.0,0.0,0.0,0.0,0.0,0.0,0.0,0.0,0.0,0.0,0.0,0.0,0.0,0.0,0.0,0.0,0.0,0.0,0.0,0.0,5.3809,5.3676,0.0,0.0,0.0,0.0,5.2457,5.248,5.2154,5.1393,5.1321,5.0945,5.0184,5.0112,5.0112,5.0112,5.0112,5.0474,5.1212,5.1212,5.1647,5.2371,5.2371,5.2371,5.2371,5.2371,5.2371,5.2263,5.0683,5.0009,4.9995,4.9951,4.9915,4.9901,4.9901,4.9923,4.9945,0.0,0.0,0.0,0.0,0.0,0.0,0.0,0.0,5.0697,5.0697,5.0697,5.0697,5.0697,5.1052,5.1131,5.0751,5.1078,5.1131,5.0724,5.0507,5.0397,5.0397,5.0237,4.9925,4.9585,4.9199,4.9018,4.9018,4.9018,4.9018,4.9018,4.9018,4.9018,4.9018,4.9018,4.8923,4.8798,4.8798,4.8767,4.8707,4.8707,4.8778,0.0,0.0,0.0,0.0,0.0,0.0,0.0,0.0,0.0,0.0,0.0,0.0,0.0,0.0,0.0,0.0,0.0,0.0,0.0,0.0,0.0,0.0,0.0,0.0,0.0,0.0,0.0,0.0,0.0,0.0,0.0,0.0,0.0,0.0,0.0,0.0,0.0,5.2951,5.2915,0.0,5.2516,5.248,5.248,5.248,5.248,5.2371,5.2082,5.2082,5.1937,5.1647,5.1647,5.1647,5.1647,5.1647,5.1792,5.2082,5.2082,5.2226,5.248,5.248,5.248,5.248,5.248,5.248,5.2444,5.1864,5.1321,5.0873,5.0873,5.0583,5.0112,5.0112,5.0112,5.0112,0.0,0.0,0.0,0.0,0.0,0.0,0.0,0.0,5.1337,5.1404,5.1378,5.1353,5.1404,5.1764,5.1848,5.1429,5.1764,5.1848,5.1429,5.1225,5.1121,5.1069,5.0832,5.0535,5.0153,4.9786,4.9551,4.9551,4.9376,4.932,4.932,4.9077,4.9018,4.9018,4.9018,4.9018,4.9018,4.9018,4.8956,4.8863,4.8863,4.8801,4.8673,0.0,0.0,0.0,0.0,0.0,0.0,0.0,0.0,0.0,0.0,0.0,0.0,0.0,0.0,0.0,0.0,0.0,0.0,0.0,0.0,0.0,0.0,0.0,0.0,0.0,0.0,0.0,0.0,0.0,0.0,0.0,0.0,0.0,0.0,5.248,5.248,5.248,5.248,5.248,5.248,5.248,5.248,5.248,5.248,5.248,5.248,5.248,5.248,5.248,5.248,5.248,5.248,5.248,5.248,5.248,5.248,5.248,5.248,5.248,5.248,5.248,5.248,5.248,5.248,5.248,5.219,5.1683,5.1683,5.1357,5.0886,5.0886,5.0886,5.0886,0.0,0.0,0.0,0.0,0.0,0.0,0.0,5.2536,5.2572,5.2761,5.2658,5.2635,5.2783,5.2806,5.2806,5.2806,5.2806,5.2806,5.2806,5.2315,5.197,5.1848,5.1121,5.0751,5.0751,5.0724,5.0724,5.0724,5.0153,4.9873,4.9907,4.929,4.9018,4.9018,4.9018,4.9018,4.9018,4.9018,4.9018,4.9018,4.9018,4.9018,4.8987,0.0,0.0,0.0,0.0,0.0,0.0,0.0,0.0,0.0,0.0,0.0,0.0,0.0,0.0,0.0,0.0,0.0,0.0,0.0,0.0,0.0,0.0,0.0,0.0,0.0,0.0,0.0,0.0,0.0,0.0,0.0,0.0,0.0,5.248,5.248,5.248,5.248,5.248,5.248,5.248,5.248,5.248,5.248,5.248,5.2503,5.2503,5.2503,5.2526,5.2549,5.2549,5.2549,5.2549,5.2549,5.2526,5.2526,5.2526,5.2526,5.2526,5.2526,5.2549,5.2526,5.2526,5.2526,5.2526,5.2526,5.2526,5.2526,5.2503,5.248,5.248,5.248,5.248,5.248,0.0,0.0,0.0,0.0,0.0,0.0,0.0,5.2559,5.2604,5.2635,5.2717,5.2761,5.2783,5.2806,5.2806,5.2806,5.2806,5.2806,5.2806,5.2672,5.2545,5.2522,5.197,5.164,5.1629,5.1121,5.0858,5.0858,5.0209,4.9873,4.9907,4.929,4.9018,4.9018,4.9018,4.9018,4.9018,4.9018,4.9018,4.9018,4.9018,4.9018,4.9018,0.0,0.0,0.0,0.0,0.0,0.0,0.0,0.0,0.0,0.0,0.0,0.0,0.0,0.0,0.0,0.0,0.0,0.0,0.0,0.0,0.0,0.0,0.0,0.0,0.0,0.0,0.0,0.0,0.0,0.0,0.0,5.248,5.248,5.248,5.248,5.248,5.248,5.248,5.2526,5.2581,5.2581,5.2581,5.2581,5.2581,5.2702,5.3014,5.3014,5.3166,5.3511,5.353,5.353,5.353,5.353,5.341,5.3178,5.341,5.341,5.3141,5.3393,5.3452,5.3387,5.3387,5.3285,5.3141,5.3141,5.3141,5.3115,5.2649,5.248,5.248,5.248,5.248,5.248,0.0,0.0,0.0,0.0,0.0,0.0,0.0,5.2536,5.2604,5.2761,5.2783,5.2828,5.2974,5.2974,5.2974,5.2974,5.2974,5.2974,5.2974,5.2893,5.2872,5.2872,5.2522,5.2338,5.2361,5.191,5.1714,5.1714,5.1078,5.0786,5.076,5.0181,4.9838,4.9815,4.9815,4.9786,4.9727,4.9727,4.9727,4.9727,4.9727,4.9436,4.9018,4.9018,4.9018,4.9083,4.9767,5.0199,5.0571,5.1257,0.0,0.0,0.0,0.0,0.0,0.0,0.0,0.0,0.0,0.0,0.0,0.0,0.0,0.0,0.0,0.0,0.0,0.0,0.0,0.0,0.0,0.0,0.0,0.0,5.2761,5.2893,5.2893,5.2686,5.2503,5.2549,5.2717,5.2769,5.268,5.2956,5.3083,5.2929,5.3062,5.3252,5.3491,5.3474,5.3608,5.3886,5.3904,5.3904,5.3904,5.3904,5.3777,5.3588,5.3795,5.3814,5.3644,5.3795,5.385,5.3777,5.3777,5.3702,5.3588,5.3588,5.3588,5.3567,0.0,0.0,0.0,0.0,5.2893,5.2893,0.0,0.0,0.0,0.0,0.0,0.0,0.0,5.2536,5.2618,5.2915,5.2872,5.2893,5.3146,5.3203,5.3203,5.3203,5.3203,5.3203,5.3203,5.3082,5.3002,5.3002,5.2893,5.2828,5.2828,5.2828,5.2828,5.2828,5.2268,5.1994,5.197,5.1378,5.1034,5.0938,5.0938,5.0858,5.0724,5.0724,5.0724,5.0697,5.0697,5.0096,4.9199,4.9199,4.9199,4.9256,4.9786,5.0408,5.1049,5.1591,0.0,0.0,0.0,0.0,0.0,0.0,0.0,0.0,0.0,0.0,0.0,0.0,0.0,0.0,0.0,0.0,0.0,0.0,0.0,0.0,0.0,0.0,0.0,0.0,5.3277,5.3598,5.3598,5.3213,5.2899,5.2769,5.3062,5.3187,5.2965,5.353,5.3814,5.3489,5.3758,5.394,5.3975,5.405,0.0,0.0,0.0,5.4363,5.4363,5.4363,5.4345,5.4255,5.4345,5.4345,5.4255,5.4345,5.4345,5.4328,5.4328,5.4328,5.431,5.431,5.431,5.4219,5.3661,5.3427,5.3407,5.3427,5.3447,5.3447,0.0,0.0,0.0,0.0,0.0,0.0,0.0,5.2559,5.259,5.2658,5.285,5.2959,5.3039,5.3124,5.3203,5.3203,5.3203,5.3203,5.3203,5.3203,5.3146,5.3146,5.3124,5.3103,5.3103,5.3039,5.2937,5.2937,5.2315,5.1994,5.197,5.1378,5.1086,5.106,5.106,5.1017,5.0858,5.0858,5.0805,5.0697,5.0697,5.0562,5.0369,5.0369,5.0369,5.0369,5.0507,5.064,5.078,5.0881,5.1013,5.1154,5.1154,0.0,0.0,0.0,0.0,0.0,0.0,0.0,0.0,0.0,0.0,0.0,0.0,0.0,0.0,0.0,0.0,0.0,0.0,0.0,0.0,5.3265,5.4182,5.4839,5.4839,5.5304,5.5153,5.3795,5.3721,5.3814,5.3832,5.3977,5.4031,5.3959,5.4013,5.4187,5.4446,5.5142,5.5677,5.6078,5.6764,5.7144,5.7144,5.7144,5.6952,5.6652,5.6952,0.0,5.6668,5.7004,5.7034,5.6877,5.6877,5.68,5.6727,5.6727,5.6727,5.6528,5.4447,5.3528,5.3427,5.3567,5.3644,5.3663,0.0,0.0,0.0,0.0,0.0,0.0,0.0,5.2526,5.2559,5.259,5.2739,5.285,5.298,5.306,5.3124,5.3167,5.3203,5.3203,5.3203,5.3203,5.3203,5.3203,5.3203,5.3203,5.3203,5.3124,5.3103,5.3103,5.2761,5.2627,5.2568,5.2302,5.2125,5.2054,5.2054,5.1982,5.1861,5.1861,5.1788,5.1629,5.1629,5.164,5.1515,5.0938,5.0697,5.0751,5.1017,5.1157,5.1209,5.149,5.1601,5.1601,5.1601,5.1835,5.2066,0.0,0.0,0.0,0.0,0.0,0.0,0.0,0.0,0.0,0.0,0.0,0.0,0.0,0.0,5.2791,5.3099,0.0,5.4178,5.441,5.5465,5.6233,5.6233,5.676,5.6689,5.5394,5.5388,5.5474,5.5463,5.5783,5.5911,5.5734,5.5879,5.6088,5.6235,5.6668,5.702,5.7237,5.7657,5.7886,5.7886,5.7886,5.7818,5.7601,5.778,5.778,5.7601,5.7818,5.7846,5.7739,5.7739,5.7696,5.7639,5.7639,5.7596,5.7377,5.6139,5.5549,5.5392,5.5498,5.5532,5.5549,0.0,0.0,0.0,0.0,0.0,0.0,0.0,5.248,5.2526,5.2581,5.259,5.268,5.2893,5.2937,5.3039,5.3146,5.3167,5.3203,5.3203,5.3203,5.3203,5.3203,5.3203,5.3203,5.3203,5.3203,5.3203,5.3203,5.3203,5.3203,5.3203,5.3203,5.3124,5.306,5.306,5.2937,5.2828,5.2828,5.2761,5.2635,5.2635,5.2604,5.2457,5.1465,5.1069,5.1095,5.1601,5.1786,5.186,5.234,5.248,5.248,5.248,5.248,5.248,5.248,5.248,0.0,0.0,0.0,0.0,0.0,0.0,0.0,0.0,0.0,5.2944,5.3072,5.3203,5.3403,5.3791,5.467,5.5417,5.5809,5.6873,5.7643,5.7643,5.8092,5.8111,5.7414,5.7278,5.7207,5.705,5.7543,5.7753,5.7445,5.7725,5.7886,5.7886,5.8039,5.8116,5.8116,5.8307,5.8383,5.8383,5.8383,5.8383,5.8383,5.8383,5.8383,5.8383,5.8383,5.8383,5.8383,5.8383,5.8383,5.8383,5.8383,5.8276,5.8125,5.8125,5.8067,5.7962,5.7575,5.7446,5.7461,0.0,0.0,0.0,0.0,0.0,0.0,0.0,0.0,5.248,5.2503,5.2559,5.2613,5.2635,5.2761,5.2872,5.3002,5.3124,5.3203,5.3203,5.3203,5.3203,5.3203,5.3203,5.3203,5.3203,5.3203,5.3203,5.3203,5.3203,5.3203,5.3203,5.3203,5.3203,5.3203,5.3203,5.3103,5.2959,5.2959,5.2893,5.2783,5.2783,5.2761,5.2739,5.2499,5.2338,5.2317,5.2387,5.241,5.241,5.2457,5.248,5.248,5.248,5.248,5.248,5.248,0.0,5.248,5.248,5.2536,5.2627,5.2739,5.2761,5.2879,0.0,0.0,5.3487,5.4034,5.4611,5.506,5.524,5.6246,5.7024,5.7072,5.8105,5.8901,5.8901,5.9592,6.0088,5.9979,5.8696,5.778,5.7805,5.7846,5.7873,5.7846,5.7873,5.7886,5.7886,5.8574,5.8981,5.8981,5.972,6.0116,6.0116,6.0116,6.0116,6.0116,6.0116,6.0116,6.0116,6.0116,6.0116,6.0116,6.0116,6.0116,6.0116,6.0116,6.0102,6.0088,6.0088,6.0074,5.9855,5.8187,5.7558,5.7587,0.0,0.0,0.0,0.0,0.0,0.0,0.0,0.0,0.0,5.248,5.2526,5.2559,5.259,5.2739,5.285,5.298,5.2995,5.3017,5.3082,5.3082,5.3082,5.3082,5.3146,5.3203,5.3203,5.3203,5.3203,5.3203,5.3203,5.3203,5.3203,5.3203,5.3203,5.3203,5.3124,5.306,5.298,5.2915,5.2806,5.2658,5.2658,5.2649,5.2618,5.2536,5.2536,5.2559,5.2503,5.248,0.0,0.0,5.248,5.248,5.248,5.248,5.2503,5.2536,5.2559,0.0,5.2627,5.2694,5.2806,0.0,5.3182,5.331,5.374,5.4242,5.4707,5.4938,5.561,5.6226,5.6517,5.7359,5.8106,5.8324,5.9178,5.9873,5.9873,6.0179,6.0422,6.0422,5.9759,5.9338,5.9338,5.9338,5.9338,5.9338,5.9338,5.9338,5.9338,5.9682,5.9873,5.9873,6.0217,6.0422,6.0422,6.0422,6.0422,6.0422,6.0422,6.0422,6.0422,6.0422,6.0422,6.0422,6.0422,6.0422,6.0422,6.0422,6.0422,6.0422,6.0422,6.0422,6.0293,5.9498,5.9216,5.9216,0.0,0.0,0.0,0.0,0.0,0.0,0.0,0.0,0.0,0.0,5.248,5.2526,5.2581,5.2694,5.2783,5.2872,5.2828,5.2828,5.2937,5.2937,5.2937,5.2937,5.3082,5.3124,5.3124,5.3203,5.3203,5.3203,5.3146,5.3124,5.3124,5.3124,5.3124,5.3124,5.306,5.298,5.298,5.285,5.2761,5.2635,5.2635,5.2627,5.2572,5.2572,5.2604,5.2635,5.2536,5.2549,0.0,0.0,5.2572,5.2572,5.2572,5.2572,5.2595,5.2649,5.2635,5.2658,5.2828,0.0,0.0,5.3407,5.3754,5.4149,5.4542,5.5354,5.604,5.6139,5.6852,5.7521,5.7757,5.8524,5.917,5.9411,5.9988,6.0422,6.0422,6.0422,6.0422,6.0422,6.0422,6.0422,6.0422,6.0422,6.0422,6.0422,6.0422,6.0422,6.0422,6.0422,6.0422,6.0422,6.0422,6.0422,6.0422,6.0422,6.0422,6.0422,6.0422,6.0422,6.0422,6.0422,6.0422,6.0422,6.0422,6.0422,6.0422,6.0422,6.0422,6.0422,6.0422,6.0422,6.0422,6.0422,6.0422,6.0422,0.0,0.0,0.0,0.0,0.0,0.0,0.0,0.0,0.0,0.0,0.0,0.0,0.0,5.2559,5.2613,5.2613,5.2739,5.2806,5.2806,5.2806,5.2806,5.2806,5.2915,5.3017,5.3017,5.3124,5.3203,5.3203,5.3082,5.3017,5.3017,5.3017,5.3017,5.3017,5.298,5.298,5.298,5.285,5.2806,5.2783,5.2783,5.2783,5.2783,5.2783,5.2783,5.2783,5.2635,0.0,0.0,0.0,5.2783,5.2783,5.2783,5.2783,0.0,5.2783,5.2783,0.0,0.0,0.0,5.3491,5.3662,5.4576,5.5525,5.5942,5.6664,5.7362,5.7766,5.847,5.9043,5.9043,5.9745,6.037,6.037,6.037,6.0422,6.0422,6.0422,6.0422,6.0422,6.0422,6.0422,6.0422,6.0422,6.0422,6.0422,6.0422,6.0422,6.0422,6.0422,6.0422,6.0422,6.0422,6.0422,6.0422,6.0422,6.0422,6.0422,6.0422,6.0422,6.0422,6.0422,6.0422,6.0422,6.0422,6.0422,6.0422,6.0422,6.0422,6.0422,6.0422,6.0422,6.0422,6.0422,6.0422,6.0422,0.0,0.0,0.0,0.0,0.0,0.0,0.0,0.0,0.0,0.0,0.0,0.0,0.0,0.0,0.0,0.0,5.2581,5.2604,5.2635,5.2694,5.2694,5.2694,5.2806,5.285,5.285,5.3017,5.3039,5.2952,5.2959,5.2937,5.285,5.285,5.285,5.285,5.2783,5.2725,5.2739,5.2663,5.2595,5.2595,5.2595,5.2595,5.2618,5.2649,5.2739,5.2806,0.0,0.0,0.0,0.0,0.0,0.0,5.2806,0.0,0.0,5.2893,0.0,0.0,0.0,0.0,5.502,5.5898,5.6387,5.6791,5.7182,5.7939,5.8525,5.8661,5.9376,5.995,5.995,6.0179,6.0422,6.0422,6.0422,6.0422,6.0422,6.0422,6.0422,6.0422,6.0422,6.0422,6.0422,6.0422,6.0422,6.0422,6.0422,6.0422,6.0422,6.0422,6.0422,6.0422,6.0422,6.0422,6.0422,6.0422,6.0422,6.0422,6.0422,6.0422,6.0422,6.0422,6.0422,6.0422,6.0422,6.0422,6.0422,6.0422,6.0422,6.0422,6.0422,6.0422,6.0422,6.0422,6.0422,6.0422,0.0,0.0,0.0,0.0,0.0,0.0,0.0,0.0,0.0,0.0,0.0,0.0,0.0,0.0,0.0,0.0,0.0,5.2526,5.2559,5.2559,5.2559,5.2559,5.2672,5.2739,5.2739,5.285,5.2872,5.2806,5.285,5.2828,5.2739,5.2739,5.2739,5.2739,5.2635,5.259,5.259,5.2526,5.2661,5.2915,5.2625,5.2661,5.2902,5.269,5.2635,0.0,0.0,0.0,0.0,0.0,0.0,0.0,0.0,0.0,0.0,0.0,0.0,0.0,0.0,5.5633,5.6349,5.7125,5.7605,5.8005,5.8266,5.8956,5.9568,5.9568,5.9988,6.0422,6.0422,6.0422,6.0422,6.0422,6.0422,6.0422,6.0422,6.0422,6.0422,6.0422,6.0422,6.0422,0.0,6.0637,6.0714,6.0408,6.0422,6.0422,6.0422,6.0422,6.0422,6.0422,6.0422,6.0422,6.0422,6.0422,6.0422,6.0422,6.0422,6.0422,6.0422,6.0422,6.0422,6.0422,6.0422,6.0422,6.0422,6.0422,6.0422,6.0422,6.0422,6.0422,6.0422,6.0422,6.0422,6.0422,0.0,0.0,0.0,0.0,0.0,0.0,0.0,0.0,0.0,0.0,0.0,0.0,0.0,0.0,0.0,0.0,0.0,0.0,5.248,5.248,5.248,5.248,5.2559,5.259,5.259,5.2739,5.2783,5.2783,5.2635,5.259,5.259,5.259,5.259,5.259,5.2627,5.2663,5.2663,5.2635,5.3059,5.3675,5.2915,5.3096,5.3699,5.2981,0.0,0.0,0.0,0.0,0.0,0.0,0.0,0.0,0.0,0.0,0.0,0.0,0.0,5.5587,5.5625,5.6495,5.7392,5.7468,5.8339,5.9185,5.9185,5.9797,6.0422,6.0422,6.0422,6.0422,0.0,0.0,6.0422,6.046,6.0446,6.0499,6.0523,6.0537,6.0537,0.0,0.0,0.0,0.0,0.0,6.1363,6.0599,6.0537,6.0537,6.0537,6.0537,6.0537,6.0537,6.0537,6.0537,6.0537,6.0537,6.0537,6.0537,6.0537,6.0537,6.0537,6.0537,6.0537,6.0537,6.0537,6.0537,6.0537,6.0537,6.0537,6.0537,6.0537,6.0537,6.0537,6.0537,6.0537,6.0537,0.0,0.0,0.0,0.0,0.0,0.0,0.0,0.0,0.0,0.0,0.0,0.0,0.0,0.0,0.0,0.0,0.0,0.0,5.248,5.248,5.248,5.248,5.2503,5.2526,5.2526,5.2604,5.2627,5.2572,5.2604,5.2581,5.2526,5.2526,5.2526,5.2526,5.3142,5.3432,5.3469,5.4037,5.4399,5.4581,0.0,5.4399,5.4581,0.0,0.0,0.0,0.0,0.0,0.0,0.0,0.0,0.0,0.0,5.4088,5.4707,0.0,0.0,5.697,5.7629,5.8243,5.8806,5.9469,5.9831,6.0064,6.0064,6.0217,6.0422,6.0422,6.0422,6.0422,0.0,0.0,0.0,6.1211,6.1287,0.0,6.2166,6.228,0.0,6.228,0.0,6.228,6.228,6.2471,6.2471,6.228,6.228,6.228,6.228,6.228,6.228,6.228,6.228,6.228,6.228,6.228,6.228,6.228,6.228,6.228,6.228,6.228,6.228,6.228,6.228,6.228,6.228,6.228,6.228,6.228,6.228,6.228,6.228,6.228,6.228,6.228,0.0,0.0,0.0,0.0,0.0,0.0,0.0,0.0,0.0,0.0,0.0,0.0,0.0,0.0,0.0,0.0,0.0,0.0,0.0,5.248,5.248,5.248,5.248,5.248,5.248,5.2549,5.2549,5.248,5.2549,5.2549,5.2516,5.2842,5.3023,5.3059,5.3856,5.4218,5.4255,5.4725,0.0,0.0,0.0,0.0,0.0,0.0,0.0,0.0,0.0,0.0,0.0,0.0,0.0,5.3251,5.3565,5.441,5.5285,5.5651,0.0,5.8219,5.8714,5.925,5.9797,6.0255,6.0422,6.0422,6.0422,6.0422,6.0422,6.0422,6.0422,6.0422,6.0422,6.0422,6.0637,0.0,0.0,0.0,6.2777,6.2892,6.2892,0.0,6.2892,0.0,6.2892,6.3236,6.3465,6.3465,6.3121,6.2892,6.2892,6.2892,6.2892,6.2892,6.2892,6.2892,6.2892,6.2892,6.2892,6.2892,6.2892,6.2892,6.2892,6.2892,6.2892,6.2892,6.2892,6.2892,6.2892,6.2892,6.2892,6.2892,6.2892,6.2892,6.2892,6.2892,6.2892,6.2892,0.0,0.0,0.0,0.0,0.0,0.0,0.0,0.0,0.0,0.0,0.0,0.0,0.0,0.0,0.0,0.0,0.0,0.0,0.0,0.0,5.248,5.248,5.248,5.248,5.248,5.248,5.248,5.248,5.248,5.2552,5.2661,0.0,0.0,0.0,0.0,0.0,0.0,0.0,0.0,0.0,0.0,0.0,0.0,0.0,0.0,0.0,0.0,0.0,0.0,0.0,5.3277,5.3309,5.3791,5.4725,5.5768,5.6345,5.7806,5.9262,5.9262,5.9835,6.0422,6.0422,6.0422,6.0422,6.0422,6.0422,6.0422,6.0422,0.0,6.0422,6.0422,6.0499,6.0828,6.1631,0.0,6.2242,6.3121,6.3236,6.3236,6.3236,6.3236,6.3236,6.3236,6.3923,6.4359,6.4359,6.3656,6.3236,6.3236,6.3236,6.3236,6.3236,6.3236,6.3236,6.3236,6.3236,6.3236,6.3236,6.3236,6.3236,6.3236,6.3236,6.3236,6.3236,6.3236,6.3236,6.3236,6.3236,6.3236,6.3236,6.3236,6.3236,6.3236,6.3236,6.3236,6.3236,0.0,0.0,0.0,0.0,0.0,0.0,0.0,0.0,0.0,0.0,5.0519,5.1378,0.0,0.0,0.0,0.0,0.0,0.0,0.0,0.0,0.0,5.248,5.248,5.248,5.248,5.248,5.248,5.248,5.248,5.2842,5.3494,0.0,0.0,0.0,0.0,0.0,0.0,0.0,0.0,0.0,0.0,0.0,0.0,0.0,0.0,0.0,0.0,0.0,0.0,0.0,5.3739,5.3445,5.4782,5.5818,5.6836,5.8196,5.9335,6.0179,6.0179,6.0255,6.0422,6.0422,6.0422,6.0422,6.0422,6.0422,0.0,0.0,6.0422,6.0422,6.0422,6.0943,6.1669,6.2548,6.3274,6.4038,6.484,6.4955,6.4955,0.0,6.4955,6.4955,6.4955,6.5108,6.5184,6.5184,6.507,6.4955,6.4955,6.4955,6.4955,6.4955,6.4955,6.4955,6.4955,6.4955,6.4955,6.4955,6.4955,6.4955,6.4955,6.4955,6.4955,6.4955,6.4955,6.4955,6.4955,6.4955,6.4955,6.4955,6.4955,6.4955,6.4955,6.4955,6.4955,6.4955,0.0,0.0,0.0,0.0,0.0,0.0,0.0,4.8001,4.8131,4.8482,4.9478,5.0307,5.0689,5.1404,5.1873,0.0,0.0,0.0,0.0,0.0,0.0,0.0,0.0,0.0,5.248,5.248,5.248,5.248,0.0,5.3313,5.3711,5.4508,5.5088,5.5522,5.6283,0.0,0.0,0.0,0.0,0.0,0.0,0.0,0.0,0.0,0.0,0.0,0.0,0.0,0.0,0.0,5.3885,5.3481,5.5023,5.6096,5.7116,5.8673,5.972,6.0422,6.0422,6.0422,6.0422,6.0422,6.0422,6.0422,6.0422,0.0,0.0,0.0,6.0422,6.0422,6.0422,6.1058,0.0,6.2777,6.3618,6.4458,6.5299,6.5413,6.5413,6.5413,6.5413,6.5413,6.5413,6.5413,6.5413,6.5413,6.5413,6.5413,6.5413,6.5413,6.5413,6.5413,6.5413,6.5413,6.5413,6.5413,6.5413,6.5413,6.5413,6.5413,6.5413,6.5413,6.5413,6.5413,6.5413,6.5413,6.5413,6.5413,6.5413,6.5413,6.5413,6.5413,6.5413,6.5413,6.5413,6.5413,0.0,0.0,0.0,0.0,0.0,0.0,0.0,4.8001,4.8001,4.8001,4.848,4.9097,4.9653,5.0554,5.1138,0.0,0.0,0.0,0.0,0.0,0.0,0.0,0.0,0.0,0.0,0.0,0.0,5.248,5.3313,0.0,0.0,0.0,0.0,0.0,5.6899,5.7188,5.7188,0.0,0.0,0.0,0.0,0.0,0.0,0.0,0.0,0.0,0.0,0.0,0.0,0.0,5.3995,5.3481,5.521,5.6246,5.7137,5.8775,5.9779,6.0422,6.0422,6.0422,6.0422,6.0422,6.0422,6.0422,6.0422,6.0422,0.0,6.0422,6.0422,6.0422,6.0422,6.1058,6.1898,0.0,6.3618,6.4458,6.5299,6.5413,6.5413,0.0,6.5413,0.0,6.5413,6.5413,6.5413,6.5413,6.5413,6.5413,6.5413,6.5413,6.5413,6.5413,6.5413,6.5413,6.5413,6.5413,6.5413,6.5413,6.5413,6.5413,6.5413,6.5413,6.5413,6.5413,6.5413,6.5413,6.5413,6.5413,6.5413,6.5413,6.5413,6.5413,6.5413,6.5413,6.5413,6.5413,0.0,0.0,0.0,0.0,0.0,0.0,0.0,4.8001,4.8001,4.8001,4.8066,4.8131,4.8195,4.9482,5.0581,0.0,0.0,0.0,0.0,0.0,0.0,0.0,0.0,0.0,0.0,0.0,0.0,5.248,5.3313,0.0,0.0,0.0,0.0,0.0,0.0,5.7188,5.7188,5.7188,0.0,0.0,0.0,0.0,0.0,0.0,0.0,0.0,0.0,0.0,0.0,0.0,0.0,5.3613,5.5939,5.6752,5.7198,5.9154,0.0,0.0,6.0422,6.0422,6.0422,6.0422,6.0422,6.0422,6.0422,0.0,6.0422,6.0422,6.0422,6.0422,6.0422,6.1058,6.1898,0.0,0.0,6.4458,6.5299,6.5413,6.5413,6.5413,0.0,0.0,6.5413,6.5413,6.5413,6.5413,6.5413,6.5413,6.5413,6.5413,6.5413,6.5413,6.5413,6.5413,6.5413,6.5413,6.5413,6.5413,6.5413,6.5413,6.5413,6.5413,6.5413,6.5413,6.5413,6.5413,6.5413,6.5413,6.5413,6.5413,6.5413,6.5413,6.5413,6.5413,6.5413,6.5413,0.0,0.0,0.0,0.0,0.0,0.0,4.8001,4.8001,4.8001,4.8001,4.8001,4.8001,4.8001,4.8511,4.9154,4.9913,0.0,0.0,0.0,0.0,0.0,0.0,0.0,0.0,0.0,0.0,5.248,5.248,5.3784,0.0,0.0,0.0,0.0,0.0,0.0,5.7188,5.7188,0.0,0.0,0.0,0.0,0.0,0.0,0.0,0.0,0.0,0.0,0.0,5.5186,0.0,0.0,0.0,5.5135,5.6163,0.0,0.0,6.0285,6.0422,6.0422,6.0422,6.0422,6.0422,6.0422,6.0422,6.0422,0.0,6.0422,6.0422,6.0422,6.0422,6.0422,6.1058,6.1898,6.2777,6.3618,0.0,6.5299,6.5413,6.5413,6.5413,6.5413,0.0,0.0,6.5413,6.5413,6.5413,6.5413,6.5413,6.5413,6.5413,6.5413,6.5413,6.5413,6.5413,6.5413,6.5413,6.5413,6.5413,6.5413,6.5413,6.5413,6.5413,6.5413,6.5413,6.5413,6.5413,6.5413,6.5413,6.5413,6.5413,6.5413,6.5413,6.5413,6.5413,6.5413,6.5413,0.0,0.0,0.0,0.0,0.0,4.8332,4.8332,4.8498,4.8663,4.8663,4.8663,4.8663,4.8663,4.8663,4.8761,4.9068,4.9772,0.0,0.0,0.0,0.0,0.0,0.0,0.0,0.0,0.0,5.248,5.248,5.3856,5.4689,0.0,0.0,5.6971,5.7188,0.0,0.0,0.0,0.0,0.0,0.0,0.0,0.0,0.0,0.0,0.0,0.0,0.0,0.0,0.0,0.0,0.0,0.0,0.0,0.0,0.0,0.0,6.0122,6.0422,6.0422,6.0422,6.0422,6.0422,6.0422,6.0422,0.0,0.0,6.0422,6.0422,6.0422,6.0422,6.0422,6.0867,6.1516,6.2395,6.3236,6.4076,6.4917,6.5261,6.5413,6.5413,0.0,6.5413,6.5413,6.5413,6.5413,6.5413,6.5413,6.5413,6.5413,6.5413,6.5413,6.5413,6.5413,6.5413,6.5413,6.5413,6.5413,6.5413,6.5413,6.5413,6.5413,6.5413,6.5413,6.5413,6.5413,6.5413,6.5413,6.5413,6.5413,6.5413,6.5413,6.5413,6.5413,6.5413,6.5413,6.5413,0.0,0.0,0.0,0.0,0.0,0.0,4.9094,4.9723,5.0187,5.0187,5.0187,5.0187,5.0187,5.0187,4.9889,4.916,4.9263,0.0,0.0,0.0,0.0,0.0,0.0,0.0,0.0,0.0,5.248,5.248,5.3313,5.411,5.4943,5.5667,5.6428,5.7188,0.0,0.0,0.0,0.0,0.0,0.0,0.0,0.0,0.0,0.0,0.0,0.0,0.0,0.0,0.0,0.0,0.0,0.0,0.0,0.0,0.0,0.0,5.9414,6.0422,6.0422,6.0422,6.0422,6.0422,6.0422,6.0422,0.0,0.0,6.0422,6.0422,6.0422,6.0422,6.0422,6.0422,6.0676,6.1478,6.2357,0.0,6.4091,6.4879,6.5413,0.0,6.5413,6.5413,6.5413,6.5413,6.5413,6.5413,6.5413,6.5413,6.5413,6.5413,6.5413,6.5413,6.5413,6.5413,6.5413,6.5413,6.5413,6.5413,6.5413,6.5413,6.5413,6.5413,6.5413,6.5413,6.5413,6.5413,6.5413,6.5413,6.5413,6.5413,6.5413,6.5413,6.5413,6.5413,6.5413,6.5413,0.0,0.0,0.0,0.0,0.0,0.0,0.0,5.0055,5.022,5.022,5.022,5.022,5.022,5.022,5.0121,4.9889,4.9525,0.0,0.0,0.0,0.0,0.0,0.0,0.0,0.0,0.0,5.248,5.248,5.3313,5.411,5.4943,5.5631,5.6428,5.7188,5.7188,5.7188,0.0,0.0,0.0,0.0,0.0,0.0,0.0,0.0,0.0,0.0,0.0,0.0,0.0,0.0,0.0,0.0,0.0,0.0,0.0,0.0,0.0,0.0,6.0422,6.0422,6.0422,6.0422,6.0422,6.0422,6.0422,6.0422,6.0422,6.0422,6.0422,6.0422,6.0422,6.0422,6.0637,6.1478,6.2319,6.3197,0.0,0.0,0.0,6.5413,6.5413,6.5413,6.5413,6.5413,6.5413,6.5413,6.5413,6.5413,6.5413,6.5413,6.5413,6.5413,6.5413,6.5413,6.5413,6.5413,6.5413,6.5413,6.5413,6.5413,6.5413,6.5413,6.5413,6.5413,6.5413,6.5413,6.5413,6.5413,6.5413,6.5413,6.5413,6.5413,6.5413,6.5413,6.5413,6.5413,0.0,0.0,0.0,0.0,0.0,0.0,0.0,5.085,5.1015,5.1015,5.1015,5.1015,5.1015,5.1015,5.0916,5.0651,5.0256,0.0,0.0,0.0,0.0,0.0,0.0,0.0,5.1465,5.1848,5.2209,5.248,5.2987,5.382,5.4907,5.5377,5.6174,5.7188,5.7188,5.7188,0.0,0.0,0.0,0.0,0.0,0.0,5.6645,0.0,0.0,0.0,0.0,0.0,0.0,0.0,0.0,0.0,0.0,0.0,0.0,0.0,0.0,0.0,0.0,6.0422,6.0422,6.0422,6.0422,0.0,0.0,6.0422,6.0422,6.0422,6.0422,6.0422,6.0422,6.0422,6.0561,6.1058,6.2128,6.3083,0.0,0.0,0.0,6.5413,6.5413,6.5413,6.5413,6.5413,6.5413,6.5413,6.5413,6.5413,6.5413,6.5413,6.5413,6.5413,6.5413,6.5413,6.5413,6.5413,6.5413,6.5413,6.5413,6.5413,6.5413,6.5413,6.5413,6.5413,6.5413,6.5413,0.0,6.5413,6.5413,6.5413,6.5413,6.5413,6.5413,6.5413,6.5413,6.5413,0.0,0.0,0.0,0.0,0.0,0.0,0.0,5.1978,5.2409,5.2409,5.2409,5.2409,5.2409,5.2409,5.2144,5.1448,0.0,0.0,0.0,0.0,0.0,0.0,0.0,0.0,5.1367,5.1444,5.1869,5.2661,5.2661,5.3458,5.4979,5.4979,5.5776,5.7188,5.7152,5.708,0.0,0.0,0.0,0.0,0.0,0.0,0.0,0.0,0.0,0.0,0.0,0.0,0.0,0.0,0.0,0.0,0.0,0.0,0.0,0.0,0.0,0.0,0.0,6.0422,6.0422,6.0422,0.0,0.0,0.0,0.0,0.0,6.0422,6.0422,6.0422,6.0422,6.0422,6.0422,6.0422,6.1745,6.2853,6.2892,6.4344,6.5413,6.5413,6.5413,6.5413,6.5413,6.5413,6.5413,6.5413,6.5413,6.5413,6.5413,6.5413,6.5413,6.5413,6.5413,6.5413,6.5413,6.5413,6.5413,6.5413,6.5413,6.5413,6.5413,6.5413,6.5413,6.5413,6.5413,6.5413,6.5413,6.5413,6.5413,6.5413,6.5413,6.5413,6.5413,6.5452,6.549,6.549,0.0,0.0,0.0,0.0,0.0,0.0,0.0,0.0,0.0,0.0,5.2409,5.2409,5.2409,5.2409,5.2307,0.0,0.0,0.0,0.0,0.0,0.0,0.0,0.0,0.0,5.2425,5.3007,5.3626,5.4327,5.4327,5.4834,5.574,5.574,5.6247,5.7152,5.6536,5.5957,0.0,0.0,0.0,0.0,0.0,0.0,0.0,0.0,0.0,0.0,5.3294,5.312,0.0,0.0,0.0,0.0,0.0,0.0,0.0,0.0,5.8612,5.9568,6.0217,0.0,6.0422,6.0422,6.0422,6.0422,0.0,0.0,0.0,0.0,0.0,0.0,0.0,6.0422,6.0422,6.0422,6.1249,6.2128,6.2815,6.4344,6.5413,6.5413,6.5413,6.5413,6.5413,6.5413,6.5413,6.5413,6.5413,6.5413,6.5413,6.5413,6.5413,6.5413,6.5413,6.5413,6.5413,6.5413,6.5413,6.5413,6.5413,6.5413,6.5413,6.5413,6.5413,6.5413,6.5413,6.5413,6.5413,6.5413,6.5413,6.5413,6.5413,6.5413,6.549,6.6139,6.6407,6.6483,0.0,0.0,0.0,0.0,0.0,0.0,0.0,0.0,0.0,0.0,0.0,5.2409,5.2409,0.0,0.0,0.0,0.0,0.0,0.0,0.0,0.0,0.0,0.0,5.1623,5.2349,5.3043,5.3736,5.4464,5.4749,5.5269,5.5993,5.5631,5.5921,5.6609,5.5848,5.5269,0.0,0.0,0.0,0.0,5.4508,0.0,0.0,0.0,0.0,0.0,5.3054,5.313,0.0,5.3624,5.398,5.4347,0.0,0.0,0.0,0.0,5.8459,5.93,6.0141,6.0422,6.0422,6.0422,6.0422,6.0422,6.0422,0.0,0.0,0.0,0.0,0.0,0.0,0.0,6.0422,6.0422,6.1096,6.2051,6.3312,6.4611,6.5413,6.5413,6.5413,6.5413,6.5413,6.5413,6.5413,6.5413,6.5413,6.5413,6.5413,6.5413,6.5413,6.5413,6.5413,6.5413,6.5413,6.5413,6.5413,6.5413,6.5413,6.5413,6.5413,6.5413,6.5413,6.5413,6.5413,6.5413,6.5413,6.5834,6.5987,6.6025,6.6407,6.656,6.6598,6.7095,6.7247,6.7324,0.0,0.0,0.0,0.0,0.0,0.0,0.0,0.0,0.0,0.0,0.0,0.0,0.0,0.0,0.0,0.0,0.0,0.0,0.0,0.0,0.0,0.0,0.0,5.139,5.2118,5.2726,5.3422,5.4287,5.4849,5.5485,5.6174,5.5414,5.5269,5.5595,5.5015,5.4653,0.0,0.0,5.4544,5.4472,5.3784,0.0,0.0,0.0,0.0,0.0,0.0,0.0,0.0,5.3851,5.4068,5.443,5.4776,0.0,0.0,0.0,0.0,0.0,6.0141,6.0422,6.0422,6.0422,6.0422,6.0422,6.0422,0.0,0.0,0.0,0.0,0.0,0.0,6.0422,0.0,6.0422,6.1172,6.2319,6.377,6.4802,6.5413,6.5413,6.5413,6.5413,6.5413,6.5413,6.5413,6.5413,6.5413,6.5413,6.5413,6.5413,6.5413,6.5413,6.5413,6.5413,6.5413,6.5413,6.5413,6.5413,6.5413,6.5413,6.5413,6.5413,6.5413,6.5413,6.5528,6.5605,6.5681,6.6522,6.6865,6.6942,6.763,6.7897,6.7897,6.805,6.8088,6.8126,0.0,0.0,0.0,0.0,0.0,0.0,0.0,0.0,0.0,0.0,0.0,0.0,0.0,0.0,0.0,0.0,0.0,0.0,0.0,0.0,0.0,5.2701,5.2635,5.291,5.3727,5.4011,5.4715,5.5927,5.6036,5.64,5.7007,5.621,5.5196,5.4037,5.3929,5.3494,5.2878,5.2878,5.2878,5.2842,5.2733,0.0,0.0,0.0,0.0,0.0,0.0,0.0,0.0,5.4409,5.4685,5.4776,5.5168,0.0,0.0,0.0,0.0,0.0,5.9988,6.0422,6.0422,6.0422,6.0422,6.0422,6.0422,0.0,0.0,0.0,0.0,0.0,0.0,6.0422,6.0422,6.0422,6.1707,6.2777,6.3045,6.442,6.5413,6.5413,6.5413,6.5413,6.5413,6.5413,6.5413,6.5413,6.5413,6.5413,6.5413,6.5413,6.5413,6.5413,6.5413,6.5413,6.5413,6.5413,6.5413,6.5413,6.5413,6.5413,6.5413,6.5413,6.5413,6.5452,6.6178,6.6522,6.656,6.7362,6.7706,6.7706,6.7859,6.7897,6.7973,6.8738,6.9005,6.9082,0.0,0.0,0.0,0.0,0.0,0.0,0.0,0.0,0.0,0.0,0.0,0.0,0.0,0.0,0.0,0.0,0.0,0.0,0.0,0.0,0.0,5.3041,5.3041,5.3281,5.3749,5.4203,5.4703,5.5243,5.5943,5.6447,5.6678,5.5808,5.4544,5.3059,5.3059,5.2842,5.248,5.248,5.248,5.248,0.0,0.0,0.0,0.0,0.0,0.0,0.0,0.0,0.0,0.0,5.4947,5.5154,5.5364,0.0,0.0,0.0,0.0,0.0,5.995,6.0422,6.0422,6.0422,6.0422,6.0422,6.0422,0.0,0.0,0.0,0.0,0.0,0.0,6.0422,6.0422,6.0422,6.1822,6.2892,6.2892,6.4344,6.5413,6.5413,6.5413,6.5413,6.5413,6.5413,6.5413,6.5413,6.5413,6.5413,6.5413,6.5413,6.5413,6.5413,6.5413,6.5413,6.5413,6.5413,6.5413,6.5413,6.5413,6.5413,6.5413,6.5413,6.5643,6.6139,6.6522,6.6942,6.74,6.8241,6.8585,6.8661,6.9082,6.9234,6.9311,6.9693,6.9846,6.9922,0.0,0.0,0.0,0.0,0.0,0.0,0.0,0.0,0.0,0.0,0.0,0.0,0.0,0.0,0.0,0.0,0.0,0.0,0.0,0.0,5.2834,5.3179,5.3247,5.3348,5.3518,5.3946,5.4267,5.4391,5.5543,5.6051,5.5964,5.5252,5.4037,5.248,5.248,5.248,5.248,5.248,5.248,5.248,0.0,0.0,0.0,0.0,0.0,0.0,0.0,0.0,0.0,0.0,0.0,0.0,0.0,0.0,0.0,5.7428,5.7886,5.8268,5.995,6.0422,6.0422,6.0422,6.0422,6.0422,0.0,0.0,0.0,0.0,0.0,0.0,0.0,6.0422,6.0422,6.0422,6.1822,6.2892,6.2892,6.4344,6.5413,6.5413,6.5413,6.5413,6.5413,6.5413,6.5413,6.5413,6.5413,6.5413,6.5413,6.5413,6.5413,6.5413,6.5413,6.5413,6.5413,6.5413,6.5413,6.5413,6.5413,6.5413,6.5413,6.5605,6.6063,6.6713,6.7133,6.763,6.8279,6.912,6.9464,6.954,7.0151,7.0419,7.0419,7.0419,7.0419,7.0419,0.0,0.0,0.0,0.0,0.0,0.0,0.0,0.0,0.0,0.0,0.0,0.0,0.0,0.0,0.0,0.0,0.0,0.0,0.0,0.0,5.2972,5.3179,5.3382,5.3518,5.3518,5.3517,5.3849,5.4391,5.5099,5.5289,5.4978,5.4919,5.4037,5.248,5.248,5.248,5.248,5.248,5.248,5.248,5.248,0.0,0.0,0.0,0.0,0.0,0.0,0.0,0.0,0.0,0.0,0.0,0.0,0.0,5.5747,5.7428,5.7886,5.8268,5.995,6.0422,6.0422,6.0422,6.0422,0.0,6.0422,6.0422,0.0,6.0422,0.0,0.0,0.0,6.0422,6.0422,6.0422,6.1822,6.2892,6.2892,6.4344,6.5413,6.5413,6.5413,6.5413,6.5413,6.5413,6.5413,6.5413,6.5413,6.5413,6.5413,6.5413,6.5413,6.5413,6.5413,6.5413,6.5413,6.5413,6.5413,6.5413,6.5413,6.5413,6.5413,6.6254,6.6636,6.6789,6.8356,6.9043,6.9158,6.9999,7.0304,7.0342,7.0381,7.0419,7.0419,7.0419,7.0419,7.0419,0.0,0.0,0.0,0.0,0.0,0.0,0.0,0.0,0.0,0.0,0.0,0.0,0.0,0.0,0.0,0.0,0.0,0.0,0.0,5.2868,5.3041,5.3382,5.345,5.3518,5.3518,5.3518,5.3618,5.3849,5.4892,5.5253,5.4907,5.4907,5.4037,5.248,5.248,5.248,5.248,5.248,5.248,5.248,5.248,5.248,0.0,0.0,0.0,0.0,0.0,0.0,0.0,0.0,5.5403,5.5403,5.5403,5.5403,5.5747,5.7428,5.7886,5.8268,5.995,6.0422,6.0422,6.0422,6.0422,0.0,0.0,6.0422,6.0422,6.0422,6.0422,0.0,0.0,6.0422,6.0422,6.0422,6.1822,6.2892,6.2892,6.4344,6.5413,6.5413,6.5413,6.5413,6.5413,6.5413,6.5413,6.5413,6.5413,6.5413,6.5413,6.5413,6.5413,6.5413,6.5413,6.5413,6.5413,6.5413,6.5413,6.5413,6.5413,6.5681,6.6216,6.656,6.7286,6.8279,6.8929,6.9464,6.996,7.0266,7.0419,7.0419,7.0419,7.0419,7.0419,7.0419,7.0419,7.0419,0.0,0.0,0.0,0.0,0.0,0.0,0.0,0.0,0.0,0.0,0.0,0.0,0.0,0.0,0.0,0.0,0.0,0.0,5.2799,5.2868,5.3041,5.3382,5.3484,5.3518,5.3518,5.3518,5.3584,5.3783,5.5074,5.5418,5.4907,5.4907,5.4037,5.248,5.248,5.248,5.248,5.248,5.248,5.248,5.248,5.248,0.0,0.0,0.0,0.0,0.0,0.0,0.0,0.0,5.5403,5.5403,5.5403,5.5556,5.6052,5.7466,5.8077,5.8574,5.9988,6.0422,6.0422,6.0422,0.0,0.0,6.0422,6.0422,6.0422,6.0422,6.0422,6.0422,6.0422,0.0,6.0422,6.0422,6.1593,6.2586,6.2853,6.4114,6.5108,6.5375,6.5413,6.5413,6.5413,6.5413,6.5413,6.5413,6.5413,6.5413,6.5413,6.5413,6.5413,6.5413,6.5413,6.5413,6.5413,6.5413,6.5413,6.5413,6.5681,6.6139,6.6713,6.698,6.7859,6.9196,6.9464,6.9884,7.0419,7.0419,7.0419,7.0419,7.0419,7.0419,7.0419,7.0419,7.0419,7.0419,0.0,0.0,0.0,0.0,0.0,0.0,0.0,0.0,0.0,0.0,0.0,0.0,0.0,0.0,0.0,0.0,0.0,0.0,5.2589,5.2799,5.2972,5.3179,5.3382,5.3518,5.3518,5.3518,5.3816,5.4391,5.5687,5.5793,5.4882,5.4907,5.4037,5.248,5.248,5.248,5.248,5.248,5.248,5.248,5.248,5.248,5.2503,0.0,0.0,0.0,0.0,0.0,0.0,0.0,5.5403,5.5403,5.5403,5.5938,5.6778,5.7619,5.8459,5.93,6.0141,6.0422,6.0422,6.0422,0.0,0.0,6.0422,6.0422,6.0422,6.0422,6.0422,6.0422,6.0422,6.0422,6.0422,6.0422,6.1096,6.1898,6.2777,6.3656,6.4511,6.5299,6.5413,6.5413,6.5413,6.5413,6.5413,6.5413,6.5413,6.5413,6.5413,6.5413,6.5413,6.5413,6.5413,6.5413,6.5413,6.5413,6.5413,6.5413,6.6292,6.6713,6.6751,6.7553,6.8394,6.9273,7.0037,7.0419,7.0419,7.0419,7.0419,7.0419,7.0419,7.0419,7.0419,7.0419,7.0419,7.0419,0.0,0.0,0.0,0.0,0.0,0.0,0.0,0.0,0.0,0.0,0.0,0.0,0.0,0.0,0.0,0.0,0.0,0.0,5.2799,5.2868,5.3041,5.3382,5.345,5.3518,5.3518,5.3913,5.4235,5.4391,5.5249,5.5162,5.4225,5.4675,5.4037,5.248,5.248,5.248,5.248,5.248,5.248,5.248,5.248,5.248,5.2526,0.0,0.0,0.0,0.0,0.0,0.0,0.0,0.0,0.0,5.5403,5.5938,5.6778,5.7619,5.8459,5.93,6.0141,6.0422,6.0422,6.0477,6.0491,0.0,0.0,6.048,0.0,0.0,6.0412,6.0422,6.0422,6.0422,6.0422,6.0422,6.1096,6.1898,6.2777,6.3656,6.4511,6.5299,6.5413,6.5413,6.5413,6.5413,6.5413,6.5413,6.5413,6.5413,6.5413,6.5413,6.5413,6.5413,6.5413,6.5413,6.5413,6.5413,6.5413,6.5413,6.6292,6.7018,6.7553,6.8432,6.9273,7.0075,7.0304,7.0419,7.0419,7.0419,7.0419,7.0419,7.0419,7.0419,7.0419,7.0419,7.0419,7.0419,0.0,0.0,0.0,0.0,0.0,0.0,0.0,0.0,0.0,0.0,0.0,0.0,0.0,0.0,0.0,0.0,0.0,0.0,0.0,5.2938,5.311,5.3382,5.3484,5.3518,5.3518,5.3882,5.4171,5.4391,5.5308,5.5135,5.3894,5.4564,5.4037,5.248,5.248,5.248,5.248,5.248,5.248,5.248,5.248,5.248,5.2503,0.0,0.0,0.0,0.0,0.0,0.0,0.0,0.0,0.0,5.5785,5.6434,5.7275,5.8116,5.8956,5.972,6.0297,6.0464,6.0477,6.0506,6.052,6.0584,6.061,0.0,0.0,0.0,6.0504,6.0464,6.0464,6.0464,6.0412,6.0384,6.079,6.1554,6.2739,6.335,6.4114,6.5261,6.5413,6.5413,6.5413,6.5413,6.5413,6.5413,6.5413,6.5413,6.5413,6.5413,6.5413,6.5413,6.5413,6.5413,6.5413,6.5413,6.5566,6.5948,6.6789,6.7591,6.8432,6.8967,6.9655,7.0419,7.0419,7.0419,7.0419,7.0419,7.0419,7.0419,7.0419,7.0419,7.0419,7.0419,7.0419,7.0419,0.0,0.0,0.0,0.0,0.0,0.0,0.0,0.0,0.0,0.0,0.0,0.0,0.0,0.0,0.0,0.0,0.0,0.0,0.0,0.0,5.3213,5.3213,5.3382,5.3551,5.3584,5.3584,5.3848,5.4485,5.5658,5.5445,5.4037,5.46,5.4074,5.2589,5.2516,5.248,5.248,5.248,5.248,5.248,5.248,5.248,5.248,5.248,0.0,0.0,0.0,0.0,0.0,0.0,0.0,0.0,5.6358,5.7199,5.8077,5.888,5.972,6.0398,6.0466,6.048,6.0545,6.0572,6.0597,6.0623,6.0685,6.0597,6.0558,6.0623,6.0571,6.0493,6.0493,6.048,6.0466,6.0436,6.0384,6.0981,6.2662,6.2892,6.3541,6.5184,6.5413,6.5413,6.5413,6.5413,6.5413,6.5413,6.5413,6.5413,6.5413,6.5413,6.5413,6.5413,6.5413,6.5413,6.5413,6.5413,6.5834,6.6713,6.7515,6.8356,6.9196,6.9273,6.9731,7.0419,7.0419,7.0419,7.0419,7.0419,7.0419,7.0419,7.0419,7.0419,7.0419,7.0419,7.0419,7.0419,0.0,0.0,0.0,0.0,0.0,0.0,0.0,0.0,0.0,0.0,0.0,0.0,0.0,0.0,0.0,0.0,0.0,0.0,0.0,0.0,5.328,5.3416,5.3484,5.3717,5.4203,5.4203,5.4551,5.5159,5.549,5.5341,5.4822,5.4889,5.4399,5.3422,5.277,5.248,5.248,5.248,5.248,5.248,5.248,5.248,5.248,5.248,5.3008,0.0,0.0,0.0,0.0,0.0,0.0,0.0,5.6358,5.7199,5.8077,5.888,5.9762,6.0466,6.0518,6.0558,6.0585,6.0648,6.071,6.0746,6.0757,6.071,6.0648,6.0673,6.061,6.0597,6.0597,6.0558,6.0518,6.0466,6.0412,6.0981,6.2662,6.2892,6.3541,6.5184,6.5413,6.5413,6.5413,6.5413,6.5413,6.5413,6.5413,6.5413,6.5413,6.5413,6.5413,6.5413,6.5413,6.5413,6.5413,6.5413,6.5834,6.6713,6.7515,6.8356,6.9234,6.9846,7.0228,7.0419,7.0419,7.0419,7.0419,7.0419,7.0419,7.0419,7.0419,7.0419,7.0419,7.0419,7.0419,7.0419,0.0,0.0,0.0,0.0,0.0,0.0,0.0,0.0,0.0,0.0,0.0,0.0,0.0,0.0,0.0,0.0,0.0,0.0,0.0,0.0,5.3314,5.3518,5.3518,5.3783,5.4391,5.4391,5.4887,5.5837,5.5837,5.5581,5.5098,5.4961,5.4472,5.3675,5.2842,5.248,5.248,5.248,5.248,5.248,5.248,5.248,5.248,5.248,5.2944,5.3587,5.3832,0.0,0.0,0.0,0.0,0.0,0.0,0.0,5.8651,5.9491,6.0054,6.0491,6.0506,6.0559,6.061,6.071,0.0,6.0781,6.0781,6.0757,6.0734,6.0734,6.0685,6.0635,6.0635,6.061,6.0559,6.0493,6.0491,6.1023,6.2662,6.2892,6.3541,6.5184,6.5413,6.5413,6.5413,6.5413,6.5413,6.5413,6.5413,6.5413,6.5413,6.5413,6.5413,6.5413,6.5413,6.5413,6.5413,6.5796,6.6445,6.7286,6.8126,6.8967,6.9807,7.0228,7.0419,7.0419,7.0419,7.0419,7.0419,7.0419,7.0419,7.0419,7.0419,7.0419,7.0419,7.0419,7.0419,7.0419,0.0,0.0,0.0,0.0,0.0,0.0,0.0,0.0,0.0,0.0,0.0,0.0,0.0,0.0,0.0,0.0,0.0,0.0,0.0,0.0,0.0,5.3651,5.3685,5.3979,5.4734,5.4734,5.5308,5.6447,5.6447,5.6125,5.5446,5.5191,5.4689,5.3856,5.3059,5.2625,5.248,5.248,5.248,5.248,5.248,5.248,5.248,5.248,5.285,5.3387,5.374,5.4276,5.4905,5.5423,0.0,0.0,0.0,0.0,5.9262,6.0141,6.0422,6.0425,6.0533,6.0585,6.0635,6.0757,6.0781,0.0,6.0781,6.0781,6.0781,6.0781,6.0746,6.071,6.071,6.0697,6.0648,6.052,6.0531,6.1065,6.2662,6.2892,6.3541,6.5184,6.5413,6.5413,6.5413,6.5413,6.5413,6.5413,6.5413,6.5413,6.5413,6.5413,6.5413,6.5413,6.5413,6.5413,6.5413,6.6254,6.7095,6.7897,6.8929,6.9769,7.0419,7.0419,7.0419,7.0419,7.0419,7.0419,7.0419,7.0419,7.0419,7.0419,7.0419,7.0419,7.0419,7.0419,7.0419,7.0419,0.0,0.0,0.0,0.0,0.0,0.0,0.0,0.0,0.0,0.0,0.0,0.0,0.0,0.0,0.0,0.0,0.0,0.0,0.0,0.0,0.0,5.4267,5.4299,5.4857,5.5999,5.6063,5.6393,5.7087,5.7087,5.7015,5.6906,5.6186,5.545,5.4689,5.3892,5.3132,5.248,5.248,5.248,5.248,5.248,5.248,5.248,5.248,5.2731,5.313,5.3548,5.405,5.4657,5.5864,5.6417,0.0,0.0,0.0,5.9262,6.0141,6.0425,6.0466,6.0531,6.0585,6.0697,6.0769,6.0781,6.0781,0.0,6.0781,6.0781,6.0781,6.0781,6.0769,6.0769,6.0734,6.066,6.0585,6.0558,6.1065,6.2662,6.2892,6.3541,6.5184,6.5413,6.5413,6.5413,6.5413,6.5413,6.5413,6.5413,6.5413,6.5413,6.5413,6.5413,6.5413,6.5413,6.5413,6.5413,6.6254,6.7095,6.7897,6.9502,7.0304,7.0419,7.0419,7.0419,7.0419,7.0419,7.0419,7.0419,7.0419,7.0419,7.0419,7.0419,7.0419,7.0419,7.0419,7.0419,7.0419,0.0,0.0,0.0,0.0,0.0,0.0,0.0,0.0,0.0,0.0,0.0,0.0,0.0,0.0,0.0,5.2516,0.0,0.0,0.0,0.0,0.0,5.4391,5.4765,5.5367,5.6284,5.6311,5.6582,5.7188,5.7188,5.7188,5.7188,5.6826,5.6029,5.487,5.4074,5.3241,5.248,5.248,5.248,5.248,5.248,5.248,5.248,5.248,5.2963,5.3646,5.399,5.4783,5.5856,5.6564,5.7344,5.8116,5.888,0.0,0.0,0.0,6.0436,6.0477,6.0558,6.061,6.071,6.0769,6.0781,6.0781,6.0781,6.0781,6.0781,6.0781,6.0781,6.0781,6.0781,6.0757,6.0722,6.066,6.0968,6.163,6.2772,6.3341,6.4076,6.5261,6.5413,6.5413,6.5413,6.5413,6.5413,6.5413,6.5413,6.5413,6.5413,6.5413,6.5413,6.5413,6.5413,6.5413,6.5413,6.6713,6.8012,6.9311,7.0075,7.0419,7.0419,7.0419,7.0419,7.0419,7.0419,7.0419,7.0419,7.0419,7.0419,7.0419,7.0419,7.0419,7.0419,7.0419,7.0419,7.0419,0.0,0.0,0.0,0.0,0.0,0.0,0.0,0.0,0.0,0.0,0.0,0.0,0.0,0.0,0.0,0.0,5.2729,0.0,0.0,0.0,0.0,5.4887,5.5367,5.5922,5.6501,5.6528,5.674,5.7188,5.7188,5.7188,5.7188,5.7188,5.6464,5.516,5.4544,5.3856,5.3096,5.3096,5.3096,5.3096,5.3096,0.0,0.0,0.0,5.3621,0.0,5.4561,5.5438,5.6573,5.6995,5.7927,5.8916,5.9145,5.975,0.0,0.0,0.0,6.045,6.052,6.0597,6.066,6.0746,6.0757,6.0769,6.0781,6.0781,6.0781,6.0781,6.0781,6.0781,6.0781,6.0781,6.0769,6.0697,6.1326,6.2092,6.2905,6.3676,6.4511,6.5299,6.5413,6.5413,6.5413,6.5413,6.5413,6.5413,6.5413,6.5413,6.5413,6.5413,6.5413,6.5413,6.5413,6.549,6.5719,6.74,6.8967,7.0419,7.0419,7.0419,7.0419,7.0419,7.0419,7.0419,7.0419,7.0419,7.0419,7.0419,7.0419,7.0419,7.0419,7.0419,7.0419,7.0419,7.0419,7.0419,0.0,0.0,0.0,0.0,0.0,0.0,0.0,0.0,0.0,0.0,0.0,0.0,5.4852,5.4267,5.364,5.2935,5.3041,5.3517,5.4296,5.4391,0.0,5.6174,5.6229,0.0,5.7138,5.7138,5.7163,5.7188,5.7188,5.7188,5.7188,5.7188,5.6754,5.5921,5.5884,5.545,5.4798,5.4798,5.4798,5.4798,0.0,0.0,0.0,0.0,0.0,5.4906,5.5149,5.5442,5.5834,5.6908,5.7772,5.85,5.9294,5.9962,6.0422,0.0,0.0,0.0,6.0504,6.0531,6.0533,6.066,6.0697,6.071,6.0769,6.0781,6.0781,6.0781,6.0781,6.0781,6.0781,6.0781,6.0769,6.0697,6.1326,6.2092,6.2905,6.3676,6.4511,6.5299,6.5413,6.5413,6.5413,6.5413,6.5413,6.5413,6.5413,6.5413,6.5413,6.5413,6.5413,6.5413,6.5413,6.5796,6.6636,6.8279,6.9578,7.0419,7.0419,7.0419,7.0419,7.0419,7.0419,7.0419,7.0419,7.0419,7.0419,7.0419,7.0419,7.0419,7.0419,7.0419,7.0419,7.0419,7.0419,7.0419,0.0,0.0,0.0,0.0,0.0,0.0,0.0,0.0,0.0,0.0,0.0,0.0,0.0,5.4408,5.3777,5.3143,5.3616,5.4072,5.4391,5.5189,0.0,5.6284,5.6661,5.6984,5.7188,5.7188,5.7188,5.7188,5.7188,5.7188,5.7188,5.7188,5.7043,5.6754,5.621,5.5595,5.4907,5.4907,0.0,5.4907,5.4907,0.0,0.0,0.0,5.5196,5.5619,5.5704,5.635,5.7221,5.7611,5.8148,5.8745,5.9403,5.9717,5.9931,6.0299,0.0,6.0398,6.0466,6.048,6.052,6.066,6.0697,6.071,6.0769,6.0781,6.0781,6.0781,6.0781,6.0781,6.0781,6.0781,6.0781,6.0757,6.1812,6.2719,6.2998,6.4149,6.507,6.5375,6.5413,6.5413,6.5413,6.5413,6.5413,6.5413,6.5413,6.5413,6.5413,6.5413,6.5413,6.5413,6.5413,6.6063,6.7477,6.8623,6.9616,7.0419,7.0419,7.0419,7.0419,7.0419,7.0419,7.0419,7.0419,7.0419,7.0419,7.0419,7.0419,7.0419,7.0419,7.0419,7.0419,7.0419,7.0419,7.0419,0.0,0.0,0.0,0.0,0.0,0.0,0.0,0.0,0.0,0.0,0.0,0.0,0.0,0.0,5.4905,5.4014,5.4422,5.4826,5.5004,5.583,5.6393,5.6582,5.6984,5.7188,5.7188,5.7188,5.7188,5.7188,5.7188,5.7188,5.7188,5.7188,5.7188,5.7188,5.6645,5.6138,0.0,5.5667,5.5667,5.5667,5.5667,5.5667,5.5667,5.5667,5.5993,5.6391,5.6391,5.6952,5.7747,5.7747,5.8106,5.8639,5.9028,5.9357,0.0,0.0,0.0,0.0,6.0439,0.0,0.0,6.0597,6.0623,6.0648,6.071,6.0722,6.0722,6.0722,6.0722,6.0722,6.0746,6.0757,6.0757,6.0781,6.2106,6.3142,6.3115,6.4461,6.5444,6.5413,6.5413,6.5413,6.5413,6.5413,6.5413,6.5413,6.5413,6.5413,6.5413,6.5413,6.5413,6.5413,6.5948,6.6751,6.7897,6.9043,6.9884,7.0419,7.0419,7.0419,7.0419,7.0419,7.0419,7.0419,7.0419,7.0419,7.0419,7.0419,7.0419,7.0419,7.0419,7.0419,7.0419,7.0419,7.0419,7.0419,0.0,0.0,0.0,0.0,0.0,0.0,0.0,0.0,0.0,5.8355,0.0,0.0,0.0,0.0,0.0,5.5507,5.5432,5.5694,5.6257,5.6311,5.6582,5.7163,0.0,0.0,5.7188,5.7188,5.7188,5.7188,5.7188,5.7188,5.7188,5.7188,5.7188,5.7188,5.7188,5.7188,5.7188,5.7188,5.7188,5.7188,5.7188,5.7188,5.7188,5.7188,5.7188,5.7188,5.7188,5.7188,5.7188,5.7188,5.7629,5.815,5.8171,0.0,0.0,0.0,0.0,0.0,0.0,0.0,0.0,0.0,6.048,6.0531,6.0559,6.0585,6.0585,6.0585,6.0585,6.061,6.0673,6.0697,6.071,6.0769,6.2144,6.3156,6.3115,6.4465,6.5465,6.5429,6.5413,6.5413,6.5413,6.5413,6.5413,6.5413,6.5413,6.5413,6.5413,6.5413,6.5413,6.5452,6.7018,6.7897,6.7935,6.9578,7.0419,7.0419,7.0419,7.0419,7.0419,7.0419,7.0419,7.0419,7.0419,7.0419,7.0419,7.0419,7.0419,7.0419,7.0419,7.0419,7.0419,7.0419,7.0419,7.0419,0.0,0.0,0.0,0.0,0.0,0.0,0.0,0.0,5.8943,0.0,0.0,0.0,5.7798,5.6671,5.5859,5.5437,5.5808,5.6118,5.6284,5.6688,5.7036,5.7188,5.7188,5.7188,5.7188,5.7188,5.7188,5.7188,5.7188,5.7188,5.7188,5.7188,5.7188,0.0,5.7188,5.7188,5.7188,5.7188,5.7188,5.7188,5.7188,5.7188,5.7188,5.7188,5.7188,5.7188,5.7188,5.7188,5.7188,5.7188,5.7302,5.7558,5.8054,0.0,0.0,0.0,0.0,0.0,6.0422,0.0,0.0,0.0,0.0,0.0,6.0559,6.0585,6.0585,6.0585,6.0585,6.0623,6.061,6.066,6.0685,6.0648,6.2043,6.3129,6.3115,6.4461,6.5444,6.5413,6.5413,6.5413,6.5413,6.5413,6.5413,6.5413,6.5413,6.5413,6.5413,6.5413,6.5681,6.633,6.7362,6.8203,6.8814,6.9884,7.0419,7.0419,7.0419,7.0419,7.0419,7.0419,7.0419,7.0419,7.0419,7.0419,7.0419,7.0419,7.0419,7.0419,7.0419,7.0419,7.0419,7.0419,7.0419,7.0419,0.0,0.0,0.0,0.0,0.0,0.0,5.987,5.9867,5.9931,0.0,0.0,0.0,5.8666,5.7099,5.6138,5.6138,5.6474,5.6661,5.6661,5.701,5.7188,5.7188,5.7188,5.7188,5.7188,5.7188,5.7188,5.7188,5.7188,5.7188,5.7188,5.7188,5.7188,5.7188,0.0,0.0,0.0,0.0,5.7188,5.7188,5.7188,5.7188,5.7188,5.7188,5.7188,5.7188,5.7188,5.7188,5.7188,5.7188,5.7239,5.7412,5.8009,0.0,0.0,0.0,0.0,0.0,0.0,0.0,0.0,0.0,0.0,0.0,6.0531,6.0531,6.0531,6.0531,6.0531,6.0545,6.0533,6.0572,6.0597,6.0585,6.1977,6.3061,6.3061,6.4446,6.542,6.5413,6.5413,6.5413,6.5413,6.5413,6.5413,6.5413,6.5413,6.5413,6.5413,6.5413,6.5796,6.6674,6.7477,6.8317,6.9196,6.9999,7.0419,7.0419,7.0419,7.0419,7.0419,7.0419,7.0419,7.0419,7.0419,7.0419,7.0419,7.0419,7.0419,7.0419,7.0419,7.0419,7.0419,7.0419,7.0419,7.0419,0.0,0.0,0.0,0.0,0.0,0.0,0.0,6.058,6.0873,0.0,6.1348,6.1037,5.9615,5.8094,0.0,0.0,5.7188,5.7188,5.7188,5.7188,5.7188,5.7188,5.7188,5.7188,5.7188,5.7188,5.7188,5.7188,5.7188,5.7188,5.7188,5.7188,5.7188,5.7188,0.0,0.0,0.0,5.7188,5.7188,5.7188,5.7188,5.7188,5.7188,5.7188,5.7188,5.7188,5.7188,5.7188,5.7188,5.7188,5.7264,5.7486,5.7941,5.823,0.0,0.0,5.9568,0.0,0.0,0.0,0.0,0.0,6.0422,0.0,6.0422,6.0422,6.0422,6.0422,6.0422,6.0436,6.0491,6.048,6.0531,6.0546,6.1937,6.3006,6.3006,6.4461,6.5465,6.5429,6.5413,6.5413,6.5413,6.5413,6.5413,6.5413,6.5413,6.5413,6.5413,6.5413,6.5834,6.6789,6.7515,6.8356,6.9311,7.0037,7.0419,7.0419,7.0419,7.0419,7.0419,7.0419,7.0419,7.0419,7.0419,7.0419,7.0419,7.0419,7.0419,7.0419,7.0419,7.0419,7.0419,7.0419,7.0419,7.0419,0.0,0.0,0.0,0.0,0.0,0.0,0.0,0.0,0.0,6.0782,5.9825,5.8999,0.0,0.0,0.0,0.0,0.0,0.0,0.0,5.7188,5.7188,5.7188,5.7188,5.7188,5.7188,5.7188,5.7188,5.7188,5.7188,5.7188,5.7188,5.7188,5.7188,5.7188,0.0,0.0,0.0,5.7188,5.7188,5.7188,5.7188,5.7188,5.7188,5.7188,5.7188,5.7188,5.7188,5.7188,5.7188,5.7188,5.7213,5.7264,5.7474,5.7794,5.8142,5.8424,0.0,0.0,0.0,0.0,0.0,0.0,6.0422,0.0,6.0422,6.0422,6.0422,6.0422,6.0422,6.0384,6.0436,6.0439,6.0504,6.0464,6.1868,6.3006,6.3006,6.4403,6.539,6.5413,6.5413,6.5413,6.5413,6.5413,6.5413,6.5413,6.5413,6.5413,6.5413,6.5413,6.6101,6.763,6.7821,6.8623,7.0151,7.0342,7.0419,7.0419,7.0419,7.0419,7.0419,7.0419,7.0419,7.0419,7.0419,7.0419,7.0419,7.0419,7.0419,7.0419,7.0419,7.0419,7.0419,7.0419,7.0419,7.0419,0.0,0.0,0.0,0.0,0.0,0.0,0.0,0.0,0.0,6.0756,5.9398,0.0,0.0,0.0,0.0,0.0,0.0,0.0,0.0,5.7188,5.7188,5.7188,5.7188,5.7188,5.7188,5.7188,5.7188,5.7188,5.7188,5.7188,5.7188,5.7188,5.7239,5.7289,5.7213,0.0,0.0,5.7313,5.7289,5.7289,5.7213,5.7188,5.7188,5.7188,5.7188,5.7188,5.7188,5.7188,5.7188,5.7188,5.7188,5.7213,5.7264,5.7474,5.7747,5.8009,5.836,5.8676,0.0,0.0,5.9482,5.9884,6.003,0.0,0.0,6.0422,6.0422,6.0422,6.0422,6.0422,6.0422,6.045,6.0565,6.0957,6.208,6.3102,6.3523,6.4641,6.5413,6.5413,6.5413,6.5413,6.5413,6.5413,6.5413,6.5413,6.5413,6.5413,6.5413,6.5413,6.6178,6.7859,6.7897,6.8699,7.0364,7.0419,7.0419,7.0419,7.0419,7.0419,7.0419,7.0419,7.0419,7.0419,7.0419,7.0419,7.0419,7.0419,7.0419,7.0419,7.0419,7.0419,7.0419,7.0419,7.0419,7.0419,0.0,0.0,0.0,0.0,0.0,0.0,0.0,0.0,0.0,6.0375,0.0,0.0,0.0,0.0,0.0,0.0,0.0,0.0,0.0,5.7188,5.7188,5.7188,5.7188,5.7188,5.7188,5.7188,5.7261,5.7442,5.7442,5.7514,5.7659,5.7684,5.776,5.786,0.0,0.0,0.0,5.7959,5.791,5.7885,5.7785,5.7601,5.7442,5.7442,5.7514,5.7659,5.7659,5.755,5.7442,5.7442,5.7333,5.7188,5.7188,5.7264,5.7437,5.7771,5.7918,0.0,5.8574,5.8776,5.8971,5.943,5.9622,5.9809,0.0,0.0,0.0,6.037,6.0422,6.0422,6.0422,6.0422,6.0599,6.1249,6.2242,6.3159,6.3847,6.4802,6.5413,6.5413,6.5413,6.5413,6.5413,6.5413,6.5413,6.5413,6.5413,6.5413,6.5413,6.5413,6.6178,6.7859,6.7897,6.8699,7.0364,7.0419,7.0419,7.0419,7.0419,7.0419,7.0419,7.0419,7.0419,7.0419,7.0419,7.0419,7.0419,7.0419,7.0419,7.0419,7.0419,7.0419,7.0419,7.0419,7.0419,7.0419,6.1868,6.1895,0.0,0.0,0.0,0.0,0.0,0.0,0.0,0.0,0.0,0.0,0.0,0.0,0.0,0.0,0.0,0.0,5.7188,5.7188,0.0,5.7188,5.7188,5.7188,5.7188,5.7188,5.755,5.8275,5.8275,5.8637,5.9325,5.9455,5.9496,5.9521,5.9659,5.9709,5.9734,5.9734,5.9698,5.9673,5.9709,5.9121,5.8275,5.8275,5.8709,5.9325,5.9325,5.8891,5.8275,5.8275,5.7804,5.7188,5.7188,5.7213,5.7239,5.7289,0.0,0.0,0.0,5.836,5.8591,5.9103,5.927,5.9379,5.9793,0.0,5.9953,6.0328,0.0,6.0422,6.0422,0.0,0.0,6.0523,6.186,6.293,6.3045,6.442,6.5413,6.5413,6.5413,6.5413,6.5413,6.5413,6.5413,6.5413,6.5413,6.5413,6.5413,6.5413,6.6178,6.7859,6.7897,6.8699,7.0364,7.0419,7.0419,7.0419,7.0419,7.0419,7.0419,7.0419,7.0419,7.0419,7.0419,7.0419,7.0419,7.0419,7.0419,7.0419,7.0419,7.0419,7.0419,7.0419,7.0419,7.0419,6.2033,6.1978,0.0,0.0,0.0,0.0,0.0,0.0,0.0,0.0,0.0,0.0,5.8718,5.8693,5.8693,0.0,5.8693,5.8693,5.8693,5.8769,0.0,5.8601,5.8718,5.8769,5.8693,5.8769,5.9001,5.9328,5.9328,5.951,5.9812,5.9889,5.9965,6.004,6.0015,6.009,6.0213,6.0139,6.0114,6.0114,6.0114,6.0063,5.9958,5.9485,5.9496,5.9709,5.9709,5.944,5.9108,5.9108,5.8891,5.8601,5.8601,5.8275,0.0,5.7913,0.0,0.0,0.0,5.7747,5.8046,5.8508,5.8733,5.8968,5.9361,5.945,5.9502,5.9656,0.0,0.0,0.0,0.0,0.0,0.0,6.2853,6.3809,6.4267,6.4955,6.5413,6.5413,6.5413,6.5413,6.5413,6.5413,6.5413,6.5413,6.5413,6.5413,6.5413,6.5413,6.6178,6.7859,6.7897,6.8699,7.0364,7.0419,7.0419,7.0419,7.0419,7.0419,7.0419,7.0419,7.0419,7.0419,7.0419,7.0419,7.0419,7.0419,7.0419,7.0419,7.0419,7.0419,7.0419,7.0419,7.0419,7.0419,0.0,0.0,0.0,0.0,0.0,0.0,6.2407,6.174,6.0974,6.0391,6.0136,5.9965,5.9863,5.9863,5.9863,5.9863,5.9863,5.9863,5.9863,5.9939,5.9914,5.9745,5.9889,5.9965,5.9863,5.9965,6.0099,6.0318,6.0318,6.0427,6.0646,6.0697,6.0772,6.0847,6.0797,6.0872,6.1056,6.0946,6.0896,6.0896,6.0896,6.1213,6.1587,6.089,6.0595,6.0518,6.0518,6.0332,6.0046,6.0046,5.9865,5.9683,5.9693,5.9232,5.8761,0.0,0.0,0.0,5.7891,5.7897,5.7959,5.8263,5.8364,5.8439,5.8872,5.897,5.9008,5.9178,5.9432,0.0,0.0,0.0,0.0,0.0,0.0,6.4397,6.4993,6.5261,6.5413,6.5413,6.5413,6.5413,6.5413,6.5413,6.5413,6.5413,6.5413,6.5413,6.5413,6.5413,6.6178,6.7859,6.7897,6.8699,7.0364,7.0419,7.0419,7.0419,7.0419,7.0419,7.0419,7.0419,7.0419,7.0419,7.0419,7.0419,7.0419,7.0419,7.0419,7.0419,7.0419,7.0419,7.0419,7.0419,7.0419,7.0419,6.4694,6.3454,0.0,0.0,6.237,6.2407,6.2407,6.174,6.1193,6.1157,6.0464,5.999,5.999,5.999,5.999,5.999,5.999,5.999,5.999,5.999,5.999,5.999,5.999,5.999,5.999,5.999,6.0391,6.1157,6.1157,6.1558,6.2324,6.2453,6.253,6.253,6.2657,6.2707,6.2707,6.2707,6.2707,6.2707,6.2707,6.2743,6.2718,6.2402,6.2298,6.2298,6.2298,6.1787,6.1131,6.1131,6.0646,5.9965,5.9838,5.9776,5.9724,0.0,0.0,0.0,5.9699,5.9169,5.8576,5.8762,5.8191,5.776,5.8295,5.8424,5.857,5.9065,5.9215,5.9569,6.0728,0.0,0.0,0.0,0.0,0.0,0.0,6.4917,6.5413,6.5413,6.5413,6.5413,6.5413,6.5413,6.5413,6.5413,6.5413,6.5413,6.5413,6.5413,6.6178,6.7859,6.7897,6.8699,7.0364,7.0419,7.0419,7.0419,7.0419,7.0419,7.0419,7.0419,7.0419,7.0419,7.0419,7.0419,7.0419,7.0419,7.0419,7.0419,7.0419,7.0419,7.0419,7.0419,7.0419,7.0419,0.0,0.0,0.0,0.0,6.3696,6.3174,6.2702,6.2434,6.2251,6.2251,6.1995,6.1823,6.1748,6.1748,6.1748,6.1748,6.1748,6.1748,6.1748,6.1823,6.1773,6.1594,6.1773,6.1823,6.1748,6.1823,6.1995,6.2251,6.2251,6.2398,6.2654,6.2705,6.273,6.273,6.278,6.278,6.278,6.278,6.278,6.278,6.278,6.278,6.278,6.2679,6.2603,6.2526,6.2526,6.2292,6.1995,6.1995,6.1813,6.1568,6.1543,6.1152,6.0715,6.0664,6.03,5.9863,5.9914,5.9807,5.9638,5.9613,5.9481,5.9359,5.9443,5.9467,5.9538,5.9803,6.0055,6.0406,6.0913,0.0,0.0,0.0,0.0,0.0,0.0,6.5222,6.5413,6.5413,6.5413,6.5413,6.5413,6.5413,6.5413,6.5413,6.5413,6.5413,6.5413,6.5413,6.6178,6.7859,6.7897,6.8699,7.0364,7.0419,7.0419,7.0419,7.0419,7.0419,7.0419,7.0419,7.0419,7.0419,7.0419,7.0419,7.0419,7.0419,7.0419,7.0419,7.0419,7.0419,7.0419,7.0419,7.0419,7.0419,6.6145,0.0,0.0,6.5307,6.4731,6.4207,6.3771,6.3686,6.3613,6.3319,6.3282,6.3085,6.2716,6.2679,6.2679,6.2679,6.2679,6.2679,6.2679,6.2755,6.2705,6.2526,6.2705,6.2755,6.2679,6.2755,6.278,6.278,6.278,6.278,6.278,6.278,6.278,6.278,6.278,6.278,6.278,6.278,6.278,6.278,6.278,6.278,6.278,6.278,6.2755,6.2679,6.2679,6.2603,6.2526,6.2526,6.2526,6.2526,6.2475,6.2146,6.1682,6.1631,6.1266,6.0865,6.0865,6.0722,6.0528,6.0453,6.0284,6.009,6.0026,6.0026,6.0051,6.0164,6.0394,6.0802,6.1523,0.0,0.0,0.0,0.0,0.0,0.0,6.5413,6.5413,6.5413,6.5413,6.5413,6.5413,6.5413,6.5413,6.5413,6.5413,6.5413,6.5413,6.5681,6.6483,6.7859,6.8203,6.9005,7.0381,7.0419,7.0419,7.0419,7.0419,7.0419,7.0419,7.0419,7.0419,7.0419,7.0419,7.0419,7.0419,7.0419,7.0419,7.0419,7.0419,7.0419,7.0419,7.0419,7.0419,7.0419,6.7687,6.7687,6.721,6.5705,6.5411,6.5375,6.5301,6.5301,6.5044,6.4237,6.4163,6.3833,6.3025,6.289,6.2853,6.2853,6.2817,6.278,6.278,6.278,6.278,6.278,6.278,6.278,6.278,6.278,6.278,6.278,6.278,6.2805,6.283,6.283,6.2855,6.288,6.288,6.288,6.288,6.288,6.288,6.288,6.283,6.283,6.283,6.2805,6.278,6.278,6.278,6.278,6.278,6.278,6.278,6.278,6.2654,6.2603,6.2578,6.2449,6.2433,6.2433,6.2433,6.185,6.1292,6.1266,6.0683,6.0124,6.0124,6.0099,6.0149,6.0274,6.0298,6.088,6.2599,6.2911,0.0,0.0,0.0,0.0,0.0,0.0,6.5413,6.5413,6.5413,6.5413,6.5413,6.5413,6.5413,6.5413,6.5413,6.5413,0.0,6.6216,6.7056,6.7859,6.8738,6.9578,7.0381,7.0419,7.0419,7.0419,7.0419,7.0419,7.0419,7.0419,7.0419,7.0419,7.0419,7.0419,7.0419,7.0419,7.0419,7.0419,7.0419,7.0419,7.0419,7.0419,7.0419,7.0419,6.7687,6.7687,6.7577,6.7136,6.6586,6.5999,6.5411,6.5301,6.5228,6.5007,6.5007,6.4934,6.4677,6.4127,6.3759,6.3759,6.3172,6.278,6.278,6.278,6.278,6.278,6.278,6.278,6.278,6.278,6.278,6.278,6.278,6.2965,6.3308,6.3308,6.349,0.0,0.0,6.3782,6.3782,6.3782,6.3782,6.3761,6.3445,6.3308,6.3262,6.2953,6.278,6.278,6.278,6.278,6.278,6.278,6.278,6.278,6.2755,6.2755,6.273,6.2705,6.2679,6.2679,6.2679,6.2533,6.2386,6.2285,6.2077,6.1905,6.1802,6.1777,6.1802,6.1956,6.1981,6.2143,6.2717,6.2825,6.3185,0.0,0.0,0.0,0.0,0.0,6.5413,6.5413,6.5413,6.5413,6.5413,6.5413,6.5413,6.5413,6.5413,6.5413,6.5413,6.6216,6.7056,6.7859,6.8738,6.9578,7.0381,7.0419,7.0419,7.0419,7.0419,7.0419,7.0419,7.0419,7.0419,7.0419,7.0419,7.0419,7.0419,7.0419,7.0419,7.0419,7.0419,7.0419,7.0419,7.0419,7.0419,7.0419,6.7993,6.8185,6.8222,6.8033,6.7613,6.7093,6.6429,6.6366,6.6219,6.5888,6.5815,6.5705,6.5338,6.4897,6.4604,6.4604,6.42,6.3906,6.3906,6.3906,6.3906,6.3906,6.3906,6.3906,6.3906,6.3906,0.0,6.4204,0.0,6.4429,6.4887,6.4887,0.0,0.0,0.0,6.5206,6.5168,6.481,6.437,6.3846,6.3782,6.3761,0.0,6.3453,6.3262,6.311,6.311,6.2965,6.278,6.278,6.278,6.278,6.278,6.278,6.278,6.278,6.278,6.278,6.278,6.278,6.278,6.2705,6.2679,6.2654,6.25,6.2475,6.25,6.2578,6.2603,6.273,6.3038,6.311,6.34,0.0,0.0,0.0,0.0,6.5413,6.5413,6.5413,6.5413,6.5413,6.5413,6.5413,6.5413,6.5413,6.5413,6.5413,6.5413,6.656,6.7439,6.7897,6.9082,6.996,7.0419,7.0419,7.0419,7.0419,7.0419,7.0419,7.0419,7.0419,7.0419,7.0419,7.0419,7.0419,7.0419,7.0419,7.0419,7.0419,7.0419,7.0419,7.0419,7.0419,7.0419,7.0419,6.8394,6.8803,6.8959,6.8548,6.8442,6.8247,6.7836,6.7741,6.743,6.6733,6.6659,6.6402,6.5705,6.5521,6.5485,6.5485,6.5375,6.5301,6.5301,6.5301,6.5301,6.5301,6.5301,6.5301,6.5301,6.5379,6.5583,0.0,6.6058,6.6291,6.6681,0.0,0.0,0.0,0.0,0.0,0.0,6.6026,6.5069,6.4118,6.4394,6.4514,6.4514,6.4455,6.4208,6.39,6.3788,6.3349,6.278,6.278,6.278,6.278,6.278,6.278,6.278,6.278,6.278,6.278,6.278,6.278,6.278,6.278,6.278,6.2755,6.2654,6.2629,6.2629,6.2629,6.2629,6.2768,6.3308,6.3513,6.3825,0.0,0.0,6.5002,6.5329,6.5413,6.5413,6.5413,6.5413,0.0,6.5413,6.5413,6.5413,6.5413,6.5413,6.5452,6.5566,6.7056,6.7935,6.805,6.9578,7.0419,7.0419,7.0419,7.0419,7.0419,7.0419,7.0419,7.0419,7.0419,7.0419,7.0419,7.0419,7.0419,7.0419,7.0419,7.0419,7.0419,7.0419,7.0419,7.0419,7.0419,7.0419,7.0419,6.887,6.9047,6.9069,6.8981,6.8642,6.837,6.8272,6.7967,6.7677,6.7504,6.7467,6.743,6.7283,6.6696,6.6292,6.6292,6.5705,6.5301,6.5301,6.5301,6.5301,6.5301,6.5301,6.5301,6.5301,6.5681,6.5932,6.5989,6.6319,6.6719,6.7202,6.7202,0.0,0.0,0.0,0.0,6.7659,6.7545,6.7305,6.7123,6.684,6.673,6.6711,6.6307,6.6124,6.5987,6.5328,6.4093,6.278,6.278,6.278,6.278,6.278,6.278,6.278,6.278,6.278,6.278,6.278,6.278,6.278,6.278,6.278,6.278,6.2755,6.2755,6.2755,6.2755,6.2755,6.2805,6.2904,6.3498,6.4036,6.4176,6.4827,6.5314,6.5398,6.5413,6.5413,6.5413,6.5413,6.5413,6.5413,6.5413,6.5413,6.5413,6.5413,6.5719,6.6445,6.7362,6.8241,6.8929,6.9922,7.0419,7.0419,7.0419,7.0419,7.0419,7.0419,7.0419,7.0419,7.0419,7.0419,7.0419,7.0419,7.0419,7.0419,7.0419,7.0419,7.0419,7.0419,7.0419,7.0419,7.0419,7.0419,7.0419,6.9443,6.9625,6.9625,6.9176,6.9112,6.887,6.816,6.8033,6.7993,6.7741,6.7687,6.7687,6.7687,6.7357,6.71,6.71,6.6769,6.6549,6.6549,6.6549,6.6549,6.6549,6.6549,6.6549,6.6549,6.7,6.7347,6.7621,6.8056,6.8471,6.8908,6.8908,0.0,6.9196,0.0,6.8831,0.0,6.8482,6.8183,6.7597,6.7614,6.7614,6.7597,6.7347,6.7127,6.6899,6.6521,6.5707,6.4628,6.3534,6.3158,6.311,6.288,6.278,6.278,6.278,6.278,6.278,6.278,6.278,6.278,6.278,6.278,6.278,6.278,6.278,6.278,6.278,6.278,6.278,6.278,6.3121,6.3587,6.4016,6.4464,6.4879,6.5329,6.5413,6.5413,6.5413,0.0,0.0,6.5413,6.5796,6.5872,6.5413,6.5834,6.6254,6.6674,6.7897,6.8776,6.9196,6.9999,7.0419,7.0419,7.0419,7.0419,7.0419,7.0419,7.0419,7.0419,7.0419,7.0419,7.0419,7.0419,7.0419,7.0419,7.0419,7.0419,7.0419,7.0419,7.0419,7.0419,7.0419,7.0419,7.0419,6.9947,7.0179,7.0196,6.9486,6.9623,6.9443,6.8297,6.837,6.8346,6.7757,6.7687,6.7687,6.7687,6.7687,6.7687,6.7687,6.7687,6.7687,6.7687,6.7687,6.7687,6.7687,6.7687,6.7767,6.7836,6.8297,6.878,6.924,6.9701,7.0091,7.0419,7.0419,0.0,7.0419,7.0419,6.9849,6.8937,6.9311,6.8896,6.797,6.8297,6.8432,6.8432,6.8432,6.8231,6.7952,6.7762,6.7448,6.6857,6.494,6.424,6.4048,6.3524,6.3272,6.3162,6.3015,6.288,6.278,6.278,6.278,6.278,6.278,6.278,6.278,6.278,6.278,6.278,6.278,6.278,6.278,6.278,6.288,6.3168,6.385,6.4116,6.4501,6.5204,6.5329,6.5413,6.5413,0.0,0.0,6.5681,6.6445,6.6674,6.5987,6.656,6.7056,6.7209,6.847,6.9273,6.9464,7.0075,7.0419,7.0419,7.0419,7.0419,7.0419,7.0419,7.0419,7.0419,7.0419,7.0419,7.0419,7.0419,7.0419,7.0419,7.0419,7.0419,7.0419,7.0419,7.0419,7.0419,7.0419,7.0419,7.0419,7.0331,7.0348,7.0348,7.0281,7.0019,6.9778,6.9623,6.9261,6.8688,6.781,6.7687,6.7687,6.7687,6.7687,6.7687,6.7687,6.7687,6.7687,6.7687,6.7687,6.7687,6.7687,6.7687,6.7889,6.8321,6.878,6.9261,6.972,7.0144,7.0348,7.0419,7.0419,7.0419,7.0419,7.0419,7.031,7.0217,7.0288,7.0211,7.0102,7.0135,7.019,7.019,7.019,7.0119,7.0026,6.9262,6.8979,6.8743,6.7388,6.6652,6.6178,6.5403,6.4881,6.4373,6.3668,6.3134,6.278,6.278,6.278,6.278,6.278,6.278,6.278,6.278,6.278,6.278,6.278,6.278,6.278,6.278,6.3158,6.3468,6.3557,6.4214,6.4757,6.4827,6.515,6.5413,6.5413,0.0,0.0,6.6598,6.7324,6.7744,6.7668,6.7744,6.8126,6.8929,6.912,6.954,7.0266,7.0381,7.0419,7.0419,7.0419,7.0419,7.0419,7.0419,7.0419,7.0419,7.0419,7.0419,7.0419,7.0419,7.0419,7.0419,7.0419,7.0419,7.0419,7.0419,7.0419,7.0419,7.0419,7.0419,7.0419,7.0331,7.0419,7.0315,7.0091,7.0109,6.9963,6.9446,6.9484,6.9282,6.8656,6.8562,6.8442,6.816,6.8134,6.7982,6.7741,6.7687,6.7687,6.7687,6.7687,6.781,6.8109,6.7836,6.8033,6.8803,6.9003,6.9323,6.9816,7.0196,7.0419,7.0419,7.0419,7.0419,7.0419,7.0419,7.0419,7.0419,7.0419,7.0419,7.0419,7.0419,7.0419,7.0419,7.0419,7.0419,7.0381,7.0037,6.9922,6.9829,6.9337,6.822,6.6918,6.6322,6.6003,6.5736,6.5165,6.5053,6.4948,6.445,6.4525,6.4548,6.3762,6.3576,6.3429,6.289,6.278,6.278,6.278,6.278,6.278,6.278,6.3181,6.3602,6.3825,6.4803,6.5621,6.5917,6.6482,6.6904,6.6904,0.0,6.74,6.74,6.8165,6.8661,6.8661,6.8661,6.8814,6.9196,6.9655,7.0075,7.0381,7.0419,7.0419,7.0419,7.0419,7.0419,7.0419,7.0419,7.0419,7.0419,7.0419,7.0419,7.0419,7.0419,7.0419,7.0419,7.0419,7.0419,7.0419,7.0419,7.0419,7.0419,7.0419,7.0419,7.0419,7.0331,7.0419,7.0298,7.0038,7.0213,7.0196,6.9566,6.9778,6.9853,6.9526,6.9486,6.9261,6.8665,6.8633,6.849,6.8134,6.7993,6.7956,6.8109,6.7836,6.7993,6.8586,6.8007,6.8173,6.9282,6.9155,6.9385,6.9983,7.0247,7.0419,7.0419,7.0419,7.0419,7.0419,7.0419,7.0419,7.0419,7.0419,7.0419,7.0419,7.0419,7.0419,7.0419,7.0419,7.0419,7.0419,7.0419,7.0419,7.0419,7.0419,6.9413,6.8104,6.7524,6.7257,6.706,6.6539,6.647,6.6491,6.5848,6.5919,6.5978,6.5049,6.4842,6.4657,6.4066,6.3835,6.3751,6.3751,6.3835,6.3918,6.3918,6.4196,6.4492,6.4769,6.571,6.6511,6.6842,6.7452,6.7897,6.7897,6.8126,6.8279,6.8279,6.9043,6.954,6.954,6.954,6.954,6.954,7.0113,7.0419,7.0419,7.0419,7.0419,7.0419,7.0419,7.0419,7.0419,7.0419,7.0419,7.0419,7.0419,7.0419,7.0419,7.0419,7.0419,7.0419,7.0419,7.0419,7.0419,7.0419,7.0419,7.0419,7.0419,7.0419,7.0419,7.0419,7.0419,7.0402,7.0402,7.0402,7.0402,7.0402,7.0402,7.0402,7.0402,7.0402,7.0053,6.9176,6.9091,6.9091,6.9069,6.8642,6.8609,6.9047,6.8198,6.8109,6.9047,6.821,6.8346,6.974,6.9323,6.9526,7.0402,7.0402,7.0419,7.0419,7.0419,7.0419,7.0419,7.0419,7.0419,7.0419,7.0419,7.0419,7.0419,7.0419,7.0419,7.0419,7.0419,7.0419,7.0419,7.0419,7.0419,7.0419,7.0419,7.0364,7.0211,6.9409,6.8849,6.8337,6.7522,6.6974,6.6579,6.6579,6.6579,6.6579,6.6579,6.6579,6.6579,6.6579,6.6253,6.5966,6.5966,6.6297,6.6541,6.6541,6.6579,6.6541,6.6579,6.6975,6.7294,6.7294,6.7647,6.7897,6.7897,6.8661,6.9196,6.9196,6.9922,7.0381,7.0381,7.0381,7.0381,7.0381,7.0381,7.0419,7.0419,7.0419,7.0419,7.0419,7.0419,7.0419,7.0419,7.0419,7.0419,7.0419,7.0419,7.0419,7.0419,7.0419,7.0419,7.0419,7.0419,7.0419,7.0419,7.0419,7.0419,7.0419,7.0419,7.0419,7.0419,7.0369,7.0419,7.0419,7.0419,7.0419,7.0419,7.0419,7.0419,7.0419,7.0419,7.0419,7.0281,7.0017,6.974,6.9463,6.9134,6.8959,6.8937,6.9091,6.8803,6.8915,6.9564,6.8981,6.9155,7.0179,6.9797,6.9853,7.0419,7.0419,7.0419,7.0419,7.0419,7.0419,7.0419,7.0419,7.0419,7.0419,7.0419,7.0419,7.0419,7.0419,7.0419,7.0419,7.0419,7.0419,7.0419,7.0419,7.0419,7.0419,7.0419,7.0419,7.0381,7.0113,6.9916,6.9666,6.915,6.9093,6.9055,6.8491,6.8553,6.858,6.7693,6.7497,6.733,6.6729,6.6512,6.6406,6.6406,6.6533,6.6599,6.6599,6.6858,6.707,6.707,6.7932,6.8612,6.8612,6.9169,6.9616,6.9616,6.9846,7.0037,7.0037,7.0266,7.0419,7.0419,7.0419,7.0419,7.0419,7.0419,7.0419,7.0419,7.0419,7.0419,7.0419,7.0419,7.0419,7.0419,7.0419,7.0419,7.0419,7.0419,7.0419,7.0419,7.0419,7.0419,7.0419,7.0419,7.0419,7.0419,7.0419,7.0419,7.0419,7.0419,7.0419,7.0419,7.0369,7.0419,7.0419,7.0419,7.0419,7.0419,7.0419,7.0419,7.0419,7.0419,7.0419,7.0419,7.0419,7.0179,6.9909,6.9605,6.9446,6.9426,6.9566,6.9282,6.9365,7.0019,6.9426,6.9506,7.0402,7.0019,7.0001,7.0419,7.0419,7.0419,7.0419,7.0419,7.0419,7.0419,7.0419,7.0419,7.0419,7.0419,7.0419,7.0419,7.0419,7.0419,7.0419,7.0419,7.0419,7.0419,7.0419,7.0419,7.0419,7.0419,7.0419,7.0419,7.0419,7.0419,7.0369,7.0109,7.0196,7.0281,6.9721,6.9816,6.9831,6.9058,6.8848,6.8658,6.7934,6.792,6.7997,6.7841,6.792,6.8035,6.8035,6.8259,6.8458,6.8458,6.9141,6.9655,6.9655,7.0075,7.0419,7.0419,7.0419,7.0419,7.0419,7.0419,7.0419,7.0419,7.0419,7.0419,7.0419,7.0419,7.0419,7.0419,7.0419,7.0419,7.0419,7.0419,7.0419,7.0419,7.0419,7.0419,7.0419,7.0419,7.0419,7.0419,7.0419,7.0419,7.0419,7.0419,7.0419,7.0419,7.0419,7.0419,7.0419,7.0419,7.0419,7.0419,7.0419,7.0419,7.0419,7.0419,7.0419,7.0419,7.0419,7.0419,7.0419,7.0419,7.0419,7.0419,7.0419,7.0419,7.0419,7.0419,7.0073,7.0019,7.0386,6.9644,6.9546,7.0348,6.9625,6.9566,7.0402,7.0038,7.0038,7.0419,7.0419,7.0419,7.0419,7.0419,7.0419,7.0419,7.0419,7.0419,7.0419,7.0419,7.0419,7.0419,7.0419,7.0419,7.0419,7.0419,7.0419,7.0419,7.0419,7.0419,7.0419,7.0419,7.0419,7.0419,7.0419,7.0419,7.0419,7.0419,7.0419,7.0419,7.0419,7.0419,7.0419,7.0419,7.0419,7.0281,6.9947,7.0126,7.0281,6.9928,7.0144,7.0419,7.0419,7.0419,7.0419,7.0419,7.0419,7.0419,7.0419,7.0419,7.0419,7.0419,7.0419,7.0419,7.0419,7.0419,7.0419,7.0419,7.0419,7.0419,7.0419,7.0419,7.0419,7.0419,7.0419,7.0419,7.0419,7.0419,7.0419,7.0419,7.0419,7.0419,7.0419,7.0419,7.0419,7.0419,7.0419,7.0419,7.0419,7.0419,7.0419,7.0419,7.0419,7.0419,7.0419,7.0419,7.0419,7.0419,7.0419,7.0419,7.0419,7.0419,7.0419,7.0419,7.0419,7.0419,7.0419,7.0419,7.0419,7.0419,7.0419,7.0419,7.0419,7.0419,7.0298,7.0281,7.0402,7.0213,7.0196,7.0402,7.0213,7.0196,7.0402,7.0298,7.0298,7.0419,7.0419,7.0419,7.0419,7.0419,7.0419,7.0419,7.0419,7.0419,7.0419,7.0419,7.0419,7.0419,7.0419,7.0419,7.0419,7.0419,7.0419,7.0419,7.0419,7.0419,7.0419,7.0419,7.0419,7.0419,7.0419,7.0419,7.0419,7.0419,7.0419,7.0419,7.0419,7.0419,7.0419,7.0419,7.0419,7.0386,7.0264,7.0315,7.0386,7.0264,7.0315,7.0419,7.0419,7.0419,7.0419,7.0419,7.0419,7.0419,7.0419,7.0419,7.0419,7.0419,7.0419,7.0419,7.0419,7.0419,7.0419,7.0419,7.0419,7.0419,7.0419,7.0419,7.0419,7.0419,7.0419,7.0419,7.0419,7.0419,7.0419,7.0419,7.0419,7.0419,7.0419,7.0419,7.0419,7.0419,7.0419,7.0419,7.0419,7.0419,7.0419,7.0419,7.0419,7.0419,7.0419,7.0419,7.0419,7.0419,7.0419,7.0419,7.0419,7.0419,7.0419,7.0419,7.0419,7.0419,7.0419,7.0419,7.0419,7.0419,7.0419,7.0419,7.0419,7.0419,7.0419,7.0419,7.0419,7.0419,7.0419,7.0419,7.0419,7.0419,7.0419,7.0419,7.0419,7.0419,7.0419,7.0419,7.0419,7.0419,7.0419,7.0419,7.0419,7.0419,7.0419,7.0419,7.0419,7.0419,7.0419,7.0419,7.0419,7.0419,7.0419,7.0419,7.0419,7.0419,7.0419,7.0419,7.0419,7.0419,7.0419,7.0419,7.0419,7.0419,7.0419,7.0419,7.0419,7.0419,7.0419,7.0419,7.0419,7.0419,7.0419,7.0419,7.0419,7.0419,7.0419,7.0419,7.0419,7.0419,7.0419,7.0419,7.0419,7.0419,7.0419,7.0419,7.0419,7.0419,7.0419,7.0419,7.0419,7.0419,7.0419,7.0419,7.0419,7.0419,7.0419,7.0419,7.0419,7.0419,7.0419,7.0419,7.0419,7.0419,7.0419,7.0419,7.0419,7.0419,7.0419,7.0419,7.0419,7.0419,7.0419,7.0419,7.0419,7.0419,7.0419,7.0419,7.0419,7.0419,7.0419,7.0419,7.0419,7.0419,7.0419,7.0419,7.0419,7.0419,7.0419,7.0419,7.0419,7.0419,7.0419,7.0419,7.0419,7.0419,7.0419,7.0419,7.0419,7.0419,7.0419,7.0419,7.0419,7.0419,7.0419,7.0419,7.0419,7.0419,7.0419,7.0419,7.0419,7.0419,7.0419,7.0419,7.0419,7.0419,7.0419,7.0419,7.0419,7.0419,7.0419,7.0419,7.0419,7.0419,7.0419,7.0419,7.0419,7.0419,7.0419,7.0419,7.0419,7.0419,7.0419,7.0419,7.0419,7.0419,7.0419,7.0419,7.0419,7.0419,7.0419,7.0419,7.0419,7.0419,7.0419,7.0419,7.0419,7.0419,7.0419,7.0419,7.0419,7.0419,7.0419,7.0419,7.0419,7.0419,7.0419,7.0419,7.0419,7.0419,7.0419,7.0419,7.0419,7.0419,7.0419,7.0419,7.0419,7.0419,7.0419,7.0419,7.0419,7.0419,7.0419,7.0419,7.0419,7.0419,7.0419,7.0419,7.0419,7.0419,7.0419,7.0419,7.0419,7.0419,7.0419,7.0419,7.0419,7.0419,7.0419,7.0419,7.0419,7.0419,7.0419,7.0419,7.0419,7.0419,7.0419,7.0419,7.0419,7.0419,7.0419,7.0419,7.0419,7.0419,7.0419,7.0419,7.0419,7.0419,7.0419,7.0419,7.0419,7.0419,7.0419,7.0419,7.0419,7.0419,7.0419,7.0419,7.0419,7.0419,7.0419,7.0419,7.0419,7.0419,7.0419,7.0419,7.0419,7.0419,7.0419,7.0419,7.0419,7.0419,7.0419,7.0419,7.0419,7.0419,7.0419,7.0419,7.0419,7.0419,7.0419,7.0419,7.0419,7.0419,7.0419,7.0419,7.0419,7.0419,7.0419,7.0419,7.0419,7.0419,7.0419,7.0419,7.0419,7.0419,7.0419,7.0419,7.0419,7.0419,7.0419,7.0419,7.0419,7.0419,7.0419,7.0419,7.0419,7.0419,7.0419,7.0419,7.0419,7.0419,7.0419,7.0419,7.0419,7.0419,7.0419,7.0419,7.0419,7.0419,7.0419,7.0419,7.0419,7.0419,7.0419,7.0419,7.0419,7.0419,7.0419,7.0419,7.0419,7.0419,7.0419,7.0419,7.0419,7.0419,7.0419,7.0419,7.0419,7.0419,7.0419,7.0419,7.0419,7.0419,7.0419,7.0419,7.0419,7.0419,7.0419,7.0419,7.0419,7.0419,7.0419,7.0419,7.0419,7.0419,7.0419,7.0419,7.0419,7.0419,7.0419,7.0419,7.0419,7.0419,7.0419,7.0419,7.0419,7.0419,7.0419,7.0419,7.0419,7.0419,7.0419,7.0419,7.0419,7.0419,7.0419,7.0419,7.0419,7.0419,7.0419,7.0419,7.0419,7.0419,7.0419,7.0419,7.0419,7.0419,7.0419,7.0419,7.0419,7.0419,7.0419,7.0419,7.0419,7.0419,7.0419,7.0419,7.0419,7.0419,7.0419,7.0419,7.0419,7.0419,7.0419,7.0419,7.0419,7.0419,7.0419,7.0419,7.0419,7.0419,7.0419,7.0419,7.0419,7.0419,7.0419,7.0419,7.0419,7.0419,7.0419,7.0419,7.0419,7.0419,7.0419,7.0419,7.0419,7.0419,7.0419,7.0419,7.0419,7.0419,7.0419,7.0419,7.0419,7.0419,7.0419,7.0419,7.0419,7.0419,7.0419,7.0419,7.0419,7.0419,7.0419,7.0419,7.0419,7.0419,7.0419,7.0419,7.0419,7.0419,7.0419,7.0419,7.0419,7.0419,7.0419,7.0419,7.0419,7.0419,7.0419,7.0419,7.0419,7.0419,7.0419,7.0419,7.0419,7.0419,7.0419,7.0419,7.0419,7.0419,7.0419,7.0419,7.0419,7.0419,7.0419,7.0419,7.0419,7.0419,7.0419,7.0419,7.0419,7.0419,7.0419,7.0419,7.0419,7.0419,7.0419,7.0419,7.0419,7.0419,7.0419,7.0419,7.0419,7.0419,7.0419,7.0419,7.0419,7.0419,7.0419,7.0419,7.0419,7.0419,7.0419,7.0419,7.0419,7.0419,7.0419,7.0419,7.0419,7.0419,7.0419,7.0419,7.0419,7.0419,7.0419,7.0419,7.0419,7.0419,7.0419,7.0419,7.0419,7.0419,7.0419,7.0419,7.0419,7.0419,7.0419,7.0419,7.0419,7.0419,7.0419,7.0419,7.0419,7.0419,7.0419,7.0419,7.0419,7.0419,7.0419,7.0419,7.0419,7.0419,7.0419,7.0419,7.0419,7.0419,7.0419,7.0419,7.0419,7.0419,7.0419,7.0419,7.0419,7.0419,7.0419,7.0419,7.0419,7.0419,7.0419,7.0419,7.0419,7.0419,7.0419,7.0419,7.0419,7.0419,7.0419,7.0419,7.0419,7.0419,7.0419,7.0419,7.0419,7.0419,7.0419,7.0419,7.0419,7.0419,7.0419,7.0419,7.0419,7.0419,7.0419,7.0419,7.0419,7.0419,7.0419,7.0419,7.0419,7.0419,7.0419,7.0419,7.0419,7.0419,7.0419,7.0419,7.0419,7.0419,7.0419,7.0419,7.0419,7.0419,7.0419,7.0419,7.0419,7.0419,7.0419,7.0419,7.0419,7.0419,7.0419,7.0419,7.0419,7.0419,7.0419,7.0419,7.0419,7.0419,7.0419,7.0419,7.0419,7.0419,7.0419,7.0419,7.0419,7.0419,7.0419,7.0419,7.0419,7.0419,7.0419,7.0419,7.0419,7.0419,7.0419,7.0419,7.0419,7.0419,7.0419,7.0419,7.0419,7.0419,7.0419,7.0419,7.0419,7.0419,7.0419,7.0419,7.0419,7.0419,7.0419,7.0419,7.0419,7.0419,7.0419,7.0419,7.0419,7.0419,7.0419,7.0419,7.0419,7.0419,7.0419,7.0419,7.0419,7.0419,7.0419,7.0419,7.0419,7.0419,7.0419,7.0419,7.0419,7.0419,7.0419,7.0419,7.0419,7.0419,7.0419,7.0419,7.0419,7.0419,7.0419,7.0419,7.0419,7.0419,7.0419,7.0419,7.0419,7.0419,7.0419,7.0419,7.0419,7.0419,7.0419,7.0419,7.0419,7.0419,7.0419,7.0419,7.0419,7.0419,7.0419,7.0419,7.0419,7.0419,7.0419,7.0419,7.0419,7.0419,7.0419,7.0419,7.0419,7.0419,7.0419,7.0419,7.0419,7.0419,7.0419,7.0419,7.0419,7.0419,7.0419,7.0419,7.0419,7.0419,7.0419,7.0419,7.0419,7.0419,7.0419,7.0419,7.0419,7.0419,7.0419,7.0419,7.0419,7.0419,7.0419,7.0419,7.0419,7.0419,7.0419,7.0419,7.0419,7.0419,7.0419,7.0419,7.0419,7.0419,7.0419,7.0419,7.0419,7.0419,7.0419,7.0419,7.0419,7.0419,7.0419,7.0419,7.0419,7.0419,7.0419,7.0419,7.0419,7.0419,7.0419,7.0419,7.0419,7.0419,7.0419,7.0419,7.0419,7.0419,7.0419,7.0419,7.0419,7.0419,7.0419,7.0419,7.0419,7.0419,7.0419,7.0419,7.0419,7.0419,7.0419,7.0419,7.0419,7.0419,7.0419,7.0419,7.0419,7.0419,7.0419,7.0419,7.0419,7.0419,7.0419,7.0419,7.0419,7.0419,7.0419,7.0419,7.0419,7.0419,7.0419,7.0419,7.0419,7.0419,7.0419,7.0419,7.0419,7.0419,7.0419,7.0419,7.0419,7.0419,7.0419,7.0419,7.0419,7.0419,7.0419,7.0419,7.0419,7.0419,7.0419,7.0419,7.0419,7.0419,7.0419,7.0419,7.0419,7.0419,7.0419,7.0419,7.0419,7.0419,7.0419,7.0419,7.0419,7.0419,7.0419,7.0419,7.0419,7.0419,7.0419,7.0419,7.0419,7.0419,7.0419,7.0419,7.0419,7.0419,7.0419,7.0419,7.0419,7.0419,7.0419,7.0419,7.0419,7.0419,7.0419,7.0419,7.0419,7.0419,7.0419,7.0419,7.0419,7.0419,7.0419,7.0419,7.0419,7.0419,7.0419,7.0419,7.0419,7.0419,7.0419,7.0419,7.0419,7.0419,7.0419,7.0419,7.0419,7.0419,7.0419,7.0419,7.0419,7.0419,7.0419,7.0419,7.0419,7.0419,7.0419,7.0419,7.0419,7.0419,7.0419,7.0419,7.0419,7.0419,7.0419,7.0419,7.0419,7.0419,7.0419,7.0419,7.0419,7.0419,7.0419,7.0419,7.0419,7.0419,7.0419,7.0419,7.0419,7.0419,7.0419,7.0419,7.0419,7.0419,7.0419,7.0419,7.0419,7.0419,7.0419,7.0419,7.0419,7.0419,7.0419,7.0419,7.0419,7.0419,7.0419,7.0419,7.0419,7.0419,7.0419,7.0419,7.0419,7.0419,7.0419,7.0419,7.0419,7.0419,7.0419,7.0419,7.0419,7.0419,7.0419,7.0402,7.0402,7.0402,7.0402,7.0402,7.0402,7.0419,7.0419,7.0419,7.0419,7.0419,7.0419,7.0419,7.0419,7.0419,7.0419,7.0419,7.0419,7.0419,7.0419,7.0419,7.0419,7.0419,7.0419,7.0419,7.0419,7.0419,7.0419,7.0419,7.0419,7.0419,7.0419,7.0419,7.0419,7.0419,7.0419,7.0419,7.0419,7.0419,7.0419,7.0419,7.0419,7.0419,7.0419,7.0419,7.0419,7.0419,7.0419,7.0419,7.0419,7.0419,7.0419,7.0419,7.0419,7.0419,7.0419,7.0419,7.0419,7.0419,7.0419,7.0419,7.0419,7.0419,7.0419,7.0419,7.0419,7.0419,7.0419,7.0419,7.0419,7.0419,7.0419,7.0419,7.0419,7.0419,7.0419,7.0419,7.0419,7.0419,7.0419,7.0419,7.0419,7.0419,7.0419,7.0419,7.0419,7.0419,7.0419,7.0419,7.0419,7.0419,7.0419,7.0419,7.0419,7.0419,7.0419,7.0419,7.0419,7.0419,7.0419,7.0419,7.0419,7.0419,7.0419,7.0419,7.0419,7.0419,7.0419,7.0419,7.0419,7.0419,7.0419,7.0419,7.0419,7.0419,7.0419,7.0264,7.0001,7.023,7.0264,7.0001,7.0247,7.0419,7.0419,7.0419,7.0419,7.0419,7.0419,7.0419,7.0419,7.0419,7.0419,7.0419,7.0419,7.0419,7.0419,7.0419,7.0419,7.0419,7.0419,7.0419,7.0419,7.0419,7.0419,7.0419,7.0419,7.0419,7.0419,7.0419,7.0419,7.0419,7.0419,7.0419,7.0419,7.0419,7.0419,7.0419,7.0419,7.0419,7.0419,7.0419,7.0419,7.0419,7.0419,7.0419,7.0419,7.0419,7.0419,7.0419,7.0419,7.0419,7.0419,7.0419,7.0419,7.0419,7.0419,7.0419,7.0419,7.0419,7.0419,7.0419,7.0419,7.0419,7.0419,7.0419,7.0419,7.0419,7.0419,7.0419,7.0419,7.0419,7.0419,7.0419,7.0419,7.0419,7.0419,7.0419,7.0419,7.0419,7.0419,7.0419,7.0419,7.0419,7.0419,7.0419,7.0419,7.0419,7.0419,7.0419,7.0419,7.0419,7.0419,7.0419,7.0419,7.0419,7.0419,7.0419,7.0419,7.0419,7.0419,7.0419,7.0419,7.0419,7.0419,7.0419,7.0247,7.0213,7.0402,7.0247,7.023,7.0402,7.0247,7.0073,6.9835,6.9853,6.9797,6.9544,6.9778,7.0035,7.0402,7.0419,7.0419,7.0419,7.0419,7.0419,7.0419,7.0419,7.0419,7.0419,7.0419,7.0419,7.0419,7.0419,7.0419,7.0419,7.0419,7.0419,7.0419,7.0419,7.0419,7.0419,7.0419,7.0419,7.0419,7.0419,7.0419,7.0419,7.0419,7.0419,7.0419,7.0419,7.0419,7.0419,7.0419,7.0419,7.0419,7.0419,7.0419,7.0419,7.0419,7.0419,7.0419,7.0419,7.0419,7.0419,7.0419,7.0419,7.0419,7.0419,7.0419,7.0419,7.0419,7.0419,7.0419,7.0419,7.0419,7.0419,7.0419,7.0419,7.0419,7.0419,7.0419,7.0419,7.0419,7.0419,7.0419,7.0419,7.0419,7.0419,7.0419,7.0419,7.0419,7.0419,7.0419,7.0419,7.0419,7.0419,7.0419,7.0419,7.0419,7.0419,7.0419,7.0419,7.0419,7.0419,7.0419,7.0419,7.0419,7.0419,7.0419,7.0419,7.0331,7.0386,7.0419,7.0419,7.0419,7.0419,7.0419,7.0419,7.0419,7.0419,7.0091,7.0001,7.0369,7.0073,7.0019,7.0386,7.0073,6.9835,6.972,6.9402,6.9112,6.9047,6.9069,6.9466,7.0264,7.0281,7.0281,7.0281,7.0281,7.0281,7.0281,7.0315,7.0369,7.0369,7.0402,7.0419,7.0419,7.0419,7.0419,7.0419,7.0419,7.0419,7.0419,7.0419,7.0419,7.0419,7.0419,7.0419,7.0419,7.0419,7.0419,7.0419,7.0419,7.0419,7.0419,7.0419,7.0419,7.0419,7.0419,7.0419,7.0419,7.0419,7.0419,7.0419,7.0419,7.0419,7.0419,7.0419,7.0419,7.0419,7.0419,7.0419,7.0419,7.0419,7.0419,7.0419,7.0419,7.0419,7.0419,7.0419,7.0419,7.0419,7.0419,7.0419,7.0419,7.0419,7.0419,7.0419,7.0419,7.0419,7.0419,7.0419,7.0419,7.0419,7.0419,7.0419,7.0419,7.0419,7.0419,7.0419,7.0419,7.0419,7.0419,7.0419,7.0419,7.0419,7.0419,7.0419,7.0419,7.0419,7.0419,7.0419,7.0419,7.0419,7.0419,7.0419,7.0001,7.0179,7.0419,7.0419,7.0419,7.0419,7.0419,7.0419,7.0419,7.0419,7.0315,7.0281,7.0402,7.0298,7.0298,7.0402,7.0298,6.9981,6.9282,6.9504,6.9303,6.8572,6.8893,6.9198,6.9385,6.9385,6.9385,6.9385,6.9385,6.9385,6.9385,6.9759,6.9947,6.9965,7.0247,7.0419,7.0419,7.0419,7.0419,7.0419,7.0419,7.0419,7.0419,7.0419,7.0419,7.0419,7.0419,7.0419,7.0419,7.0419,7.0419,7.0419,7.0419,7.0419,7.0419,7.0419,7.0419,7.0419,7.0419,7.0419,7.0419,7.0419,7.0419,7.0419,7.0419,7.0419,7.0419,7.0419,7.0419,7.0419,7.0419,7.0419,7.0419,7.0419,7.0419,7.0419,7.0419,7.0419,7.0419,7.0419,7.0419,7.0419,7.0419,7.0419,7.0419,7.0419,7.0419,7.0419,7.0419,7.0419,7.0419,7.0419,7.0419,7.0419,7.0419,7.0419,7.0419,7.0419,7.0419,7.0419,7.0419,7.0419,7.0419,7.0419,7.0419,7.0419,7.0419,7.0419,7.0419,7.0419,7.0419,7.0419,7.0419,7.0419,7.0419,7.0419,6.9816,6.9983,7.0179,7.0386,7.0419,7.0419,7.0419,7.0419,7.0419,7.0419,7.023,7.0179,7.0402,7.023,7.0196,7.0402,7.0213,6.9909,6.9446,6.924,6.8915,6.8418,6.8418,6.8442,6.8442,6.8442,6.8642,6.9091,6.9091,6.9091,6.9091,6.9344,6.9484,6.9484,6.9701,6.9909,7.0126,7.0126,7.0213,7.0419,7.0419,7.0419,7.0419,7.0419,7.0419,7.0419,7.0419,7.0419,7.0419,7.0419,7.0419,7.0419,7.0419,7.0419,7.0419,7.0419,7.0419,7.0419,7.0419,7.0419,7.0419,7.0419,7.0419,7.0419,7.0419,7.0419,7.0419,7.0419,7.0419,7.0419,7.0419,7.0419,7.0419,7.0419,7.0419,7.0419,7.0419,7.0419,7.0419,7.0419,7.0419,7.0419,7.0419,7.0419,7.0419,7.0419,7.0419,7.0419,7.0419,7.0419,7.0419,7.0419,7.0419,7.0419,7.0419,7.0419,7.0419,7.0419,7.0419,7.0419,7.0419,7.0419,7.0419,7.0419,7.0419,7.0419,7.0419,7.0419,7.0419,7.0419,7.0419,7.0419,7.0419,7.0419,7.0419,7.0419,6.9504,6.9623,6.9778,7.0106,7.0196,7.0213,7.0281,7.0281,7.0298,7.0402,7.0055,6.9947,7.0247,6.9909,6.9834,7.0247,6.9909,6.9682,6.9682,6.8937,6.8442,6.8272,6.7956,6.7757,6.7714,6.7687,6.8084,6.8848,6.8848,6.8848,6.8848,6.8937,6.8981,6.8981,6.9069,6.9303,6.9682,6.9682,6.9909,7.0281,7.0281,7.0353,7.0419,7.0419,7.0419,7.0419,7.0419,7.0419,7.0419,7.0419,7.0419,7.0419,7.0419,7.0419,7.0419,7.0419,7.0419,7.0419,7.0419,7.0419,7.0419,7.0419,7.0419,7.0419,7.0419,7.0419,7.0419,7.0419,7.0419,7.0419,7.0419,7.0419,7.0419,7.0419,7.0419,7.0419,7.0419,7.0419,7.0419,7.0419,7.0419,7.0419,7.0419,7.0419,7.0419,7.0419,7.0419,7.0419,7.0419,7.0419,7.0419,7.0419,7.0419,7.0419,7.0419,7.0419,7.0419,7.0419,7.0419,7.0419,7.0419,7.0419,7.0419,7.0419,7.0419,7.0419,7.0419,7.0419,7.0419,7.0419,7.0419,7.0419,7.0419,7.0419,7.0419,7.0419,6.8642,6.8915,6.9198,6.9261,6.9282,6.9405,6.9797,6.9891,7.0019,7.0331,7.0055,6.9835,6.9891,6.9446,6.9365,6.9816,6.9446,6.9176,6.9176,6.9069,6.8619,6.781,6.8134,6.8109,6.7714,6.7687,6.7767,6.7889,6.7889,6.7889,6.7889,6.8297,6.8514,6.8514,6.8915,6.9134,6.9176,6.9176,6.9446,6.9891,6.9891,7.0091,7.0419,7.0419,7.0419,7.0419,7.0419,7.0419,7.0419,7.0419,7.0419,7.0419,7.0419,7.0419,7.0419,7.0419,7.0419,7.0419,7.0419,7.0419,7.0419,7.0419,7.0419,7.0419,7.0419,7.0419,7.0419,7.0419,7.0419,7.0419,7.0419,7.0419,7.0419,7.0419,7.0419,7.0419,7.0419,7.0419,7.0419,7.0419,7.0419,7.0419,7.0419,7.0419,7.0419,7.0419,7.0419,7.0419,7.0419,7.0419,7.0419,7.0419,7.0419,7.0419,7.0419,7.0419,7.0419,7.0419,7.0419,7.0419,7.0419,7.0419,7.0419,7.0419,7.0419,7.0419,7.0419,7.0419,7.0419,7.0419,7.0419,7.0419,7.0419,7.0419,7.0419,7.0419,6.8394,6.8586,6.878,6.9047,6.9091,6.9155,6.9402,6.9423,6.9466,6.9644,6.9506,6.9423,6.9423,6.9219,6.9176,6.9365,6.9219,6.9091,6.9091,6.8848,6.8538,6.8109,6.8033,6.7915,6.7714,6.7687,6.7687,6.7687,6.7687,6.7687,6.7714,6.7915,6.8007,6.8007,6.8235,6.8467,6.8688,6.8688,6.8981,6.9423,6.9423,6.9682,7.0073,7.0073,7.0196,7.0419,7.0419,7.0419,7.0419,7.0419,7.0419,7.0419,7.0419,7.0419,7.0419,7.0419,7.0419,7.0419,7.0419,7.0419,7.0419,7.0419,7.0419,7.0419,7.0419,7.0419,7.0419,7.0419,7.0419,7.0419,7.0419,7.0419,7.0419,7.0419,7.0419,7.0419,7.0419,7.0419,7.0419,7.0419,7.0419,7.0419,7.0419,7.0419,7.0419,7.0419,7.0419,7.0419,7.0419,7.0419,7.0419,7.0419,7.0419,7.0419,7.0419,7.0419,7.0419,7.0419,7.0419,7.0419,7.0419,7.0419,7.0419,7.0419,7.0419,7.0419,7.0419,7.0419,7.0419,7.0419,7.0419,7.0419,7.0419,7.0419,7.0419,7.0419]}]]